     2.10           OBSERVATION DATA    G (GPS)             RINEX VERSION / TYPE
teqc 2002Apr3 20050812 22:29:30UTC                          PGM / RUN BY / DATE
                                                            COMMENT
L2: 1 -> 1; 5 -> 5; 40 -> 9                                 COMMENT
L2: 1 -> 1; 5 -> 5; 40 -> 9                                 COMMENT
L2: 1 -> 1; 5 -> 5; 40 -> 9                                 COMMENT
L2: 1 -> 1; 5 -> 5; 40 -> 9                                 COMMENT
Original Marker Name: R70R                                  COMMENT
Campaign Name: USGS Coachella Subsidence 1996-2000          COMMENT
4-Character Station Name: R70R                              COMMENT
6-Character Antenna Code: DMRCHT                            COMMENT
Vertical Measurement Point: BPA                             COMMENT
Vertical Offset to Rinex Ref. Point: 0.0000                 COMMENT
Radial Measurement Point: RRP                               COMMENT
Radial Offset to Rinex Ref. Point: 0.0000                   COMMENT
Antenna Height from Field Measurement: 2.0000 m             COMMENT
Additional Antenna Identification Info.:                    COMMENT
Turborogue and Ashtech Choke Ring                           COMMENT
Original XYZ: -2343518.9700 -4768161.6600 3516944.2000      COMMENT
New XYZ position is based on association with SCEC monument COMMENT
E1D0L1Q3+0011. Position of that monument is believed to be  COMMENT
valid to within 1 m horizontally; vertical accuracy         COMMENT
should be no worse than 3-times this value.                 COMMENT
                                                            COMMENT
Revised Rinex header created by UCSD GPS archive for        COMMENT
GSAC on 20-Apr-2005 (2005:110) 16:15:26 GMT                 COMMENT
For assistance contact dagnew@ucsd.edu                      COMMENT
or anderson@python.ucsd.edu                                 COMMENT
                                                            COMMENT
R70 RESET 1958                                              MARKER NAME
AHC US GEOLOGICAL SURVEY WATER RESOURC.                     OBSERVER / AGENCY
621 ASHTECH L-XII 7A                                        REC # / TYPE / VERS
713 DORNE-MARGOL. TYPE T                                    ANT # / TYPE
 -2343546.0000 -4768169.0000  3516948.0000                  APPROX POSITION XYZ
        2.0000        0.0000        0.0000                  ANTENNA: DELTA H/E/N
     1     1     0                                          WAVELENGTH FACT L1/2
     4    C1    L1    L2    S1                              # / TYPES OF OBSERV
     0                                                      INTERVAL
  1996     6    10    17    51   15.000000                  TIME OF FIRST OBS
  1996     6    10    20    40   15.000000                  TIME OF LAST OBS
                                                            END OF HEADER
 96  6 10 17 51 15.0000000  0  5G 2G 4G 5G 7G 9
  23196820.795   -10161837.032 7     76461.21121        58.000
  20711016.412     -393026.756 9    -11059.13222       114.000
  23495342.163    11086604.687 7    -82756.96121        46.000
  22069550.278    -2804565.771 9     60378.67521       106.000
  21472903.118     -114635.977 9    -15849.29321       124.000
 96  6 10 17 51 30.0000000  0  5G 2G 4G 5G 7G 9
  23204130.755   -10123462.276 8    106362.51521        68.000
  20710003.203     -398335.120 9    -15191.23524       112.000
  23488147.894    11048785.485 7   -112226.58021        42.000
  22076102.063    -2770128.515 9     87206.87821       102.000
  21471420.975     -122447.942 9    -21936.89921       120.000
 96  6 10 17 51 45.0000000  0  6G24G 2G 4G 5G 7G 9
  21798241.102     4963794.588 9    -38362.18821        88.000
  23211374.310   -10085367.833 8    136046.49723        66.000
  20708960.255     -403849.289 9    -19488.06026       116.000
  23480891.147    11010617.866 7   -141967.52322        44.000
  22082590.231    -2736018.768 9    113783.90921        94.000
  21469891.733     -130477.218 9    -28188.24721       128.000
 96  6 10 17 52  0.0000000  0  6G24G 2G 4G 5G 7G 9
  21791321.892     4927448.021 9    -66684.18625        92.000
  23218604.854   -10047349.495 7    165671.18024        60.000
  20707911.641     -409364.034 9    -23785.24528       120.000
  23473600.584    10972303.700 7   -171822.69223        48.000
  22089058.913    -2702032.928 9    140271.83521        90.000
  21468361.383     -138519.261 9    -34457.63421       128.000
 96  6 10 17 52 15.0000000  0  6G24G 2G 4G 5G 7G 9
  21784414.074     4891150.842 9    -94967.70526        94.000
  23225850.688   -10009309.213 8    195312.94525        64.000
  20706874.119     -414782.406 9    -28007.36529       114.000
  23466300.398    10933940.124 7   -201716.35024        48.000
  22095524.537    -2668074.823 9    166720.98321        92.000
  21466847.221     -146474.841 9    -40653.08721       124.000
 96  6 10 17 52 30.0000000  0  6G24G 2G 4G 5G 7G 9
  21777531.768     4854974.465 9   -123157.09226        92.000
  23233104.197    -9971179.723 7    225024.20325        60.000
  20705877.219     -420034.316 9    -32099.76429       114.000
  23459000.632    10895598.205 7   -231593.14825        48.000
  22101996.486    -2634075.562 9    193218.40121        94.000
  21465359.891     -154272.415 9    -46723.74121       124.000
 96  6 10 17 52 45.0000000  0  6G24G 2G 4G 5G 7G 9
  21770677.044     4818969.855 9   -151212.60927        92.000
  23240392.541    -9932912.396 7    254842.90725        62.000
  20704919.233     -425066.057 9    -36020.58629       114.000
  23451723.110    10857327.775 7   -261414.21925        46.000
  22108483.515    -2599983.285 9    219785.35521        92.000
  21463918.668     -161859.395 9    -52636.74921       124.000
 96  6 10 17 53  0.0000000  0  6G24G 2G 4G 5G 7G 9
  21763869.357     4783157.904 9   -179118.02127       100.000
  23247700.492    -9894485.482 7    284785.92826        54.000
  20704006.604     -429852.457 9    -39750.26329       110.000
  23444453.383    10819152.477 7   -291161.18825        46.000
  22114993.748    -2565772.932 9    246440.31021        90.000
  21462518.098     -169214.067 9    -58366.61721       126.000
 96  6 10 17 53 15.0000000  0  6G24G 2G 4G 5G 7G 9
  21757093.867     4747577.276 9   -206843.18328       100.000
  23255052.452    -9855862.556 7    314881.68126        54.000
  20703154.834     -434352.471 9    -43256.76629       110.000
  23437209.947    10781113.661 7   -320801.81825        42.000
  22121532.102    -2531402.746 9    273223.37521        86.000
  21461168.342     -176296.583 9    -63890.02621       130.000
 96  6 10 17 53 30.0000000  0  6G24G 2G 4G 5G 7G 9
  21750366.734     4712226.366 9   -234389.33928        98.000
  23262438.319    -9817049.766 7    345125.40926        54.000
  20702347.343     -438568.974 9    -46542.34829       114.000
  23430001.737    10743209.347 7   -350337.62325        44.000
  22128103.763    -2496874.013 9    300126.05921        88.000
  21459874.108     -183110.036 9    -69205.29721       126.000
 96  6 10 17 53 45.0000000  0  6G24G 2G 4G 5G 7G 9
  21743681.902     4677114.201 9   -261749.42428        94.000
  23269863.219    -9778038.707 7    375523.63026        52.000
  20701602.509     -442492.300 9    -49599.44429       116.000
  23422815.382    10705451.095 7   -379759.59025        48.000
  22134705.013    -2462176.398 9    327163.05222        90.000
  21458631.648     -189645.349 9    -74289.44421       122.000
 96  6 10 17 54  0.0000000  0  6G24G 2G 4G 5G 7G 9
  21737053.941     4642253.511 9   -288913.59528       102.000
  23277326.552    -9738812.933 7    406089.15726        54.000
  20700917.153     -446104.529 9    -52414.14929       114.000
  23415661.975    10667854.424 7   -409055.65425        44.000
  22141339.360    -2427296.496 9    354342.23825        88.000
  21457440.063     -195887.443 9    -79152.02621       124.000
 96  6 10 17 54 15.0000000  0  6G24G 2G 4G 5G 7G 9
  21730461.325     4607635.963 9   -315888.35429       104.000
  23284833.565    -9699381.548 7    436814.82026        56.000
  20700288.069     -449415.778 9    -54994.40829       110.000
  23408536.298    10630410.080 7   -438233.09025        46.000
  22148008.723    -2392246.762 8    381653.65726        82.000
  21456308.767     -201844.860 9    -83798.62521       126.000
 96  6 10 17 54 30.0000000  0  6G24G 2G 4G 5G 7G 9
  21723925.789     4573273.865 9   -342663.98629       108.000
  23292370.198    -9659731.344 7    467711.13326        48.000
  20699714.836     -452415.900 9    -57332.12229       116.000
  23401442.638    10593134.974 7   -467278.58325        50.000
  22154712.382    -2357015.939 8    409106.26426        80.000
  21455233.201     -207504.778 9    -88216.78921       126.000
 96  6 10 17 54 45.0000000  0  6G24G 2G 4G 5G 7G 9
  21717433.604     4539154.089 9   -369250.80329       106.000
  23299963.371    -9619871.580 7    498770.65126        48.000
  20699200.632     -455117.292 9    -59437.09729       118.000
  23394380.937    10556014.509 7   -496203.62226        48.000
  22161450.727    -2321615.831 9    436690.76227        84.000
  21454207.401     -212880.331 9    -92402.94221       126.000
 96  6 10 17 55  0.0000000  0  6G24G 2G 4G 5G 7G 9
  21710986.657     4505286.571 9   -395641.07229       102.000
  23307589.342    -9579792.578 7    530001.00726        50.000
  20698746.296     -457512.146 9    -61303.23529       114.000
  23387350.564    10519058.456 7   -525000.53526        52.000
  22168219.561    -2286039.916 8    464412.22427        82.000
  21453241.470     -217963.699 9    -96363.99125       132.000
 96  6 10 17 55 15.0000000  0  6G24G 2G 4G 5G 7G 9
  21704587.587     4471665.789 9   -421839.06229        98.000
  23315257.013    -9539499.359 7    561398.30026        48.000
  20698346.793     -459610.068 9    -62937.96029       110.000
  23380343.305    10482261.359 7   -553673.57526        56.000
  22175020.593    -2250298.758 9    492262.49228        84.000
  21452328.272     -222761.509 9   -100102.52726       136.000
 96  6 10 17 55 30.0000000  0  6G24G 2G 4G 5G 7G 9
  21698235.344     4438278.107 9   -447855.44329        96.000
  23322960.750    -9499004.991 7    592952.31926        42.000
  20697997.145     -461428.790 9    -64355.16029       118.000
  23373373.910    10445605.540 7   -582236.56326        58.000
  22181851.784    -2214410.222 9    520227.55928        88.000
  21451469.936     -227288.805 9   -103630.31726       136.000
 96  6 10 17 55 45.0000000  0  6G24G 2G 4G 5G 7G 9
  21691928.850     4405131.470 9   -473683.97529       102.000
  23330697.854    -9458300.662 7    624669.96426        42.000
  20697708.565     -462962.676 9    -65550.37229       122.000
  23366426.310    10409095.488 7   -610685.92626        58.000
  22188706.448    -2178370.028 9    548310.84128        88.000
  21450660.916     -231538.208 9   -106941.52026       130.000
 96  6 10 17 56  0.0000000  0  6G24G 2G 4G 5G 7G 9
  21685667.805     4372221.655 9   -499327.95729       108.000
  23338486.402    -9417388.945 6    656549.23026        40.000
  20697470.140     -464216.890 9    -66527.67729       116.000
  23359500.414    10372727.403 7   -639024.65226        60.000
  22195598.257    -2142184.276 9    576507.51828        88.000
  21449901.212     -235510.956 9   -110037.17327       124.000
 96  6 10 17 56 15.0000000  0  6G24G 2G 4G 5G 7G 9
  21679446.541     4339545.822 9   -524789.65129       104.000
  23346312.724    -9376273.388 7    688587.27826        46.000
  20697285.018     -465196.669 9    -67291.14929       122.000
  23352608.036    10336498.173 7   -667255.24326        58.000
  22202504.486    -2105856.673 8    604814.72229        82.000
  21449198.769     -239209.959 9   -112919.53527       124.000
 96  6 10 17 56 30.0000000  0  6G24G 2G 4G 5G 7G 9
  21673269.528     4307085.899 9   -550083.07829       106.000
  23354179.728    -9334976.375 7    720766.74626        46.000
  20697147.383     -465924.345 9    -67858.16329       120.000
  23345736.793    10300389.983 7   -695391.45426        58.000
  22209443.452    -2069406.918 9    633217.13529        86.000
  21448545.281     -242653.659 9   -115602.93127       122.000
 96  6 10 17 56 45.0000000  0  6G24G 2G 4G 5G 7G 9
  21667134.725     4274852.471 9   -575200.03729       102.000
  23362066.158    -9293488.572 7    753094.85526        44.000
  20697056.906     -466387.083 9    -68218.74529       112.000
  23338891.332    10264413.185 8   -723425.30526        64.000
  22216404.813    -2032822.545 9    661724.40229        88.000
  21447937.572     -245832.113 9   -118079.66128       122.000
 96  6 10 17 57  0.0000000  0  6G24G 2G 4G 5G 7G 9
  21661043.122     4242834.481 9   -600149.09929       104.000
  23369993.450    -9251825.620 7    785559.47926        44.000
  20697016.404     -466595.359 9    -68381.03729       110.000
  23332069.494    10228554.594 7   -751367.04226        58.000
  22223390.337    -1996114.205 9    690328.27129        92.000
  21447379.118     -248756.461 9   -120358.37028       122.000
 96  6 10 17 57 15.0000000  0  6G24G 2G 4G 5G 7G 9
  21654990.342     4211028.160 9   -624933.23929       102.000
  23377956.927    -9209990.963 7    818157.89126        44.000
  20697027.886     -466550.846 9    -68346.33929       114.000
  23325261.148    10192815.012 7   -779216.05726        54.000
  22230398.945    -1959283.132 9    719027.81229        94.000
  21446871.000     -251427.129 9   -122439.40628       120.000
 96  6 10 17 57 30.0000000  0  6G24G 2G 4G 5G 7G 9
  21648978.514     4179420.747 9   -649562.41329        98.000
  23385946.126    -9167995.444 7    850881.65926        46.000
  20697080.649     -466263.597 9    -68122.54029       116.000
  23318482.780    10157180.847 7   -806982.94226        56.000
  22237431.836    -1922337.708 9    747816.43129        96.000
  21446408.630     -253855.187 9   -124331.43628       124.000
 96  6 10 17 57 45.0000000  0  6G24G 2G 4G 5G 7G 9
  21642999.153     4148012.294 9   -674036.48029        94.000
  23393963.656    -9125840.777 7    883729.46526        44.000
  20697178.382     -465730.692 9    -67707.27529       112.000
  23311720.332    10121651.500 7   -834668.09726        54.000
  22244482.745    -1885275.428 9    776696.15229        96.000
  21445995.486     -256042.546 9   -126035.85629       126.000
 96  6 10 17 58  0.0000000  0  6G24G 2G 4G 5G 7G 9
  21637056.697     4116788.274 9   -698366.86829        90.000
  23402012.244    -9083541.645 7    916689.84526        46.000
  20697323.901     -464965.228 9    -67110.78429       114.000
  23304980.698    10086216.614 7   -862279.66326        56.000
  22251557.158    -1848109.873 9    805656.32129        92.000
  21445622.964     -258002.890 9   -127563.38329       128.000
 96  6 10 17 58 15.0000000  0  6G24G 2G 4G 5G 7G 9
  21631154.204     4085751.477 9   -722551.36229        96.000
  23410093.450    -9041097.021 7    949763.56325        46.000
  20697518.016     -463966.853 9    -66332.82529       122.000
  23298261.239    10050880.424 7   -889814.34826        54.000
  22258650.937    -1810837.226 9    834699.94129        90.000
  21445291.514     -259737.897 9   -128915.33529       124.000
 96  6 10 17 58 30.0000000  0  6G24G 2G 4G 5G 7G 9
  21625280.010     4054897.782 9   -746593.20629        98.000
  23418201.546    -8998511.687 7    982946.89025        50.000
  20697752.814     -462737.813 9    -65375.14929       124.000
  23291550.475    10015640.229 7   -917274.22026        50.000
  22265761.204    -1773460.684 9    863824.48528        86.000
  21445004.372     -261253.242 9   -130096.15229       126.000
 96  6 10 17 58 45.0000000  0  6G24G 2G 4G 5G 7G 9
  21619444.190     4024223.018 9   -770495.60429       100.000
  23426330.029    -8955789.244 7   1016237.07825        48.000
  20698028.233     -461279.888 9    -64239.09729       122.000
  23284865.283     9980490.955 7   -944663.23126        58.000
  22272890.898    -1735984.538 8    893026.68228        80.000
  21444754.795     -262554.396 9   -131110.04029       126.000
 96  6 10 17 59  0.0000000  0  6G24G 2G 4G 5G 7G 9
  21613643.056     3993721.919 9   -794262.67529       104.000
  23434478.178    -8912930.351 7   1049633.60325        46.000
  20698345.384     -459596.164 9    -62927.08729       118.000
  23278192.473     9945426.616 7   -971986.06126        60.000
  22280044.006    -1698413.827 8    922302.54828        80.000
  21444549.677     -263646.876 9   -131961.31129       128.000
 96  6 10 17 59 15.0000000  0  6G24G 2G 4G 5G 7G 9
  21607869.084     3963392.700 9   -817895.81129       100.000
  23442664.431    -8869936.616 7   1083135.23725        46.000
  20698713.139     -457690.408 9    -61442.07929       122.000
  23271533.363     9910446.022 7   -999243.64226        56.000
  22287211.535    -1660751.530 8    951649.79728        80.000
  21444378.795     -264533.517 9   -132652.20129       128.000
 96  6 10 17 59 30.0000000  0  6G24G 2G 4G 5G 7G 9
  21602128.658     3933236.824 9   -841393.93229        94.000
  23450870.170    -8826808.478 7   1116741.53526        48.000
  20699117.739     -455563.797 9    -59785.00229       124.000
  23264894.099     9875547.725 7  -1026437.12326        52.000
  22294391.114    -1622999.836 8    981066.68228        76.000
  21444250.454     -265217.015 9   -133184.82029       138.000
 96  6 10 17 59 45.0000000  0  6G24G 2G 4G 5G 7G 9
  21596421.359     3903243.265 9   -864765.50229        92.000
  23459097.825    -8783559.342 7   1150442.15125        46.000
  20699562.691     -453228.462 9    -57965.24029       118.000
  23258259.452     9840719.666 7  -1053575.83326        54.000
  22301589.011    -1585170.405 8   1010544.17928        76.000
  21444155.420     -265709.300 9   -133568.39929       140.000
 96  6 10 18  0  0.0000000  0  6G24G 2G 4G 5G 7G 9
  21590743.259     3873409.362 9   -888012.70329        88.000
  23467349.972    -8740191.586 7   1184235.16925        44.000
  20700042.958     -450688.735 9    -55986.23529       112.000
  23251646.270     9805963.567 7  -1080658.49526        58.000
  22308805.795    -1547263.943 8   1040081.66528        78.000
  21444099.988     -266009.945 9   -133802.68429       144.000
 96  6 10 18  0 15.0000000  0  6G24G 2G 4G 5G 7G 9
  21585098.048     3843739.290 9   -911132.21829        88.000
  23475631.618    -8696701.809 7   1218123.28525        50.000
  20700563.878     -447943.730 9    -53847.26929       116.000
  23245048.618     9771281.924 7  -1107683.10626        60.000
  22316033.042    -1509279.143 8   1069680.20328        74.000
  21444084.369     -266116.139 9   -133885.42129       144.000
 96  6 10 18  0 30.0000000  0  6G24G 2G 4G 5G 7G 9
  21579479.697     3814232.787 9   -934124.29629        84.000
  23483924.747    -8653089.717 7   1252106.72825        44.000
  20701126.049     -444992.832 9    -51547.85829       122.000
  23238465.475     9736670.059 7  -1134653.36826        58.000
  22323276.207    -1471215.086 8   1099340.51528        78.000
  21444099.539     -266027.557 9   -133816.38229       140.000
 96  6 10 18  0 45.0000000  0  6G24G 2G 4G 5G 7G 9
  21573892.675     3784881.213 8   -956995.63129        82.000
  23492246.686    -8609361.367 7   1286180.75725        48.000
  20701724.854     -441845.291 9    -49095.23429       118.000
  23231888.718     9702114.431 7  -1161579.81826        58.000
  22330534.932    -1433082.749 8   1129053.98728        80.000
  21444148.675     -265750.584 9   -133600.57929       136.000
 96  6 10 18  1  0.0000000  0  6G24G 2G 4G 5G 7G 9
  21568345.195     3755685.110 9   -979745.83729        94.000
  23500591.469    -8565514.279 7   1320347.29525        46.000
  20702361.134     -438503.273 9    -46491.06429       114.000
  23225324.642     9667614.725 8  -1188462.69926        64.000
  22337803.041    -1394883.513 8   1158819.60028        74.000
  21444238.912     -265285.863 9   -133238.47829       140.000
 96  6 10 18  1 15.0000000  0  6G24G 2G 4G 5G 7G 9
  21562816.543     3726645.451 9  -1002374.13829        94.000
  23508961.585    -8521548.418 7   1354606.43525        52.000
  20703040.044     -434967.478 9    -43735.90729       120.000
  23218765.333     9633174.513 8  -1215299.19026        64.000
  22345084.880    -1356614.708 8   1188639.45528        76.000
  21444357.630     -264630.685 9   -132727.94429       138.000
 96  6 10 18  1 30.0000000  0  6G24G 2G 4G 5G 7G 9
  21557319.368     3697767.668 9  -1024876.26729        94.000
  23517350.077    -8477462.538 7   1388959.08325        50.000
  20703748.453     -431234.355 9    -40826.96029       120.000
  23212224.282     9598797.227 8  -1242086.66126        68.000
  22352375.772    -1318271.432 8   1218517.33327        72.000
  21444523.056     -263781.093 9   -132065.91329       142.000
 96  6 10 18  1 45.0000000  0  6G24G 2G 4G 5G 7G 9
  21551854.062     3669044.995 9  -1047257.59829        92.000
  23525765.042    -8433258.717 7   1423403.55325        50.000
  20704492.778     -427307.179 9    -37766.85229       120.000
  23205700.498     9564478.217 8  -1268828.75926        66.000
  22359684.113    -1279856.754 8   1248450.82027        72.000
  21444721.128     -262740.600 9   -131255.17929       142.000
 96  6 10 18  2  0.0000000  0  6G24G 2G 4G 5G 7G 9
  21546420.593     3640472.404 9  -1069521.94529       100.000
  23534203.900    -8388940.511 7   1457937.18525        52.000
  20705274.906     -423189.597 9    -34558.33629       126.000
  23199174.526     9530213.585 7  -1295528.43926        58.000
  22367016.107    -1241375.479 8   1278436.20627        80.000
  21444955.236     -261513.245 9   -130298.80329       130.000
 96  6 10 18  2 15.0000000  0  6G24G 2G 4G 5G 7G 9
  21541009.819     3612048.901 9  -1091670.11929       104.000
  23542651.811    -8344510.096 7   1492558.25625        48.000
  20706096.308     -418883.597 9    -31203.00629       128.000
  23192667.740     9495998.489 7  -1322189.51126        60.000
  22374352.628    -1202834.734 9   1308467.96527        84.000
  21445224.780     -260105.370 9   -129201.76229       126.000
 96  6 10 18  2 30.0000000  0  6G24G 2G 4G 5G 7G 9
  21535629.504     3583785.789 9  -1113693.32329       104.000
  23551132.130    -8299955.997 7   1527275.73925        44.000
  20706949.187     -414378.150 9    -27692.26029       126.000
  23186166.501     9461841.811 8  -1348805.07926        64.000
  22381693.856    -1164226.976 8   1338551.91227        80.000
  21445527.031     -258507.711 9   -127956.83829       126.000
 96  6 10 18  2 45.0000000  0  6G24G 2G 4G 5G 7G 9
  21530284.564     3555676.911 9  -1135596.33229        96.000
  23559636.133    -8255285.100 7   1562084.21925        42.000
  20707848.145     -409677.795 9    -24029.64129       128.000
  23179677.073     9427740.477 8  -1375377.54226        64.000
  22389050.973    -1125557.869 8   1368683.66928        78.000
  21445867.085     -256723.948 9   -126566.88829       124.000
 96  6 10 18  3  0.0000000  0  6G24G 2G 4G 5G 7G 9
  21524960.700     3527711.045 9  -1157387.86529        94.000
  23568146.042    -8210510.991 6   1596973.13125        38.000
  20708777.382     -404793.241 9    -20223.48729       130.000
  23173194.271     9393688.065 7  -1401911.87426        62.000
  22396420.681    -1086840.192 8   1398853.29728        76.000
  21446237.059     -254767.165 9   -125042.10729       122.000
 96  6 10 18  3 15.0000000  0  6G24G 2G 4G 5G 7G 9
  21519665.076     3499893.990 9  -1179063.49429        92.000
  23576686.829    -8165631.436 6   1631944.15125        40.000
  20709745.172     -399714.352 9    -16265.92529       126.000
  23166728.438     9359694.929 8  -1428400.03226        66.000
  22403797.794    -1048065.705 8   1429067.14828        80.000
  21446644.897     -252631.545 9   -123378.00229       132.000
 96  6 10 18  3 30.0000000  0  6G24G 2G 4G 5G 7G 9
  21514396.163     3472213.720 9  -1200632.54229       102.000
  23585243.146    -8120662.130 6   1666985.09425        36.000
  20710745.789     -394452.513 9    -12165.80129       122.000
  23160269.199     9325744.551 8  -1454854.85826        64.000
  22411184.680    -1009246.184 8   1459316.11828        82.000
  21447085.172     -250328.832 9   -121583.69229       132.000
 96  6 10 18  3 45.0000000  0  6G24G 2G 4G 5G 7G 9
  21509159.838     3444678.987 9  -1222088.18129       108.000
  23593823.806    -8075595.062 6   1702102.28025        40.000
  20711784.870     -388998.957 9     -7916.28229       122.000
  23153816.796     9291844.038 8  -1481270.82926        64.000
  22418588.834     -970373.776 9   1489606.30628        86.000
  21447552.458     -247850.449 9   -119652.49729       128.000
 96  6 10 18  4  0.0000000  0  6G24G 2G 4G 5G 7G 9
  21503947.347     3417289.197 9  -1243430.88729       106.000
  23602412.440    -8030432.903 6   1737293.55325        36.000
  20712857.917     -383355.083 9     -3518.47229       122.000
  23147376.325     9257992.978 8  -1507648.26326        70.000
  22425986.003     -931452.532 8   1519934.54128        82.000
  21448060.097     -245196.420 9   -117584.45029       126.000
 96  6 10 18  4 15.0000000  0  6G24G 2G 4G 5G 7G 9
  21498765.584     3390037.818 9  -1264665.66928       110.000
  23611034.561    -7985188.055 7   1772549.31025        44.000
  20713967.269     -377533.667 9      1017.73729       120.000
  23140934.684     9224181.351 8  -1533994.94026        68.000
  22433404.337     -892493.968 8   1550291.88528        80.000
  21448595.107     -242375.666 9   -115386.41929       124.000
 96  6 10 18  4 30.0000000  0  6G24G 2G 4G 5G 7G 9
  21493604.987     3362928.160 9  -1285790.09728       112.000
  23619652.005    -7939857.490 6   1807871.81025        40.000
  20715110.827     -371532.124 9      5694.23929       124.000
  23134513.999     9190413.812 8  -1560307.34826        66.000
  22440820.993     -853492.449 8   1580682.65028        74.000
  21449166.511     -239382.584 9   -113054.18529       124.000
 96  6 10 18  4 45.0000000  0  6G24G 2G 4G 5G 7G 9
  21488473.559     3335956.368 9  -1306807.05828       112.000
  23628296.701    -7894446.149 7   1843257.23625        42.000
  20716283.885     -365352.127 9     10509.82729       126.000
  23128100.809     9156689.596 8  -1586585.90426        66.000
  22448255.186     -814447.304 8   1611107.44428        76.000
  21449768.404     -236217.150 9   -110587.60229       122.000
 96  6 10 18  5  0.0000000  0  6G24G 2G 4G 5G 7G 9
  21483364.826     3309123.208 9  -1327716.03328       108.000
  23636958.334    -7848954.749 7   1878705.01626        42.000
  20717492.708     -358993.985 9     15464.21329       122.000
  23121690.737     9123007.109 7  -1612832.00326        62.000
  22455694.146     -775355.235 8   1641568.77328        80.000
  21450399.318     -232879.683 9   -107986.98929       120.000
 96  6 10 18  5 15.0000000  0  6G24G 2G 4G 5G 7G 9
  21478282.864     3282425.686 9  -1348519.27728       108.000
  23645624.045    -7803385.725 6   1914213.31626        40.000
  20718738.346     -352460.880 9     20554.96129       120.000
  23115283.782     9089360.004 7  -1639050.48926        62.000
  22463138.743     -736216.799 8   1672066.25928        76.000
  21451069.683     -229373.699 9   -105255.03729       124.000
 96  6 10 18  5 30.0000000  0  6G24G 2G 4G 5G 7G 9
  21473232.081     3255861.812 9  -1369218.39328       104.000
  23654310.921    -7757739.541 7   1949781.75026        44.000
  20720008.956     -345759.192 9     25777.05429       120.000
  23108887.920     9055743.886 8  -1665244.87026        66.000
  22470599.977     -697032.197 8   1702599.69228        80.000
  21451769.609     -225698.774 9   -102391.46529       128.000
 96  6 10 18  5 45.0000000  0  6G24G 2G 4G 5G 7G 9
  21468201.024     3229441.724 9  -1389805.47329        98.000
  23663017.314    -7712007.334 7   1985417.19326        42.000
  20721318.240     -338885.811 9     31132.91929       118.000
  23102497.004     9022167.273 8  -1691408.45426        66.000
  22478068.767     -657794.337 8   1733174.64128        82.000
  21452504.310     -221846.782 9    -99389.93529       138.000
 96  6 10 18  6  0.0000000  0  6G24G 2G 4G 5G 7G 9
  21463200.006     3203158.320 9  -1410286.04529       104.000
  23671728.294    -7666194.645 7   2021115.37026        44.000
  20722652.646     -331848.856 9     36616.26029       110.000
  23096120.419     8988626.668 8  -1717543.98626        66.000
  22485542.863     -618512.345 8   1763783.96628        80.000
  21453271.749     -217824.037 9    -96255.33829       132.000
 96  6 10 18  6 15.0000000  0  6G24G 2G 4G 5G 7G 9
  21458226.299     3177005.193 9  -1430665.09529       106.000
  23680462.897    -7620306.322 7   2056872.44826        46.000
  20724026.955     -324656.222 9     42220.90129       116.000
  23089741.375     8955114.081 8  -1743657.70026        64.000
  22493027.331     -579193.839 8   1794421.73328        80.000
  21454063.891     -213640.395 9    -92995.38829       128.000
 96  6 10 18  6 30.0000000  0  6G24G 2G 4G 5G 7G 9
  21453268.811     3150984.577 9  -1450940.85529       106.000
  23689202.566    -7574333.605 7   2092695.37426        46.000
  20725427.255     -317302.618 9     47951.00029       122.000
  23083368.566     8921634.742 7  -1769745.42826        62.000
  22500518.425     -539832.002 8   1825093.30328        76.000
  21454893.596     -209291.985 9    -89606.98829       122.000
 96  6 10 18  6 45.0000000  0  6G24G 2G 4G 5G 7G 9
  21448340.613     3125093.614 9  -1471115.64529       108.000
  23697971.346    -7528274.939 7   2128585.21326        50.000
  20726854.657     -309785.777 9     53808.26829       122.000
  23076998.666     8888189.509 7  -1795806.63326        58.000
  22508013.027     -500427.244 8   1855798.28928        76.000
  21455751.572     -204780.639 9    -86091.67029       120.000
 96  6 10 18  7  0.0000000  0  6G24G 2G 4G 5G 7G 9
  21443438.257     3099329.312 9  -1491191.71929       106.000
  23706751.577    -7482132.189 7   2164540.55926        46.000
  20728313.567     -302110.617 9     59788.92029       122.000
  23070638.899     8854773.246 7  -1821845.25726        60.000
  22515517.911     -460985.257 8   1886532.31028        74.000
  21456638.688     -200112.733 9    -82454.34429       122.000
 96  6 10 18  7 15.0000000  0  6G24G 2G 4G 5G 7G 9
  21438565.040     3073684.759 9  -1511174.50029       110.000
  23715555.343    -7435909.404 7   2200558.31026        50.000
  20729806.474     -294284.469 9     65887.21229       126.000
  23064295.321     8821380.053 8  -1847865.93526        66.000
  22523029.241     -421515.270 8   1917288.11828        74.000
  21457558.691     -195294.289 9    -78699.73429       118.000
 96  6 10 18  7 30.0000000  0  6G24G 2G 4G 5G 7G 9
  21433704.265     3048164.044 9  -1531060.75129       116.000
  23724368.911    -7389601.775 7   2236642.14826        44.000
  20731326.991     -286302.939 9     72106.59629       124.000
  23057941.999     8788018.030 8  -1873862.27526        64.000
  22530545.428     -382015.712 8   1948067.00027        72.000
  21458499.830     -190321.807 9    -74825.04829       118.000
 96  6 10 18  7 45.0000000  0  6G24G 2G 4G 5G 7G 9
  21428876.258     3022771.206 9  -1550847.38129       120.000
  23733192.882    -7343207.375 7   2272793.61326        44.000
  20732871.672     -278164.640 9     78448.11629       120.000
  23051598.930     8754690.746 8  -1899831.58226        64.000
  22538064.163     -342489.304 8   1978866.78727        68.000
  21459479.222     -185194.524 9    -70829.77229       120.000
 96  6 10 18  8  0.0000000  0  6G24G 2G 4G 5G 7G 9
  21424063.060     2997492.640 9  -1570544.93829       120.000
  23742031.184    -7296739.657 7   2309002.22726        42.000
  20734450.738     -269878.798 9     84904.61729       118.000
  23045259.159     8721384.173 8  -1925784.72626        64.000
  22545591.652     -302952.618 8   2009674.58227        68.000
  21460480.499     -179926.883 9    -66725.10729       114.000
 96  6 10 18  8 15.0000000  0  6G24G 2G 4G 5G 7G 9
  21419279.331     2972338.606 9  -1590145.50429       122.000
  23750899.524    -7250184.247 7   2345279.10025        42.000
  20736060.984     -261428.244 9     91489.44229       120.000
  23038930.480     8688111.169 8  -1951711.74526        68.000
  22553117.941     -263391.776 8   2040501.15527        70.000
  21461508.517     -174505.845 9    -62500.94129       112.000
 96  6 10 18  8 30.0000000  0  6G24G 2G 4G 5G 7G 9
  21414513.561     2947307.423 9  -1609650.30629       120.000
  23759774.580    -7203542.545 6   2381623.24225        40.000
  20737699.260     -252813.459 9     98202.27529       116.000
  23032604.380     8654871.856 8  -1977612.47226        68.000
  22560652.116     -223806.155 8   2071347.08227        72.000
  21462573.260     -168931.485 9    -58157.27529       120.000
 96  6 10 18  8 45.0000000  0  6G24G 2G 4G 5G 7G 9
  21409771.444     2922380.525 9  -1629073.82929       120.000
  23768652.664    -7156836.733 7   2418017.34725        44.000
  20739364.037     -244051.628 9    105029.68729       112.000
  23026284.485     8621648.823 8  -2003500.52126        72.000
  22568186.380     -184213.199 8   2102198.73927        78.000
  21463657.129     -163220.440 9    -53707.10129       120.000
 96  6 10 18  9  0.0000000  0  6G24G 2G 4G 5G 7G 9
  21405050.192     2897572.188 9  -1648404.99429       116.000
  23777555.271    -7110056.919 7   2454469.12825        42.000
  20741067.638     -235129.887 9    111981.67629       118.000
  23019964.110     8588452.509 8  -2029367.76926        68.000
  22575721.453     -144603.155 8   2133063.69427        80.000
  21464772.207     -157361.358 9    -49141.61729       116.000
 96  6 10 18  9 15.0000000  0  6G24G 2G 4G 5G 7G 9
  21400350.166     2872871.713 9  -1667652.10129       122.000
  23786476.435    -7063218.805 7   2490966.32725        42.000
  20742790.185     -226062.856 9    119046.89329       120.000
  23013648.653     8555268.358 7  -2055225.52326        60.000
  22583261.443     -104988.541 8   2163932.21627        78.000
  21465913.577     -151364.846 9    -44469.02029       120.000
 96  6 10 18  9 30.0000000  0  6G24G 2G 4G 5G 7G 9
  21395668.007     2848273.152 9  -1686819.80429       122.000
  23795399.248    -7016328.366 7   2527504.30625        42.000
  20744542.892     -216854.044 9    126222.59229       120.000
  23007332.655     8522090.048 7  -2081078.72426        60.000
  22590800.864      -65374.873 8   2194800.01527        80.000
  21467082.918     -145236.060 9    -39693.33929       124.000
 96  6 10 18  9 45.0000000  0  6G24G 2G 4G 5G 7G 9
  21391007.044     2823786.815 9  -1705900.05029       116.000
  23804329.496    -6969379.411 6   2564087.86625        40.000
  20746324.408     -207495.573 9    133514.92029       116.000
  23001017.077     8488924.292 7  -2106922.11926        60.000
  22598338.516      -25755.918 8   2225671.91527        80.000
  21468273.424     -138968.021 9    -34809.13929       126.000
 96  6 10 18 10  0.0000000  0  6G24G 2G 4G 5G 7G 9
  21386368.805     2799405.508 9  -1724898.48229       116.000
  23813274.283    -6922377.298 7   2600712.87425        44.000
  20748130.748     -197989.950 9    140921.87529       118.000
  22994719.967     8455764.895 8  -2132760.64426        64.000
  22605875.268       13864.509 8   2256544.94327        80.000
  21469491.720     -132563.225 9    -29818.41329       120.000
 96  6 10 18 10 15.0000000  0  6G24G 2G 4G 5G 7G 9
  21381748.494     2775125.561 9  -1743817.89129       118.000
  23822222.219    -6875322.439 6   2637379.00025        34.000
  20749969.315     -188338.210 9    148442.74029       118.000
  22988406.877     8422612.678 8  -2158593.53526        64.000
  22613421.524       53488.779 8   2287421.00227        80.000
  21470738.767     -126021.755 9    -24721.13729       120.000
 96  6 10 18 10 30.0000000  0  6G24G 2G 4G 5G 7G 9
  21377144.461     2750950.180 9  -1762655.84229       112.000
  23831185.653    -6828213.793 6   2674086.99025        36.000
  20751833.305     -178541.302 9    156076.68329       114.000
  22982098.734     8389468.712 8  -2184419.98626        68.000
  22620961.874       93118.712 8   2318301.45427        82.000
  21472009.407     -119344.378 9    -19518.00929       120.000
 96  6 10 18 10 45.0000000  0  6G24G 2G 4G 5G 7G 9
  21372567.409     2726887.728 9  -1781405.81029       108.000
  23840165.577    -6781047.466 6   2710839.93925        36.000
  20753726.014     -168596.011 9    163826.27129       114.000
  22975794.608     8356336.744 8  -2210237.09426        68.000
  22628504.832      132759.133 9   2349190.08627        84.000
  21473307.089     -112527.810 9    -14206.38929       122.000
 96  6 10 18 11  0.0000000  0  6G24G 2G 4G 5G 7G 9
  21368010.024     2702936.052 9  -1800069.43929       106.000
  23849156.413    -6733826.795 6   2747635.26325        36.000
  20755645.196     -158506.220 9    171688.44829       112.000
  22969493.990     8323211.627 8  -2236048.88326        70.000
  22636050.968      172402.872 9   2380081.30427        84.000
  21474628.994     -105575.749 9     -8789.20829       122.000
 96  6 10 18 11 15.0000000  0  6G24G 2G 4G 5G 7G 9
  21363472.366     2679089.097 9  -1818651.46929       108.000
  23858150.696    -6686558.892 6   2784467.37925        34.000
  20757586.592     -148282.469 9    179655.01029       112.000
  22963188.875     8290087.213 8  -2261860.07526        72.000
  22643588.020      212041.207 8   2410968.31527        80.000
  21475977.460      -98494.267 9     -3271.17529       124.000
 96  6 10 18 11 30.0000000  0  6G24G 2G 4G 5G 7G 9
  21358958.601     2655352.068 9  -1837147.83129       112.000
  23867151.275    -6639238.652 6   2821340.25125        36.000
  20759558.806     -137920.856 9    187729.02329       116.000
  22956885.139     8256971.278 8  -2287664.64426        72.000
  22651136.914      251681.208 8   2441856.65627        80.000
  21477347.871      -91279.644 9      2350.63329       120.000
 96  6 10 18 11 45.0000000  0  6G24G 2G 4G 5G 7G 9
  21354457.067     2631719.878 9  -1855562.58429       104.000
  23876168.373    -6591869.923 6   2858250.87325        36.000
  20761555.454     -127427.117 9    195905.90929       114.000
  22950584.431     8223862.698 8  -2313463.56226        74.000
  22658677.504      291318.422 8   2472742.72127        80.000
  21478749.221      -83938.615 9      8070.86929       128.000
 96  6 10 18 12  0.0000000  0  6G24G 2G 4G 5G 7G 9
  21349980.596     2608189.604 9  -1873897.83429       106.000
  23885193.385    -6544455.763 7   2895196.95425        42.000
  20763576.265     -116806.736 9    204181.55729       112.000
  22944292.237     8190760.309 8  -2339257.60326        72.000
  22666220.102      330952.243 8   2503626.23927        78.000
  21480166.700      -76472.868 9     13888.35229       126.000
 96  6 10 18 12 15.0000000  0  6G24G 2G 4G 5G 7G 9
  21345518.725     2584746.837 9  -1892164.92329       104.000
  23894211.442    -6497009.431 6   2932168.10125        32.000
  20765616.803     -106075.755 9    212543.35829       108.000
  22937986.642     8157649.516 8  -2365058.20826        72.000
  22673756.795      370571.972 8   2534498.74627        78.000
  21481610.860      -68898.274 9     19790.60429       132.000
 96  6 10 18 12 30.0000000  0  6G24G 2G 4G 5G 7G 9
  21341078.019     2561413.286 9  -1910346.90229        98.000
  23903262.656    -6449512.771 7   2969178.44725        42.000
  20767686.660      -95218.761 9    221003.35829       114.000
  22931691.630     8124548.699 8  -2390851.03126        68.000
  22681297.744      410197.841 8   2565376.01027        76.000
  21483076.306      -61197.311 9     25791.34629       128.000
 96  6 10 18 12 45.0000000  0  6G24G 2G 4G 5G 7G 9
  21336659.618     2538186.427 9  -1928445.73429       102.000
  23912302.657    -6401970.661 6   3006224.21925        38.000
  20769778.701      -84240.977 9    229557.46829       114.000
  22925392.301     8091455.607 8  -2416637.82126        70.000
  22688840.523      449825.217 8   2596254.49427        74.000
  21484565.795      -53372.297 9     31888.75729       132.000
 96  6 10 18 13  0.0000000  0  6G24G 2G 4G 5G 7G 9
  21332259.234     2515058.765 9  -1946467.28029       104.000
  23921366.013    -6354388.569 6   3043301.14025        38.000
  20771885.913      -73147.450 9    238201.76329       110.000
  22919092.942     8058366.081 8  -2442421.84426        72.000
  22696380.932      489447.608 8   2627129.07727        74.000
  21486075.669      -45427.808 9     38079.24729       130.000
 96  6 10 18 13 15.0000000  0  6G24G 2G 4G 5G 7G 9
  21327877.078     2492031.165 9  -1964410.85129       104.000
  23930414.379    -6306761.949 6   3080412.78625        30.000
  20774023.343      -61934.164 9    246939.40229       114.000
  22912801.647     8025286.376 8  -2468198.22826        74.000
  22703916.606      529070.510 8   2658004.08327        74.000
  21487610.247      -37358.329 9     44367.15829       130.000
 96  6 10 18 13 30.0000000  0  6G24G 2G 4G 5G 7G 9
  21323512.220     2469098.628 9  -1982280.36129       100.000
  23939484.929    -6259093.806 6   3117556.72925        34.000
  20776178.641      -50604.603 9    255767.63629       112.000
  22906500.939     7992214.710 8  -2493968.34826        64.000
  22711459.774      568694.886 8   2688880.19527        78.000
  21489167.789      -29169.929 9     50747.71629       126.000
 96  6 10 18 13 45.0000000  0  6G24G 2G 4G 5G 7G 9
  21319169.546     2446266.952 9  -2000071.25229        98.000
  23948569.001    -6211376.824 6   3154738.78425        34.000
  20778357.772      -39147.003 9    264695.64629       112.000
  22900212.523     7959157.548 7  -2519727.16926        60.000
  22719004.411      608329.291 8   2719764.14527        76.000
  21490749.973      -20855.648 9     57226.38029       128.000
 96  6 10 18 14  0.0000000  0  6G24G 2G 4G 5G 7G 9
  21314841.802     2423513.317 9  -2017801.34029       100.000
  23957664.164    -6163633.011 7   3191941.70825        44.000
  20780555.191      -27583.109 9    273706.47629       106.000
  22893921.618     7926089.590 7  -2545494.37126        60.000
  22726545.600      647950.603 8   2750637.89227        72.000
  21492349.906      -12435.391 9     63787.62129       128.000
 96  6 10 18 14 15.0000000  0  6G24G 2G 4G 5G 7G 9
  21310523.891     2400850.008 9  -2035461.06029        96.000
  23966755.011    -6115852.050 6   3229173.61125        36.000
  20782784.358      -15897.615 9    282812.07229       108.000
  22887628.704     7893022.341 8  -2571261.03326        66.000
  22734083.312      687571.314 8   2781511.16927        72.000
  21493974.961       -3895.754 9     70441.88129       130.000
 96  6 10 18 14 30.0000000  0  6G24G 2G 4G 5G 7G 9
  21306233.292     2378297.919 9  -2053034.12329        94.000
  23975859.408    -6068015.185 6   3266449.01025        36.000
  20785036.848       -4068.654 9    292029.42929       116.000
  22881341.937     7859977.626 8  -2597010.16326        68.000
  22741625.250      727209.797 8   2812398.30327        72.000
  21495626.937        4783.261 9     77204.73429       122.000
 96  6 10 18 14 45.0000000  0  6G24G 2G 4G 5G 7G 9
  21301967.185     2355854.859 9  -2070522.21329        90.000
  23984961.227    -6020125.523 6   3303765.59125        38.000
  20787314.642        7904.402 9    301359.06129       108.000
  22875056.458     7826953.677 8  -2622743.10626        68.000
  22749168.958      766860.136 8   2843294.64127        68.000
  21497307.813       13601.495 9     84076.06429       130.000
 96  6 10 18 15  0.0000000  0  6G24G 2G 4G 5G 7G 9
  21297715.648     2333528.044 9  -2087919.70229        94.000
  23994094.074    -5972176.581 6   3341128.40025        40.000
  20789620.495       20030.871 9    310808.27629       108.000
  22868775.206     7793955.694 8  -2648455.81926        70.000
  22756717.972      806526.445 8   2874203.44727        70.000
  21499012.853       22564.005 9     91059.85929       124.000
 96  6 10 18 15 15.0000000  0  6G24G 2G 4G 5G 7G 9
  21293487.285     2311306.979 9  -2105234.80229        98.000
  24003224.913    -5924180.421 6   3378528.00125        40.000
  20791954.260       32299.632 9    320368.34729       112.000
  22862503.158     7760969.810 8  -2674159.08326        72.000
  22764264.468      846196.384 8   2905115.07027        68.000
  21500744.185       31656.172 9     98144.65029       126.000
 96  6 10 18 15 30.0000000  0  6G24G 2G 4G 5G 7G 9
  21289278.949     2289194.122 9  -2122465.61229        96.000
  24012371.311    -5876137.297 7   3415964.15625        48.000
  20794316.384       44711.451 9    330039.88129       118.000
  22856226.554     7727996.573 8  -2699852.51126        74.000
  22771820.227      885872.117 8   2936031.20427        70.000
  21502497.161       40879.012 9    105331.26729       120.000
 96  6 10 18 15 45.0000000  0  6G24G 2G 4G 5G 7G 9
  21285091.028     2267192.046 9  -2139610.09229        94.000
  24021520.587    -5828048.387 7   3453436.02924        44.000
  20796702.672       57267.611 9    339823.90429       114.000
  22849951.418     7695033.698 8  -2725537.85226        72.000
  22779364.474      925551.277 8   2966950.03027        70.000
  21504275.230       50231.436 9    112618.86429       124.000
 96  6 10 18 16  0.0000000  0  6G24G 2G 4G 5G 7G 9
  21280926.341     2245312.780 9  -2156658.83429        90.000
  24030684.823    -5779904.696 7   3490950.62024        46.000
  20799122.597       69975.761 9    349726.37929       116.000
  22843683.777     7662087.573 8  -2751210.09326        70.000
  22786918.914      965239.749 8   2997876.12327        68.000
  21506087.056       59723.684 9    120015.43229       130.000
 96  6 10 18 16 15.0000000  0  6G24G 2G 4G 5G 7G 9
  21276786.417     2223561.546 9  -2173607.86429        88.000
  24039849.718    -5731702.011 7   3528511.07724        42.000
  20801569.593       82837.728 9    359748.67729       114.000
  22837420.063     7629164.541 8  -2776864.41026        72.000
  22794479.410     1004941.412 8   3028812.44627        70.000
  21507919.417       69360.261 9    127524.42929       134.000
 96  6 10 18 16 30.0000000  0  6G24G 2G 4G 5G 7G 9
  21272671.346     2201931.994 9  -2190462.05829        94.000
  24049034.520    -5683445.692 6   3566113.44624        38.000
  20804046.598       95845.072 9    369884.27329       118.000
  22831153.921     7596259.465 8  -2802504.72726        70.000
  22802026.865     1044651.035 8   3059754.99627        68.000
  21509780.589       79134.348 9    135140.60029       132.000
 96  6 10 18 16 45.0000000  0  6G24G 2G 4G 5G 7G 9
  21268577.410     2180420.235 9  -2207224.45829       100.000
  24058227.326    -5635137.160 6   3603756.38424        40.000
  20806548.186      108993.101 9    380129.49929       120.000
  22824898.092     7563366.681 8  -2828135.46226        66.000
  22809589.760     1084364.500 8   3090700.54127        70.000
  21511663.555       89043.410 9    142861.94329       128.000
 96  6 10 18 17  0.0000000  0  6G24G 2G 4G 5G 7G 9
  21264505.899     2159023.840 9  -2223896.97429       100.000
  24067424.719    -5586777.349 7   3641439.29824        42.000
  20809076.816      122278.428 9    390481.69729       122.000
  22818642.203     7530481.571 8  -2853760.18226        68.000
  22817152.354     1124082.012 8   3121649.24626        72.000
  21513574.073       99085.861 9    150687.22329       124.000
 96  6 10 18 17 15.0010000  0  6G24G 2G 4G 5G 7G 9
  21260458.911     2137735.686 9  -2240485.14929       110.000
  24076648.433    -5538369.177 6   3679159.92224        40.000
  20811629.609      135692.185 9    400933.99329       118.000
  22812382.116     7497596.753 8  -2879384.70326        68.000
  22824709.702     1163800.500 8   3152598.68826        68.000
  21515510.462      109255.264 9    158611.43029       124.000
 96  6 10 18 17 30.0010000  0  6G24G 2G 4G 5G 7G 9
  21256426.942     2116557.595 9  -2256987.54029       104.000
  24085864.683    -5489916.650 6   3716915.11024        38.000
  20814207.794      149235.221 9    411487.01829       116.000
  22806124.608     7464720.712 8  -2905002.36526        70.000
  22832262.194     1203516.263 8   3183546.03826        72.000
  21517466.878      119554.635 9    166636.91229       128.000
 96  6 10 18 17 45.0010000  0  6G24G 2G 4G 5G 7G 9
  21252415.749     2095488.194 9  -2273405.27829       104.000
  24095085.280    -5441415.422 6   3754708.19924        34.000
  20816810.412      162908.835 9    422141.75129       122.000
  22799871.867     7431852.120 8  -2930614.28926        70.000
  22839819.452     1243232.093 8   3214493.37526        68.000
  21519454.951      129988.214 9    174766.93329       132.000
 96  6 10 18 18  0.0010000  0  6G24G 2G 4G 5G 7G 9
  21248429.288     2074523.896 9  -2289741.10229       110.000
  24104327.581    -5392867.740 6   3792537.51425        32.000
  20819436.744      176709.346 9    432895.38729       126.000
  22793615.378     7398987.799 8  -2956222.83126        68.000
  22847373.712     1282942.206 8   3245436.32726        68.000
  21521463.741      140551.955 9    182998.40929       126.000
 96  6 10 18 18 15.0010000  0  6G24G 2G 4G 5G 7G 9
  21244457.488     2053651.140 9  -2306005.56729       116.000
  24113583.553    -5344284.506 6   3830394.55925        40.000
  20822080.314      190622.273 9    443736.63629       118.000
  22787358.470     7366118.304 8  -2981835.42026        66.000
  22854923.686     1322634.822 8   3276365.62026        64.000
  21523498.522      151234.277 9    191322.30929       126.000
 96  6 10 18 18 30.0010000  0  6G24G 2G 4G 5G 7G 9
  21240504.725     2032876.766 9  -2322193.38829       122.000
  24122829.633    -5295655.455 6   3868287.28625        34.000
  20824753.143      204658.412 9    454673.88629       118.000
  22781108.127     7333252.736 8  -3007444.93926        70.000
  22862479.475     1362318.108 8   3307287.65226        68.000
  21525555.098      162043.665 9    199745.20729       126.000
 96  6 10 18 18 45.0010000  0  6G24G 2G 4G 5G 7G 9
  21236567.730     2012198.760 9  -2338306.14329       122.000
  24132093.519    -5246983.425 6   3906213.48525        36.000
  20827445.040      218815.255 9    465705.18629       120.000
  22774855.476     7300386.683 8  -3033054.85626        68.000
  22870027.230     1401986.736 8   3338198.23026        64.000
  21527637.966      172974.620 9    208262.80529       122.000
 96  6 10 18 19  0.0010000  0  6G24G 2G 4G 5G 7G 9
  21232652.830     1991620.166 9  -2354341.38429       122.000
  24141365.141    -5198266.137 6   3944175.01625        34.000
  20830161.489      233095.731 9    476832.83829       120.000
  22768602.255     7267522.433 8  -3058663.31926        66.000
  22877572.886     1441641.479 7   3369098.03226        60.000
  21529739.691      184027.143 9    216875.18529       128.000
 96  6 10 18 19 15.0010000  0  6G24G 2G 4G 5G 7G 9
  21228752.261     1971136.081 9  -2370302.98329       120.000
  24150636.822    -5149509.238 6   3982167.38025        32.000
  20832906.389      247495.214 9    488053.23829       126.000
  22762347.864     7234658.284 8  -3084271.70926        64.000
  22885115.154     1481274.854 7   3399981.20226        62.000
  21531864.141      195190.926 9    225574.26329       122.000
 96  6 10 18 19 30.0010000  0  6G24G 2G 4G 5G 7G 9
  21224876.184     1950748.430 9  -2386189.50029       122.000
  24159914.050    -5100707.624 6   4020194.55025        34.000
  20835669.576      262018.582 9    499370.10729       130.000
  22756092.605     7201800.078 7  -3109875.54626        62.000
  22892654.695     1520889.938 7   3430850.03727        58.000
  21534006.428      206467.962 9    234361.51229       118.000
 96  6 10 18 19 45.0010000  0  6G24G 2G 4G 5G 7G 9
  21221010.450     1930452.952 9  -2402004.14429       118.000
  24169224.614    -5051866.679 6   4058252.44625        26.000
  20838454.108      276660.857 9    510779.67429       124.000
  22749835.217     7168942.803 7  -3135478.60726        58.000
  22900188.719     1560483.777 7   3461702.37727        62.000
  21536175.486      217853.790 9    243233.58529       126.000
 96  6 10 18 20  0.0010000  0  6G24G 2G 4G 5G 7G 9
  21217169.689     1910254.582 9  -2417743.12829       116.000
  24178525.765    -5002985.067 6   4096341.95025        32.000
  20841266.252      291419.221 9    522279.70329       126.000
  22743584.214     7136086.940 7  -3161080.55526        58.000
  22907721.394     1600061.030 8   3492541.80027        64.000
  21538360.164      229347.175 9    252189.45129       128.000
 96  6 10 18 20 15.0010000  0  6G24G 2G 4G 5G 7G 9
  21213343.918     1890152.762 9  -2433406.87129       114.000
  24187825.657    -4954063.315 6   4134462.79325        30.000
  20844094.344      306292.140 9    533868.99229       126.000
  22737343.135     7103231.855 7  -3186681.88326        58.000
  22915246.005     1639622.140 7   3523368.64327        58.000
  21540569.634      240947.362 9    261228.54729       134.000
 96  6 10 18 20 30.0010000  0  6G24G 2G 4G 5G 7G 9
  21209538.652     1870156.710 9  -2448988.20429       118.000
  24197149.862    -4905092.786 6   4172621.59425        26.000
  20846945.730      321287.787 9    545553.91629       122.000
  22731085.567     7070387.082 7  -3212275.19826        60.000
  22922781.199     1679179.353 7   3554192.44227        62.000
  21542803.777      252665.770 9    270359.77029       138.000
 96  6 10 18 20 45.0010000  0  6G24G 2G 4G 5G 7G 9
  21205754.222     1850256.716 9  -2464494.69429       120.000
  24206478.893    -4856087.024 6   4210807.83825        36.000
  20849818.341      336396.025 9    557326.56329       118.000
  22724833.545     7037543.160 7  -3237867.86326        62.000
  22930306.229     1718724.462 7   3585006.78827        62.000
  21545051.411      264491.275 9    279574.44429       130.000
 96  6 10 18 21  0.0010000  0  6G24G 2G 4G 5G 7G 9
  21201980.584     1830459.303 9  -2479921.24729       116.000
  24215812.092    -4807041.614 6   4249025.03625        32.000
  20852718.024      351620.095 9    569189.46629       124.000
  22718585.481     7004708.190 7  -3263453.55826        62.000
  22937831.260     1758264.443 7   3615817.14927        60.000
  21547325.097      276430.842 9    288877.99029       128.000
 96  6 10 18 21 15.0010000  0  6G24G 2G 4G 5G 7G 9
  21198235.907     1810759.447 9  -2495271.80129       120.000
  24225152.186    -4757962.694 6   4287268.24825        38.000
  20855636.803      366955.013 9    581138.73429       122.000
  22712340.324     6971878.493 8  -3289035.14226        64.000
  22945347.686     1797797.434 7   3646622.06027        58.000
  21549616.591      288483.655 9    298269.76029       126.000
 96  6 10 18 21 30.0010000  0  6G24G 2G 4G 5G 7G 9
  21194507.568     1791163.628 9  -2510541.23929       112.000
  24234496.117    -4708846.301 6   4325540.73725        40.000
  20858574.799      382404.762 9    593177.52229       118.000
  22706095.797     6939058.565 8  -3314609.05126        64.000
  22952874.336     1837329.089 7   3677425.97827        62.000
  21551934.796      300658.781 9    307756.90129       134.000
 96  6 10 18 21 45.0010000  0  5G24G 4G 5G 7G 9
  21190791.550     1771659.813 9  -2525739.03429       108.000
  20861540.376      397954.160 9    605293.90129       126.000
  22699849.651     6906232.770 8  -3340187.59326        64.000
  22960397.987     1876847.242 8   3708219.32827        64.000
  21554270.479      312948.150 9    317333.00429       130.000
 96  6 10 18 22  0.0010000  0  5G24G 4G 5G 7G 9
  21187104.223     1752257.891 9  -2540857.41929       110.000
  20864517.435      413610.150 9    617493.36529       122.000
  22693601.467     6873409.826 8  -3365763.91726        66.000
  22967912.795     1916360.177 8   3739008.60927        64.000
  21556632.904      325360.329 9    327004.79629       128.000
 96  6 10 18 22 15.0010000  0  5G24G 4G 5G 7G 9
  21183430.716     1732955.768 9  -2555898.02729       114.000
  20867517.248      429377.855 9    629779.88529       120.000
  22687356.280     6840589.352 7  -3391338.30426        60.000
  22975432.399     1955863.546 8   3769790.44427        64.000
  21559015.354      337895.063 9    336772.12129       126.000
 96  6 10 18 22 30.0010000  0  5G24G 4G 5G 7G 9
  21179773.188     1713747.331 9  -2570865.62829       114.000
  20870540.296      445257.054 9    642153.28129       124.000
  22681105.098     6807768.048 7  -3416913.32526        60.000
  22982946.097     1995350.317 8   3800559.34127        64.000
  21561429.013      350548.958 9    346632.28329       128.000
 96  6 10 18 22 45.0010000  0  5G24G 4G 5G 7G 9
  21176134.847     1694631.114 9  -2585761.37729       110.000
  20873579.172      461248.798 9    654614.39029       122.000
  22674866.866     6774946.589 7  -3442488.48026        60.000
  22990447.504     2034818.567 7   3831313.79627        60.000
  21563859.251      363320.242 9    356583.93129       130.000
 96  6 10 18 23  0.0010000  0  5G24G 4G 5G 7G 9
  21172517.341     1675609.229 9  -2600583.59229       114.000
  20876644.640      477356.743 9    667166.04229       118.000
  22668617.363     6742124.359 7  -3468064.23126        60.000
  22997961.832     2074267.481 8   3862053.22127        64.000
  21566308.525      376207.354 9    366625.85029       128.000
 96  6 10 18 23 15.0010000  0  5G24G 4G 5G 7G 9
  21168913.206     1656687.594 9  -2615327.72629       108.000
  20879734.960      493586.608 9    679812.68429       124.000
  22662372.776     6709305.734 7  -3493637.15626        60.000
  23005463.029     2113699.592 8   3892779.51827        64.000
  21568784.391      389216.053 9    376762.48329       122.000
 96  6 10 18 23 30.0010000  0  5G24G 4G 5G 7G 9
  21165332.995     1637858.238 9  -2629999.93329       108.000
  20882841.829      509932.997 9    692550.12029       110.000
  22656122.793     6676480.973 7  -3519214.87526        60.000
  23012959.370     2153104.447 7   3923484.60927        62.000
  21571282.802      402335.107 9    386985.10329       132.000
 96  6 10 18 23 45.0010000  0  5G24G 4G 5G 7G 9
  21161768.403     1619124.596 9  -2644597.57029       112.000
  20885976.130      526400.444 9    705381.89029       110.000
  22649882.493     6643654.955 7  -3544793.57526        62.000
  23020455.860     2192483.620 8   3954169.66327        64.000
  21573798.630      415566.282 9    397295.10429       128.000
 96  6 10 18 24  0.0010000  0  5G24G 4G 5G 7G 9
  21158222.068     1600490.026 9  -2659118.01229       110.000
  20889134.443      542995.732 9    718313.28329       108.000
  22643635.867     6610835.058 8  -3570367.51326        64.000
  23027948.603     2231841.595 8   3984838.18827        64.000
  21576338.682      428911.062 9    407693.62329       128.000
 96  6 10 18 24 15.0010000  0  5G24G 4G 5G 7G 9
  21154690.542     1581952.122 9  -2673563.12229       108.000
  20892318.539      559720.060 9    731345.23029       104.000
  22637392.419     6578020.988 8  -3595936.90526        68.000
  23035434.810     2271175.733 8   4015488.15227        64.000
  21578898.789      442365.303 9    418177.44329       128.000
 96  6 10 18 24 30.0010000  0  5G24G 4G 5G 7G 9
  21151183.241     1563506.758 9  -2687936.12929       106.000
  20895529.256      576566.803 9    744472.56029       112.000
  22631150.171     6545208.038 8  -3621505.43726        70.000
  23042905.908     2310482.527 8   4046116.79427        66.000
  21581478.683      455925.553 9    428743.87029       132.000
 96  6 10 18 24 45.0010000  0  5G24G 4G 5G 7G 9
  21147692.097     1545166.576 9  -2702227.16129       112.000
  20898757.062      593540.333 9    757698.68029       110.000
  22624903.725     6512408.029 8  -3647063.88626        70.000
  23050393.435     2349776.600 8   4076735.53426        68.000
  21584082.291      469600.768 9    439399.87029       134.000
 96  6 10 18 25  0.0010000  0  5G24G 4G 5G 7G 9
  21144222.359     1526925.461 9  -2716441.00029       118.000
  20902004.863      610631.138 9    771016.19729       104.000
  22618664.384     6479612.420 8  -3672618.86426        70.000
  23057863.333     2389051.296 8   4107339.18526        68.000
  21586703.436      483380.562 9    450137.36229       134.000
 96  6 10 18 25 15.0010000  0  5G24G 4G 5G 7G 9
  21140769.830     1508789.865 9  -2730572.65129       108.000
  20905283.453      627843.366 9    784428.32029       108.000
  22612426.543     6446826.573 8  -3698166.23926        70.000
  23065333.202     2428312.445 8   4137932.27826        72.000
  21589348.685      497270.523 9    460960.69229       130.000
 96  6 10 18 25 30.0010000  0  5G24G 4G 5G 7G 9
  21137339.844     1490760.030 9  -2744621.86529       112.000
  20908581.500      645176.431 9    797934.60229       110.000
  22606194.157     6414051.965 8  -3723704.90426        66.000
  23072806.878     2467561.166 8   4168515.67926        74.000
  21592011.472      511272.180 9    471871.06729       126.000
 96  6 10 18 25 45.0010000  0  5G24G 4G 5G 7G 9
  21133926.587     1472834.073 9  -2758590.14629       112.000
  20911898.314      662626.734 9    811532.24429       106.000
  22599954.097     6381287.956 8  -3749235.29826        68.000
  23080272.040     2506798.077 8   4199089.87826        72.000
  21594698.811      525382.904 9    482866.43229       126.000
 96  6 10 18 26  0.0010000  0  5G24G 4G 5G 7G 9
  21130534.166     1455009.243 9  -2772479.61429       114.000
  20915246.336      680190.303 9    825218.13529       106.000
  22593719.314     6348533.306 8  -3774758.39326        64.000
  23087734.444     2546024.091 8   4229655.59926        72.000
  21597404.378      539600.881 9    493945.36829       124.000
 96  6 10 18 26 15.0010000  0  5G24G 4G 5G 7G 9
  21127165.488     1437282.554 9  -2786292.61929       120.000
  20918606.980      697862.261 9    838988.50029       104.000
  22587487.648     6315781.809 8  -3800279.01126        64.000
  23095196.758     2585236.242 8   4260210.49126        72.000
  21600123.136      553922.612 9    505105.16529       114.000
 96  6 10 18 26 30.0010000  0  5G24G 4G 5G 7G 9
  21123813.238     1419663.303 9  -2800021.89529       120.000
  20921989.328      715646.716 9    852846.52429       106.000
  22581257.331     6283037.659 8  -3825793.91126        64.000
  23102650.438     2624443.442 8   4290761.54726        66.000
  21602873.402      568357.386 9    516353.02529       120.000
 96  6 10 18 26 45.0010000  0  5G24G 4G 5G 7G 9
  21120477.448     1402145.175 9  -2813672.38629       116.000
  20925396.859      733535.588 9    866785.89529       114.000
  22575024.466     6250293.883 8  -3851308.53526        68.000
  23110106.966     2663640.012 7   4321304.33326        60.000
  21605641.865      582900.150 9    527685.04029       118.000
 96  6 10 18 27  0.0010000  0  5G24G 4G 5G 7G 9
  21117161.713     1384727.151 9  -2827244.85029       114.000
  20928817.971      751531.295 9    880808.53129       106.000
  22568798.346     6217550.796 8  -3876822.60626        70.000
  23117572.937     2702823.188 8   4351836.67826        64.000
  21608432.064      597551.444 9    539101.64729       124.000
 96  6 10 18 27 15.0010000  0  5G24G 4G 5G 7G 9
  21113865.315     1367401.414 9  -2840745.43929       112.000
  20932265.344      769628.235 9    894910.04029       110.000
  22562564.462     6184800.912 8  -3902341.99726        72.000
  23125024.878     2741983.068 7   4382350.84926        62.000
  21611238.541      612305.921 9    550598.62029       124.000
 96  6 10 18 27 30.0010000  0  5G24G 4G 5G 7G 9
  21110582.528     1350163.112 9  -2854177.86629       104.000
  20935727.557      787819.994 9    909085.44729       116.000
  22556330.577     6152040.476 8  -3927869.60026        72.000
  23132469.774     2781113.952 7   4412842.41726        60.000
  21614065.614      627161.559 9    562174.43929       124.000
 96  6 10 18 27 45.0010000  0  5G24G 4G 5G 7G 9
  21107323.124     1333019.812 9  -2867536.29529       110.000
  20939206.589      806115.184 9    923341.42629       114.000
  22550097.053     6119280.710 8  -3953396.69926        76.000
  23139914.880     2820224.445 8   4443318.13526        64.000
  21616911.633      642127.459 9    573836.16629       116.000
 96  6 10 18 28  0.0010000  0  5G24G 4G 5G 7G 9
  21104081.169     1315972.772 9  -2880819.70329       116.000
  20942703.938      824513.010 9    937677.39329       108.000
  22543862.389     6086521.483 8  -3978923.35826        76.000
  23147352.911     2859313.481 7   4473777.08626        62.000
  21619781.187      657204.438 9    585584.45229       118.000
 96  6 10 18 28 15.0010000  0  5G24G 4G 5G 7G 9
  21100855.881     1299020.202 9  -2894029.49129       116.000
  20946225.810      843011.899 9    952092.11929       110.000
  22537626.346     6053760.593 8  -4004451.29526        78.000
  23154785.126     2898376.261 7   4504215.61526        58.000
  21622672.715      672390.218 9    597417.51629       118.000
 96  6 10 18 28 30.0010000  0  5G24G 4G 5G 7G 9
  21097648.852     1282162.340 9  -2907165.48729       116.000
  20949766.478      861611.344 9    966585.19629       114.000
  22531397.558     6020996.719 8  -4029981.57326        78.000
  23162211.465     2937409.042 7   4534630.73926        56.000
  21625582.141      687683.169 9    609334.07829       110.000
 96  6 10 18 28 45.0010000  0  5G24G 4G 5G 7G 9
  21094457.591     1265408.957 9  -2920220.03729       112.000
  20953327.953      880322.585 9    981165.38329       118.000
  22525160.136     5988244.639 8  -4055502.66026        74.000
  23169635.915     2976423.417 7   4565031.55526        56.000
  21628511.713      703092.588 9    621341.41529       106.000
 96  6 10 18 29  0.0010000  0  5G24G 4G 5G 7G 9
  21091289.924     1248755.369 9  -2933196.86429       112.000
  20956909.573      899141.259 9    995829.27629       116.000
  22518931.318     5955501.702 8  -4081016.62226        74.000
  23177058.356     3015414.294 7   4595414.02026        58.000
  21631465.838      718610.756 9    633433.48729       106.000
 96  6 10 18 29 15.0010000  0  5G24G 4G 5G 7G 9
  21088134.458     1232196.724 9  -2946099.70029       106.000
  20960510.411      918060.391 9   1010571.47229       120.000
  22512700.732     5922761.020 8  -4106528.83826        72.000
  23184467.367     3054375.555 7   4625773.45626        60.000
  21634436.271      734228.979 9    645603.52329       112.000
 96  6 10 18 29 30.0010000  0  5G24G 4G 5G 7G 9
  21085004.955     1215741.385 9  -2958922.05429       102.000
  20964131.214      937087.193 9   1025397.53129       122.000
  22506466.667     5890029.478 8  -4132033.92826        66.000
  23191874.879     3093317.543 7   4656117.85326        58.000
  21637431.738      749954.580 9    657857.20929       120.000
 96  6 10 18 29 45.0010000  0  5G24G 4G 5G 7G 9
  21081895.687     1199386.006 9  -2971666.49829       104.000
  20967770.455      956221.100 9   1040307.07329       122.000
  22500244.505     5857305.980 8  -4157532.73726        68.000
  23199280.832     3132239.490 7   4686446.61026        60.000
  21640444.682      765785.987 9    670193.35029       120.000
 96  6 10 18 30  0.0010000  0  5G24G 4G 5G 7G 9
  21078802.129     1183136.213 9  -2984328.66429       106.000
  20971430.831      975469.428 9   1055305.77329       120.000
  22494021.233     5824592.402 8  -4183023.84026        68.000
  23206688.224     3171146.260 7   4716763.56526        60.000
  21643475.734      781728.190 9    682615.84729       116.000
 96  6 10 18 30 15.0010000  0  5G24G 4G 5G 7G 9
  21075730.276     1166991.060 9  -2996909.28829       102.000
  20975115.640      994830.858 9   1070392.59429       122.000
  22487796.133     5791885.919 8  -4208509.38626        66.000
  23214086.113     3210039.247 7   4747069.79226        58.000
  21646536.015      797780.688 9    695124.28129       124.000
 96  6 10 18 30 30.0010000  0  5G24G 4G 5G 7G 9
  21072677.699     1150952.351 9  -3009406.98229       100.000
  20978824.132     1014306.941 9   1085568.76329       118.000
  22481573.670     5759189.455 8  -4233987.16126        70.000
  23221488.558     3248922.949 7   4777368.77426        60.000
  21649608.708      813947.480 9    707721.76529       122.000
 96  6 10 18 30 45.0010000  0  5G24G 4G 5G 7G 9
  21069643.289     1135007.394 9  -3021831.63429       102.000
  20982549.233     1033884.171 9   1100823.72729       120.000
  22475347.731     5726492.384 8  -4259465.40326        70.000
  23228888.095     3287789.372 8   4807654.28026        64.000
  21652704.724      830219.520 9    720401.25529       124.000
 96  6 10 18 31  0.0010000  0  5G24G 4G 5G 7G 9
  21066627.647     1119159.532 9  -3034180.57829       102.000
  20986295.020     1053566.422 9   1116160.57529       120.000
  22469129.435     5693800.129 8  -4284939.84226        74.000
  23236279.299     3326644.714 7   4837931.19226        60.000
  21655820.467      846602.427 9    733167.19429       118.000
 96  6 10 18 31 15.0010000  0  5G24G 4G 5G 7G 9
  21063629.243     1103413.142 9  -3046450.50029       102.000
  20990060.833     1073355.800 9   1131580.87029       122.000
  22462913.269     5661113.757 8  -4310409.74126        72.000
  23243669.393     3365489.085 7   4868199.51026        60.000
  21658964.721      863101.563 9    746023.65229       120.000
 96  6 10 18 31 30.0010000  0  5G24G 4G 5G 7G 9
  21060653.803     1087759.230 9  -3058648.34929       110.000
  20993843.165     1093245.532 9   1147079.34429       118.000
  22456690.627     5628427.336 8  -4335879.66726        68.000
  23251060.206     3404313.629 7   4898452.39326        60.000
  21662124.024      879711.582 9    758966.51729       118.000
 96  6 10 18 31 45.0010000  0  5G24G 4G 5G 7G 9
  21057687.626     1072196.803 9  -3070774.90129       108.000
  20997647.591     1113235.784 9   1162656.16829       120.000
  22450466.485     5595741.104 8  -4361349.43626        64.000
  23258443.105     3443114.707 7   4928686.97326        62.000
  21665307.819      896432.400 9    771995.72029       120.000
 96  6 10 18 32  0.0010000  0  5G24G 4G 5G 7G 9
  21054746.183     1056735.332 9  -3082822.77929       108.000
  21001472.883     1133333.783 9   1178316.95129       122.000
  22444250.289     5563063.041 8  -4386812.85126        64.000
  23265824.295     3481900.604 8   4958909.75826        64.000
  21668511.042      913270.161 9    785116.06429       114.000
 96  6 10 18 32 15.0010000  0  5G24G 4G 5G 7G 9
  21051820.238     1041366.493 9  -3094798.50729       108.000
  21005315.683     1153526.492 9   1194051.51429       122.000
  22438032.383     5530382.053 8  -4412278.54726        66.000
  23273199.579     3520660.232 7   4989112.04226        60.000
  21671733.181      930210.748 9    798316.49728       112.000
 96  6 10 18 32 30.0010000  0  5G24G 4G 5G 7G 9
  21048916.628     1026094.313 9  -3106698.91229       110.000
  21009178.239     1173815.793 9   1209861.36229       122.000
  22431815.827     5497706.753 8  -4437739.80126        66.000
  23280573.245     3559397.788 8   5019297.14526        64.000
  21674975.017      947255.847 9    811598.35928       114.000
 96  6 10 18 32 45.0010000  0  5G24G 4G 5G 7G 9
  21046030.376     1010923.166 9  -3118520.56429       112.000
  21013059.022     1194208.218 9   1225751.56729       122.000
  22425596.722     5465041.016 8  -4463193.59426        66.000
  23287939.115     3598112.658 8   5049464.58126        64.000
  21678241.166      964408.838 9    824964.34129       114.000
 96  6 10 18 33  0.0010000  0  5G24G 4G 5G 7G 9
  21043158.574      995844.233 9  -3130270.37929       104.000
  21016961.630     1214700.612 9   1241719.66829       128.000
  22419381.665     5432377.038 8  -4488646.03726        64.000
  23295300.309     3636795.754 7   5079607.23526        60.000
  21681522.514      981659.128 9    838406.11129       112.000
 96  6 10 18 33 15.0010000  0  5G24G 4G 5G 7G 9
  21040310.816      980867.232 9  -3141940.76629       106.000
  21020877.040     1235303.615 9   1257773.95129       124.000
  22413163.790     5399722.514 8  -4514091.10026        66.000
  23302662.672     3675452.492 7   5109729.37126        58.000
  21684827.007      999014.753 9    851929.97229       114.000
 96  6 10 18 33 30.0010000  0  5G24G 4G 5G 7G 9
  21037480.955      965988.654 9  -3153534.46729       108.000
  21024818.231     1256014.986 9   1273912.67429       122.000
  22406954.428     5367075.613 8  -4539530.25926        68.000
  23310011.815     3714080.584 7   5139829.13026        58.000
  21688150.626     1016471.658 9    865532.73429       114.000
 96  6 10 18 33 45.0010000  0  5G24G 4G 5G 7G 9
  21034668.422      951213.725 9  -3165047.41229       110.000
  21028781.997     1276842.848 9   1290142.14829       124.000
  22400747.225     5334444.835 8  -4564956.81126        72.000
  23317362.186     3752688.613 7   5169913.27526        56.000
  21691491.783     1034036.377 9    879219.50529       116.000
 96  6 10 18 34  0.0010000  0  5G24G 4G 5G 7G 9
  21031876.965      936539.089 9  -3176482.17529       112.000
  21032766.539     1297783.195 9   1306459.32729       126.000
  22394540.292     5301826.101 8  -4590373.99726        70.000
  23324697.658     3791276.589 7   5199981.81826        46.000
  21694855.664     1051706.593 9    892988.52229       116.000
 96  6 10 18 34 15.0010000  0  5G24G 4G 5G 7G 9
  21029101.216      921967.558 9  -3187836.61729       102.000
  21036774.944     1318838.721 9   1322866.20929       126.000
  22388335.248     5269225.061 8  -4615777.39326        68.000
  23332035.198     3829849.966 7   5230038.99426        44.000
  21698239.631     1069486.440 9    906842.93129       124.000
 96  6 10 18 34 30.0010000  0  5G24G 4G 5G 7G 9
  21026345.704      907491.819 9  -3199116.41129       100.000
  21040800.887     1340004.164 9   1339358.76029       124.000
  22382131.613     5236639.198 8  -4641168.96526        68.000
  23339374.447     3868402.341 7   5260079.79326        48.000
  21701639.937     1087374.320 9    920781.53229       120.000
 96  6 10 18 34 45.0010000  0  5G24G 4G 5G 7G 9
  21023611.327      893111.150 9  -3210322.09529       104.000
  21044853.871     1361280.869 9   1355938.04629       124.000
  22375935.832     5204070.310 8  -4666547.29426        66.000
  23346702.604     3906932.578 7   5290103.37726        46.000
  21705066.085     1105372.165 9    934805.84229       122.000
 96  6 10 18 35  0.0010000  0  5G24G 4G 5G 7G 9
  21020893.708      878827.474 9  -3221452.25929       106.000
  21048922.864     1382670.434 9   1372605.22829       120.000
  22369734.295     5171518.741 7  -4691912.15226        62.000
  23354034.628     3945443.727 7   5320112.03026        46.000
  21708510.821     1123480.694 9    948916.35229       120.000
 96  6 10 18 35 15.0010000  0  5G24G 4G 5G 7G 9
  21018196.625      864644.142 9  -3232504.18729       106.000
  21053014.761     1404168.560 9   1389357.00629       120.000
  22363552.485     5138988.705 8  -4717260.20826        66.000
  23361360.207     3983940.755 7   5350109.67126        50.000
  21711979.240     1141701.142 9    963114.11129       124.000
 96  6 10 18 35 30.0010000  0  5G24G 4G 5G 7G 9
  21015517.890      850561.843 9  -3243477.42129       110.000
  21057120.839     1425770.212 9   1406189.42829       116.000
  22357368.606     5106480.618 8  -4742591.19426        68.000
  23368688.843     4022424.677 7   5380097.09126        54.000
  21715466.875     1160034.825 9    977400.06929       122.000
 96  6 10 18 35 45.0010000  0  5G24G 4G 5G 7G 9
  21012855.763      836579.208 9  -3254372.97629       106.000
  21061248.981     1447472.429 9   1423100.24929       116.000
  22351182.988     5073992.398 8  -4767906.69626        70.000
  23376007.797     4060893.112 7   5410072.48426        54.000
  21718978.344     1178480.672 9    991773.44629       124.000
 96  6 10 18 36  0.0010000  0  5G24G 4G 5G 7G 9
  21010214.411      822697.871 9  -3265189.59529       102.000
  21065399.787     1469273.292 9   1440087.95529       120.000
  22345002.137     5041520.258 8  -4793209.62826        70.000
  23383327.139     4099342.191 7   5440032.79626        54.000
  21722509.150     1197037.990 9   1006233.71429       120.000
 96  6 10 18 36 15.0010000  0  5G24G 4G 5G 7G 9
  21007589.189      808920.523 9  -3275925.20029        98.000
  21069565.853     1491171.383 9   1457151.38229       122.000
  22338830.699     5009063.288 8  -4818500.75526        74.000
  23390637.908     4137771.792 7   5469977.92826        48.000
  21726062.740     1215705.776 9   1020780.03229       124.000
 96  6 10 18 36 30.0010000  0  5G24G 4G 5G 7G 9
  21004991.427      795246.959 9  -3286579.94129       100.000
  21073752.305     1513166.076 9   1474290.07929       120.000
  22332656.444     4976619.953 8  -4843781.27326        72.000
  23397944.450     4176177.957 7   5499904.76426        48.000
  21729633.058     1234481.079 9   1035410.12229       126.000
 96  6 10 18 36 45.0010000  0  5G24G 4G 5G 7G 9
  21002412.223      781683.464 9  -3297148.90029       106.000
  21077957.793     1535263.663 9   1491508.96529       118.000
  22326481.528     4944194.369 8  -4869047.97726        72.000
  23405249.583     4214564.595 7   5529816.40726        44.000
  21733226.191     1253366.783 9   1050126.22529       126.000
 96  6 10 18 37  0.0010000  0  5G24G 4G 5G 7G 9
  20999845.909      768230.615 9  -3307631.61029       104.000
  21082184.208     1557463.302 9   1508807.40329       118.000
  22320315.637     4911783.426 8  -4894303.22726        74.000
  23412547.940     4252932.943 7   5559713.83426        44.000
  21736839.619     1272361.073 9   1064926.98929       120.000
 96  6 10 18 37 15.0010000  0  5G24G 4G 5G 7G 9
  20997309.095      754885.893 9  -3318030.08229       102.000
  21086426.091     1579762.077 9   1526183.09229       116.000
  22314154.242     4879385.929 8  -4919547.97726        76.000
  23419843.630     4291284.230 7   5589597.95126        46.000
  21740474.003     1291466.274 9   1079814.17829       120.000
 96  6 10 18 37 30.0010000  0  5G24G 4G 5G 7G 9
  20994788.530      741654.646 9  -3328340.14729       102.000
  21090691.268     1602167.196 9   1543641.61329       122.000
  22307992.338     4847005.371 8  -4944779.59926        76.000
  23427143.486     4329620.923 7   5619470.67126        44.000
  21744134.109     1310689.256 9   1094793.09229       120.000
 96  6 10 18 37 45.0010000  0  5G24G 4G 5G 7G 9
  20992291.499      728528.856 9  -3338567.98629        96.000
  21094974.913     1624674.656 9   1561179.92429       124.000
  22301826.507     4814631.569 8  -4970005.89526        70.000
  23434421.518     4367931.190 7   5649322.85626        42.000
  21747814.241     1330018.031 9   1109854.49829       124.000
 96  6 10 18 38  0.0010000  0  5G24G 4G 5G 7G 9
  20989814.284      715516.362 9  -3348707.63929        94.000
  21099278.433     1647292.597 9   1578804.24029       126.000
  22295672.127     4782272.060 8  -4995221.12926        68.000
  23441722.513     4406223.771 7   5679161.16226        44.000
  21751510.653     1349456.651 9   1125001.40929       122.000
 96  6 10 18 38 15.0010000  0  5G24G 4G 5G 7G 9
  20987363.031      702611.023 9  -3358763.72029       100.000
  21103599.672     1670013.682 9   1596509.02229       120.000
  22289519.157     4749922.536 8  -5020428.49626        70.000
  23448992.420     4444496.301 6   5708983.94526        40.000
  21755230.267     1368996.741 9   1140227.47629       122.000
 96  6 10 18 38 30.0010000  0  5G24G 4G 5G 7G 9
  20984925.688      689812.901 9  -3368736.29229       100.000
  21107941.866     1692842.221 9   1614297.47229       120.000
  22283363.608     4717586.480 8  -5045625.44026        72.000
  23456276.058     4482753.582 7   5738794.77726        42.000
  21758967.390     1388638.558 9   1155532.76929       122.000
 96  6 10 18 38 45.0010000  0  5G24G 4G 5G 7G 9
  20982509.061      677117.858 9  -3378628.53929        98.000
  21112308.463     1715775.931 9   1632167.90829       122.000
  22277209.978     4685263.241 8  -5070812.37826        70.000
  23463554.929     4520992.941 7   5768591.67126        46.000
  21762727.417     1408379.933 9   1170915.65729       122.000
 96  6 10 18 39  0.0010000  0  5G24G 4G 5G 7G 9
  20980114.829      664527.663 9  -3388439.06129       100.000
  21116693.018     1738815.394 9   1650120.73229       124.000
  22271060.606     4652955.582 8  -5095987.17026        68.000
  23470838.866     4559219.261 7   5798378.40326        52.000
  21766502.194     1428223.447 9   1186378.13129       120.000
 96  6 10 18 39 15.0010000  0  5G24G 4G 5G 7G 9
  20977733.337      652028.837 9  -3398178.39329       104.000
  21121094.720     1761947.945 9   1668146.08729       124.000
  22264917.678     4620651.536 8  -5121159.13126        74.000
  23478097.891     4597421.500 7   5828146.36826        54.000
  21770297.806     1448158.891 9   1201912.21429       120.000
 96  6 10 18 39 30.0010000  0  5G24G 4G 5G 7G 9
  20975375.650      639633.490 9  -3407837.08929       102.000
  21125515.610     1785186.696 9   1686254.22229       124.000
  22258771.933     4588362.442 8  -5146319.42426        76.000
  23485371.606     4635607.319 7   5857901.56126        54.000
  21774110.057     1468193.041 9   1217523.24729       120.000
 96  6 10 18 39 45.0010000  0  5G24G 4G 5G 7G 9
  20973038.288      627339.016 9  -3417417.22129        96.000
  21129956.765     1808529.101 9   1704443.09129       122.000
  22252628.526     4556085.198 8  -5171470.52827        80.000
  23492631.470     4673773.468 7   5887641.40626        52.000
  21777937.957     1488318.343 9   1233205.29029       120.000
 96  6 10 18 40  0.0010000  0  5G24G 4G 5G 7G 9
  20970718.074      615152.171 9  -3426913.44129        96.000
  21134421.754     1831980.944 9   1722717.27329       122.000
  22246497.920     4523829.820 9  -5196604.55026        84.000
  23499891.783     4711929.578 7   5917373.42926        54.000
  21781786.933     1508544.931 9   1248966.27329       116.000
 96  6 10 18 40 15.0010000  0  5G24G 4G 5G 7G 9
  20968418.576      603067.974 9  -3436329.70129       102.000
  21138903.292     1855536.797 9   1741072.47529       126.000
  22240361.468     4491592.917 8  -5221724.22326        82.000
  23507157.194     4750072.137 7   5947094.85326        56.000
  21785655.155     1528874.662 9   1264807.59029       116.000
 96  6 10 18 40 30.0010000  0  5G24G 4G 5G 7G 9
  20966142.522      591090.828 9  -3445662.50729       106.000
  21143410.611     1879202.215 9   1759513.09429       130.000
  22234228.554     4459379.639 8  -5246825.43626        78.000
  23514405.156     4788201.847 7   5976806.32626        54.000
  21789544.452     1549313.378 9   1280733.88029       114.000
 96  6 10 18 40 45.0010000  0  5G24G 4G 5G 7G 9
  20963884.635      579226.922 9  -3454907.14829        98.000
  21147937.268     1902984.675 9   1778044.85229       132.000
  22228096.269     4427196.252 8  -5271903.41927        76.000
  23521666.429     4826322.270 7   6006510.48826        54.000
  21793454.765     1569870.117 9   1296752.07528       116.000
 96  6 10 18 41  0.0010000  0  5G24G 4G 5G 7G 9
  20961647.553      567480.994 9  -3464059.81129        96.000
  21152481.762     1926883.237 9   1796667.10829       128.000
  22221984.011     4395045.294 8  -5296956.11127        78.000
  23528916.370     4864434.752 7   6036208.52526        50.000
  21797390.710     1590547.458 9   1312864.27328       120.000
 96  6 10 18 41 15.0010000  0  5G24G 4G 5G 7G 9
  20959436.734      555861.301 9  -3473114.10729       100.000
  21157054.106     1950905.540 9   1815385.79729       128.000
  22215880.116     4362933.496 8  -5321978.27827        80.000
  23536170.118     4902546.911 7   6065906.28426        52.000
  21801349.410     1611353.503 9   1329076.79028       114.000
 96  6 10 18 41 30.0010000  0  5G24G 4G 5G 7G 9
  20957244.352      544352.769 9  -3482081.77529       102.000
  21161643.479     1975035.426 9   1834188.31529       128.000
  22209761.052     4330845.276 8  -5346982.04327        72.000
  23543416.552     4940640.391 7   6095589.50626        56.000
  21805329.664     1632270.021 9   1345375.38628       110.000
 96  6 10 18 41 45.0010000  0  5G24G 4G 5G 7G 9
  20955077.572      532958.326 9  -3490960.57729        98.000
  21166254.737     1999272.817 9   1853074.58929       132.000
  22203658.807     4298782.092 8  -5371966.36127        70.000
  23550660.497     4978716.443 7   6125259.15126        56.000
  21809335.131     1653297.942 9   1361760.77128       110.000
 96  6 10 18 42  0.0010000  0  5G24G 4G 5G 7G 9
  20952929.589      521670.840 9  -3499755.98329        96.000
  21170885.151     2023608.750 9   1872037.66129       130.000
  22197570.921     4266738.298 8  -5396935.51827        78.000
  23557904.112     5016770.018 7   6154911.28626        58.000
  21813358.166     1674433.422 9   1378229.98228       110.000
 96  6 10 18 42 15.0010000  0  5G24G 4G 5G 7G 9
  20950802.591      510497.798 9  -3508462.27129        98.000
  21175537.960     2048049.175 9   1891082.11429       132.000
  22191475.961     4234719.614 8  -5421885.16827        80.000
  23565142.841     5054807.098 7   6184550.52026        60.000
  21817400.118     1695680.539 9   1394786.15328       110.000
 96  6 10 18 42 30.0010000  0  5G24G 4G 5G 7G 9
  20948697.269      499436.262 9  -3517081.65929        98.000
  21180208.187     2072592.946 9   1910207.12529       134.000
  22185389.335     4202724.702 9  -5446816.27327        84.000
  23572381.660     5092825.378 7   6214175.13126        58.000
  21821462.066     1717032.875 9   1411424.31428       110.000
 96  6 10 18 42 45.0010000  0  5G24G 4G 5G 7G 9
  20946614.970      488485.728 9  -3525614.52429        98.000
  21184900.269     2097239.047 9   1929411.88129       134.000
  22179307.115     4170753.453 9  -5471728.90227        86.000
  23579607.557     5130826.185 7   6243786.13326        56.000
  21825541.402     1738487.065 9   1428141.85628       104.000
 96  6 10 18 43  0.0010000  0  5G24G 4G 5G 7G 9
  20944550.330      477645.087 9  -3534061.75329        98.000
  21189608.060     2121985.643 9   1948694.95129       132.000
  22173223.187     4138803.793 8  -5496624.70927        82.000
  23586832.406     5168810.537 7   6273384.34526        52.000
  21829645.321     1760040.483 9   1444936.73928       106.000
 96  6 10 18 43 15.0010000  0  5G24G 4G 5G 7G 9
  20942510.452      466922.648 9  -3542416.90029        96.000
  21194340.074     2146840.178 9   1968062.12429       132.000
  22167151.730     4106885.660 8  -5521495.97127        78.000
  23594059.173     5206788.269 7   6302977.38726        54.000
  21833766.898     1781701.168 9   1461815.19728       104.000
 96  6 10 18 43 30.0010000  0  5G24G 4G 5G 7G 9
  20940491.679      456307.489 9  -3550688.44629        96.000
  21199086.778     2171795.136 9   1987507.54429       132.000
  22161085.400     4074990.003 8  -5546349.72927        82.000
  23601288.038     5244751.146 7   6332558.83726        54.000
  21837905.563     1803461.359 9   1478771.16328        98.000
 96  6 10 18 43 45.0010000  0  5G24G 4G 5G 7G 9
  20938488.676      445798.470 9  -3558877.30029        96.000
  21203854.017     2196848.456 9   2007029.60629       130.000
  22155017.720     4043115.268 9  -5571187.17727        84.000
  23608504.822     5282697.824 7   6362127.63626        52.000
  21842064.373     1825320.461 9   1495804.22528        98.000
 96  6 10 18 44  0.0010000  0  5G24G 4G 5G 7G 9
  20936512.144      435400.727 9  -3566979.44429        96.000
  21208641.883     2222007.694 9   2026634.18829       126.000
  22148958.285     4011269.573 8  -5596002.00527        82.000
  23615720.707     5320635.763 7   6391689.63726        50.000
  21846245.609     1847285.144 9   1512919.55428       102.000
 96  6 10 18 44 15.0010000  0  5G24G 4G 5G 7G 9
  20934552.941      425110.828 9  -3574997.52129        96.000
  21213448.905     2247271.452 9   2046320.25329       126.000
  22142897.861     3979450.908 8  -5620795.76827        74.000
  23622944.266     5358563.425 7   6421243.65126        52.000
  21850445.881     1869353.955 9   1530116.02828       110.000
 96  6 10 18 44 30.0010000  0  5G24G 4G 5G 7G 9
  20932614.842      414931.762 9  -3582929.27429        96.000
  21218277.212     2272640.185 9   2066088.07729       126.000
  22136853.475     3947661.747 8  -5645566.54627        80.000
  23630159.491     5396481.505 7   6450790.18126        54.000
  21854666.239     1891528.733 9   1547395.04328       110.000
 96  6 10 18 44 45.0010000  0  5G24G 4G 5G 7G 9
  20930702.646      404857.841 9  -3590779.06829        98.000
  21223119.730     2298108.895 9   2085933.83729       122.000
  22130805.492     3915899.546 8  -5670316.30027        82.000
  23637375.825     5434386.958 7   6480326.88926        58.000
  21858907.613     1913810.447 9   1564757.40428       108.000
 96  6 10 18 45  0.0010000  0  5G24G 4G 5G 7G 9
  20928804.030      394895.514 9  -3598541.92029       100.000
  21227988.779     2323683.031 9   2105861.73729       124.000
  22124770.520     3884168.059 8  -5695042.09627        80.000
  23644591.890     5472284.985 7   6509857.82326        60.000
  21863170.002     1936205.499 9   1582208.10028       108.000
 96  6 10 18 45 15.0010000  0  5G24G 4G 5G 7G 9
  20926934.165      385047.320 9  -3606215.82229       102.000
  21232875.666     2349362.835 9   2125871.96729       122.000
  22118735.248     3852470.053 8  -5719741.83727        78.000
  23651790.026     5510175.701 7   6539383.05626        58.000
  21867455.925     1958717.276 9   1599749.71028       114.000
 96  6 10 18 45 30.0010000  0  5G24G 4G 5G 7G 9
  20925078.120      375308.608 9  -3613804.45629       100.000
  21237783.029     2375145.668 9   2145962.46729       122.000
  22112714.067     3820802.160 8  -5744418.11527        80.000
  23659004.772     5548053.392 8   6568898.07126        64.000
  21871761.095     1981343.487 9   1617380.50428       108.000
 96  6 10 18 45 45.0010000  0  5G24G 4G 5G 7G 9
  20923244.919      365678.018 9  -3621308.78229        98.000
  21242710.328     2401029.251 9   2166131.50629       118.000
  22106689.287     3789163.192 8  -5769071.80927        82.000
  23666208.994     5585914.406 8   6598400.17526        64.000
  21876087.070     2004078.917 9   1635096.43028       112.000
 96  6 10 18 46  0.0010000  0  5G24G 4G 5G 7G 9
  20921430.815      356160.195 9  -3628725.26029       100.000
  21247650.578     2427014.677 9   2186379.87929       112.000
  22100674.102     3757555.552 8  -5793701.16027        82.000
  23673409.050     5623759.692 7   6627889.97026        62.000
  21880433.161     2026922.735 9   1652896.78728       112.000
 96  6 10 18 46 15.0010000  0  5G24G 4G 5G 7G 9
  20919643.422      346759.837 9  -3636050.19929       100.000
  21252615.051     2453106.272 9   2206711.00829       108.000
  22094666.411     3725982.319 8  -5818303.66727        76.000
  23680612.973     5661592.327 8   6657369.96726        64.000
  21884800.298     2049878.346 9   1670784.29729       110.000
 96  6 10 18 46 30.0010000  0  5G24G 4G 5G 7G 9
  20917875.126      337473.467 9  -3643286.35229        98.000
  21257602.398     2479299.413 9   2227121.22929       108.000
  22088664.806     3694438.393 8  -5842883.34327        74.000
  23687806.553     5699406.911 7   6686835.83126        62.000
  21889191.058     2072942.152 9   1688756.07129       116.000
 96  6 10 18 46 45.0010000  0  5G24G 4G 5G 7G 9
  20916132.853      328295.426 9  -3650438.04329        96.000
  21262608.123     2505589.064 9   2247606.68129       110.000
  22082664.699     3662920.441 8  -5867442.75927        76.000
  23695001.212     5737199.389 7   6716284.52226        62.000
  21893598.667     2096111.334 9   1706809.98928       120.000
 96  6 10 18 47  0.0010000  0  5G24G 4G 5G 7G 9
  20914405.358      319230.461 9  -3657501.65929       104.000
  21267630.456     2531983.588 9   2268173.82029       106.000
  22076674.756     3631431.875 8  -5891979.32127        82.000
  23702180.252     5774976.220 7   6745720.98226        60.000
  21898027.951     2119389.305 9   1724948.63928       120.000
 96  6 10 18 47 15.0010000  0  5G24G 4G 5G 7G 9
  20912702.297      310282.900 9  -3664473.76429       100.000
  21272668.378     2558484.921 9   2288824.22529       106.000
  22070689.550     3599976.489 8  -5916489.97327        82.000
  23709372.903     5812739.912 7   6775147.22926        60.000
  21902480.588     2142777.869 9   1743173.50128       120.000
 96  6 10 18 47 30.0010000  0  5G24G 4G 5G 7G 9
  20911017.854      301447.962 9  -3671358.12129       100.000
  21277732.832     2585087.424 9   2309553.45829       110.000
  22064706.921     3568551.858 8  -5940976.69827        78.000
  23716555.001     5850486.179 7   6804559.86726        60.000
  21906948.815     2166270.338 9   1761479.32828       118.000
 96  6 10 18 47 45.0010000  0  5G24G 4G 5G 7G 9
  20909360.541      292729.499 9  -3678151.72729        94.000
  21282815.034     2611794.923 9   2330364.48729       112.000
  22058736.704     3537161.558 8  -5965436.65927        82.000
  23723739.437     5888221.250 7   6833963.81026        62.000
  21911439.316     2189868.233 9   1779867.29328       120.000
 96  6 10 18 48  0.0010000  0  5G24G 4G 5G 7G 9
  20907727.152      284127.318 9  -3684854.71729        98.000
  21287917.891     2638605.273 9   2351255.65329       112.000
  22052769.156     3505804.939 8  -5989870.37427        82.000
  23730917.578     5925946.108 7   6863359.81126        62.000
  21915951.792     2213573.475 9   1798338.89828       122.000
 96  6 10 18 48 15.0010000  0  5G24G 4G 5G 7G 9
  20906109.202      275639.808 9  -3691468.36429        96.000
  21293034.089     2665519.147 9   2372227.49929       110.000
  22046807.483     3474482.328 8  -6014277.58927        82.000
  23738091.131     5963661.628 7   6892748.51726        60.000
  21920484.025     2237388.476 9   1816896.01528       120.000
 96  6 10 18 48 30.0010000  0  5G24G 4G 5G 7G 9
  20904517.754      267266.966 9  -3697992.65929        98.000
  21298180.776     2692537.753 9   2393280.96729       116.000
  22040854.054     3443199.328 8  -6038653.95027        82.000
  23745276.347     6001372.287 7   6922133.44226        62.000
  21925033.645     2261318.692 9   1835542.92028       118.000
 96  6 10 18 48 45.0010000  0  5G24G 4G 5G 7G 9
  20902948.490      259008.694 9  -3704427.66229       100.000
  21303342.393     2719658.163 9   2414413.74129       118.000
  22034909.260     3411957.917 8  -6062997.88027        82.000
  23752451.820     6039078.210 7   6951514.65926        62.000
  21929610.996     2285363.183 9   1854278.88528       116.000
 96  6 10 18 49  0.0010000  0  5G24G 4G 5G 7G 9
  20901397.693      250871.919 9  -3710768.02229       102.000
  21308522.897     2746884.919 9   2435629.38329       114.000
  22028973.459     3380763.873 9  -6087304.92927        88.000
  23759617.699     6076784.381 7   6980896.05726        58.000
  21934210.592     2309525.023 9   1873106.27628       114.000
 96  6 10 18 49 15.0010000  0  5G24G 4G 5G 7G 9
  20899873.818      242858.586 9  -3717012.15229        98.000
  21313722.527     2774214.228 9   2456924.95029       110.000
  22023046.652     3349615.916 9  -6111576.06027        88.000
  23766785.077     6114488.616 7   7010275.97126        58.000
  21938829.734     2333797.576 9   1892019.95228       116.000
 96  6 10 18 49 30.0010000  0  5G24G 4G 5G 7G 9
  20898366.762      234965.680 9  -3723162.44029        94.000
  21318942.183     2801641.791 9   2478297.09929       116.000
  22017123.353     3318513.115 9  -6135812.00027        84.000
  23773963.248     6152185.365 7   7039650.06426        56.000
  21943468.153     2358178.652 9   1911018.20328       122.000
 96  6 10 18 49 45.0010000  0  5G24G 4G 5G 7G 9
  20896893.372      227192.258 9  -3729219.67229       102.000
  21324179.738     2829169.620 9   2499747.31129       118.000
  22011219.540     3287454.118 9  -6160013.83827        84.000
  23781134.283     6189873.571 7   7069017.44626        52.000
  21948128.517     2382665.401 9   1930098.74228       120.000
 96  6 10 18 50  0.0010000  0  5G24G 4G 5G 7G 9
  20895435.571      219546.735 9  -3735177.22029        92.000
  21329440.855     2856806.039 9   2521282.18929       118.000
  22005316.926     3256446.890 9  -6184175.27927        88.000
  23788310.445     6227560.639 7   7098383.99526        52.000
  21952810.765     2407269.328 9   1949270.64029       124.000
 96  6 10 18 50 15.0010000  0  5G24G 4G 5G 7G 9
  20894004.002      212024.976 9  -3741038.31829        86.000
  21334716.453     2884545.879 9   2542897.66229       118.000
  21999428.642     3225487.982 9  -6208299.08727        94.000
  23795470.718     6265241.906 7   7127746.00226        50.000
  21957513.310     2431984.350 9   1968529.09429       116.000
 96  6 10 18 50 30.0010000  0  5G24G 4G 5G 7G 9
  20892598.125      204630.653 9  -3746800.13829        92.000
  21340018.253     2912391.923 9   2564595.85629       124.000
  21993543.117     3194579.647 9  -6232383.50827        88.000
  23802649.009     6302920.502 7   7157105.91226        52.000
  21962236.090     2456810.151 9   1987873.83729       110.000
 96  6 10 18 50 45.0010000  0  5G24G 4G 5G 7G 9
  20891220.519      197365.000 9  -3752461.68729       100.000
  21345338.340     2940342.996 9   2586375.89729       120.000
  21987671.322     3163717.190 8  -6256432.15427        82.000
  23809813.119     6340594.745 7   7186462.44126        50.000
  21966982.944     2481743.015 9   2007302.03129       114.000
 96  6 10 18 51  0.0010000  0  5G24G 4G 5G 7G 9
  20889855.504      190222.019 9  -3758027.63629        98.000
  21350673.296     2968394.386 9   2608234.12229       122.000
  21981805.313     3132892.882 8  -6280451.07527        76.000
  23816976.240     6378256.337 7   7215809.14226        50.000
  21971746.466     2506776.059 9   2026808.29229       116.000
 96  6 10 18 51 15.0010000  0  5G24G 4G 5G 7G 9
  20888520.258      183203.661 9  -3763496.51429        98.000
  21356033.346     2996552.160 9   2630175.20829       122.000
  21975942.691     3102106.376 8  -6304440.58927        78.000
  23824151.053     6415908.285 7   7245148.26726        52.000
  21976528.486     2531911.179 9   2046394.05729       112.000
 96  6 10 18 51 30.0010000  0  5G24G 4G 5G 7G 9
  20887213.313      176312.423 9  -3768866.28829       106.000
  21361411.562     3024824.862 9   2652205.89229       126.000
  21970096.109     3071363.434 8  -6328396.11027        82.000
  23831315.524     6453557.749 7   7274485.52026        50.000
  21981333.829     2557159.268 9   2066067.89629       106.000
 96  6 10 18 51 45.0010000  0  5G24G 4G 5G 7G 9
  20885923.396      169536.472 9  -3774146.24629       102.000
  21366810.885     3053203.815 9   2674319.35829       126.000
  21964253.843     3040653.415 8  -6352326.00227        82.000
  23838472.919     6491196.258 7   7303814.22626        46.000
  21986159.948     2582514.654 9   2085825.32029       104.000
 96  6 10 18 52  0.0010000  0  5G24G 4G 5G 7G 9
  20884654.884      162881.687 9  -3779331.79929       100.000
  21372233.681     3081692.444 9   2696518.29729       128.000
  21958414.366     3009978.800 8  -6376228.31427        80.000
  23845643.774     6528830.392 7   7333139.51026        48.000
  21991005.853     2607983.921 9   2105671.48429       106.000
 96  6 10 18 52 15.0010000  0  5G24G 4G 5G 7G 9
  20883412.065      156350.473 9  -3784421.03829        90.000
  21377677.012     3110290.435 9   2718802.45529       134.000
  21952585.621     2979341.029 8  -6400101.86528        82.000
  23852798.351     6566464.042 7   7362464.46226        44.000
  21995873.973     2633571.328 9   2125609.71829       104.000
 96  6 10 18 52 30.0010000  0  5G24G 4G 5G 7G 9
  20882190.560      149935.789 9  -3789419.49229        94.000
  21383139.980     3138992.857 9   2741167.97329       134.000
  21946761.103     2948735.190 9  -6423950.53128        86.000
  23859956.646     6604091.684 7   7391784.67326        44.000
  22000760.291     2659269.914 9   2145634.58729        96.000
 96  6 10 18 52 45.0010000  0  5G24G 4G 5G 7G 9
  20880994.238      143638.411 9  -3794326.53929       100.000
  21388621.505     3167803.230 9   2763617.60429       132.000
  21940939.464     2918162.249 8  -6447773.60928        82.000
  23867123.484     6641714.912 7   7421101.46526        48.000
  22005673.619     2685082.670 9   2165748.40329        98.000
 96  6 10 18 53  0.0010000  0  5G24G 4G 5G 7G 9
  20879817.373      137457.182 9  -3799143.09129       102.000
  21394125.425     3196720.232 9   2786150.31329       130.000
  21935130.325     2887625.305 8  -6471568.63628        82.000
  23874286.815     6679334.186 7   7450415.13726        50.000
  22010607.903     2711010.584 9   2185951.94429        98.000
 96  6 10 18 53 15.0010000  0  5G24G 4G 5G 7G 9
  20878660.354      131383.237 9  -3803876.01129        98.000
  21399646.103     3225737.421 9   2808761.12629       134.000
  21929326.073     2857120.453 8  -6495338.61928        82.000
  23881434.977     6716942.674 7   7479720.46626        48.000
  22015561.194     2737047.561 9   2206240.51629        94.000
 96  6 10 18 53 30.0010000  0  5G24G 4G 5G 7G 9
  20877522.642      125424.297 9  -3808519.32529        94.000
  21405188.486     3254856.858 9   2831451.57829       142.000
  21923532.254     2826657.215 9  -6519076.22328        86.000
  23888584.187     6754549.160 7   7509024.20426        42.000
  22020535.920     2763198.147 9   2226617.57129        86.000
 96  6 10 18 53 45.0010000  0  5G24G 4G 5G 7G 9
  20876413.050      119575.505 9  -3813076.83929        98.000
  21410748.287     3284071.334 9   2854216.08829       138.000
  21917737.716     2796235.070 9  -6542781.78828        86.000
  23895749.677     6792150.073 7   7538323.59326        44.000
  22025534.660     2789457.226 9   2247079.16829        86.000
 96  6 10 18 54  0.0010000  0  5G24G 4G 5G 7G 9
  20875321.596      113845.752 9  -3817541.56829        96.000
  21416323.977     3313384.033 9   2877057.18129       134.000
  21911963.144     2765861.781 9  -6566449.25728        86.000
  23902914.836     6829752.217 7   7567623.95026        48.000
  22030555.104     2815826.850 9   2267626.94729        84.000
 96  6 10 18 54 15.0010000  0  5G24G 4G 5G 7G 9
  20874253.795      108230.277 9  -3821917.25129        96.000
  21421917.085     3342789.282 9   2899970.35829       132.000
  21906188.032     2735534.631 9  -6590080.80228        90.000
  23910063.867     6867348.512 7   7596919.74926        52.000
  22035590.928     2842299.459 9   2288254.95828        90.000
 96  6 10 18 54 30.0010000  0  5G24G 4G 5G 7G 9
  20873207.789      102746.468 9  -3826190.35429        98.000
  21427538.254     3372306.049 9   2922970.43429       136.000
  21900434.924     2705277.096 9  -6613658.10027        90.000
  23917216.196     6904959.623 7   7626227.08525        50.000
  22040654.213     2868891.106 8   2308975.70128        82.000
 96  6 10 18 54 45.0010000  0  5G24G 4G 5G 7G 9
  20872188.555       97379.087 9  -3830372.70829       108.000
  21433171.054     3401918.129 9   2946044.78029       128.000
  21894686.014     2675073.928 9  -6637193.03327        90.000
  23924369.274     6942566.711 7   7655531.31925        50.000
  22045729.699     2895582.056 8   2329773.84428        78.000
 96  6 10 18 55  0.0010000  0  5G24G 4G 5G 7G 9
  20871188.477       92125.097 9  -3834466.73229       104.000
  21438820.493     3431617.824 9   2969187.38629       122.000
  21888951.074     2644920.232 9  -6660689.42427        92.000
  23931531.645     6980161.400 7   7684825.83725        50.000
  22050828.299     2922364.305 9   2350643.10228        86.000
 96  6 10 18 55 15.0010000  0  5G24G 4G 5G 7G 9
  20870211.004       86984.359 9  -3838472.49629       102.000
  21444489.989     3461406.035 9   2992398.97729       124.000
  21883217.604     2614817.887 9  -6684145.77627        88.000
  23938671.652     7017741.230 7   7714108.80725        50.000
  22055945.247     2949237.574 9   2371583.32028        90.000
 96  6 10 18 55 30.0010000  0  5G24G 4G 5G 7G 9
  20869252.357       81961.381 9  -3842386.49029       102.000
  21450175.373     3491286.896 9   3015682.76229       124.000
  21877498.763     2584768.116 9  -6707561.16228        90.000
  23945820.863     7055309.163 7   7743382.51825        48.000
  22061072.747     2976204.902 9   2392596.82028        94.000
 96  6 10 18 55 45.0010000  0  5G24G 4G 5G 7G 9
  20868322.341       77056.211 9  -3846208.69629       100.000
  21455883.361     3521263.040 9   3039040.79529       118.000
  21871793.143     2554770.158 9  -6730936.17828        90.000
  23952975.260     7092865.599 7   7772647.25925        48.000
  22066222.492     3003266.751 9   2413683.97028        96.000
 96  6 10 18 56  0.0010000  0  5G24G 4G 5G 7G 9
  20867411.751       72267.100 9  -3849940.47929        98.000
  21461605.949     3551336.629 9   3062474.75529       120.000
  21866092.619     2524820.901 9  -6754273.26528        94.000
  23960110.591     7130404.492 7   7801898.31825        48.000
  22071392.833     3030423.800 9   2434845.29428        94.000
 96  6 10 18 56 15.0010000  0  5G24G 4G 5G 7G 9
  20866520.049       67590.081 9  -3853584.91029        98.000
  21467348.684     3581503.544 9   3085981.43029       124.000
  21860399.320     2494914.671 9  -6777576.82428        90.000
  23967247.840     7167918.756 7   7831130.17925        52.000
  22076573.696     3057672.176 9   2456077.77928        90.000
 96  6 10 18 56 30.0010000  0  5G24G 4G 5G 7G 9
  20865655.297       63028.741 9  -3857139.18829       100.000
  21473106.378     3611770.307 9   3109565.91229       126.000
  21854719.123     2465056.796 9  -6800842.70428        88.000
  23974389.406     7205413.412 7   7860346.74625        50.000
  22081778.423     3085016.839 9   2477385.30228        92.000
 96  6 10 18 56 45.0010000  0  5G24G 4G 5G 7G 9
  20864805.476       58574.423 9  -3860610.07529        96.000
  21478883.678     3642130.196 9   3133222.99029       120.000
  21849043.842     2435239.440 9  -6824076.96828        88.000
  23981519.579     7242879.506 7   7889541.12225        52.000
  22086998.919     3112450.523 9   2498762.20228        96.000
 96  6 10 18 57  0.0010000  0  5G24G 4G 5G 7G 9
  20863977.569       54234.414 9  -3863991.90529        96.000
  21484674.739     3672589.674 9   3156957.64329       116.000
  21843378.364     2405466.534 9  -6847276.63628        90.000
  23988643.188     7280320.498 7   7918715.90425        52.000
  22092244.657     3139981.700 9   2520215.05328       100.000
 96  6 10 18 57 15.0010000  0  5G24G 4G 5G 7G 9
  20863173.106       50004.185 9  -3867288.18129        98.000
  21490492.841     3703145.347 9   3180767.26229       118.000
  21837722.209     2375734.979 9  -6870444.07828        88.000
  23995761.430     7317735.985 7   7947870.82025        50.000
  22097496.811     3167610.568 9   2541744.02628       100.000
 96  6 10 18 57 30.0010000  0  5G24G 4G 5G 7G 9
  20862393.645       45888.763 9  -3870494.99629       100.000
  21496324.674     3733802.432 9   3204655.87629       116.000
  21832074.000     2346048.744 9  -6893576.20928        88.000
  24002880.721     7355135.936 7   7977013.60725        52.000
  22102774.687     3195345.636 9   2563355.74628       104.000
 96  6 10 18 57 45.0010000  0  5G24G 4G 5G 7G 9
  20861629.085       41889.679 9  -3873611.16029        96.000
  21502177.582     3764557.213 9   3228620.64229       110.000
  21826434.244     2316406.282 9  -6916674.22128        94.000
  24009989.910     7392523.730 7   8006146.90325        50.000
  22108072.530     3223186.591 9   2585049.97428       102.000
 96  6 10 18 58  0.0010000  0  5G24G 4G 5G 7G 9
  20860888.747       38003.163 9  -3876639.59829        96.000
  21508048.718     3795403.955 9   3252657.08629       110.000
  21820797.816     2286805.921 9  -6939739.39827        90.000
  24017102.156     7429895.781 7   8035268.00125        50.000
  22113386.801     3251129.645 9   2606823.77128       104.000
 96  6 10 18 58 15.0010000  0  5G24G 4G 5G 7G 9
  20860176.680       34237.706 9  -3879573.72729        96.000
  21513936.192     3826348.586 9   3276769.76029       108.000
  21815175.568     2257256.696 9  -6962764.79728        92.000
  24024221.657     7467264.080 7   8064386.10925        48.000
  22118728.053     3279183.213 9   2628683.66628       104.000
 96  6 10 18 58 30.0010000  0  5G24G 4G 5G 7G 9
  20859478.014       30594.563 9  -3882412.53129        96.000
  21519845.221     3857391.783 9   3300959.27429       110.000
  21809567.501     2227760.545 9  -6985748.79028        96.000
  24031327.128     7504633.977 7   8093505.50925        50.000
  22124085.344     3307346.552 9   2650629.11028       102.000
 96  6 10 18 58 45.0010000  0  5G24G 4G 5G 7G 9
  20858810.406       27069.856 9  -3885159.05229        98.000
  21525766.602     3888528.589 9   3325221.71929       106.000
  21803958.234     2198315.054 9  -7008693.30428        96.000
  24038432.989     7542002.286 7   8122623.64025        50.000
  22129464.041     3335616.046 9   2672657.28328        96.000
 96  6 10 18 59  0.0010000  0  5G24G 4G 5G 7G 9
  20858162.674       23671.892 9  -3887806.79529       100.000
  21531708.548     3919764.740 9   3349561.58529       104.000
  21798366.655     2168923.933 9  -7031595.47128        94.000
  24045554.979     7579374.704 7   8151744.98825        52.000
  22134866.421     3363998.756 9   2694773.66928        98.000
 96  6 10 18 59 15.0010000  0  5G24G 4G 5G 7G 9
  20857540.995       20388.183 9  -3890365.54629       104.000
  21537673.189     3951085.624 9   3373967.44729       108.000
  21792784.489     2139572.083 9  -7054467.05528        98.000
  24052660.719     7616738.898 7   8180859.93725        52.000
  22140289.097     3392480.537 9   2716967.23228       104.000
 96  6 10 18 59 30.0010000  0  5G24G 4G 5G 7G 9
  20856934.065       17217.311 9  -3892836.35729        98.000
  21543648.502     3982489.474 9   3398437.97329       108.000
  21787204.422     2110257.652 9  -7077309.46928       102.000
  24059770.448     7654096.280 7   8209969.53925        50.000
  22145724.544     3421059.220 9   2739236.31328       106.000
 96  6 10 18 59 45.0010000  0  5G24G 4G 5G 7G 9
  20856352.707       14168.038 9  -3895212.41529       102.000
  21549644.052     4013985.126 9   3422980.03329       108.000
  21781636.887     2080991.828 9  -7100114.01428        98.000
  24066881.375     7691454.719 7   8239079.99325        50.000
  22151183.135     3449740.421 9   2761585.29528       104.000
 96  6 10 19  0  0.0010000  0  5G24G 4G 5G 7G 9
  20855796.682       11246.704 9  -3897488.75429       100.000
  21555655.310     4045577.897 9   3447597.77129       104.000
  21776077.565     2051782.405 9  -7122874.56628        96.000
  24073982.978     7728815.374 7   8268192.18125        44.000
  22156663.161     3478526.892 9   2784016.31628       108.000
 96  6 10 19  0 15.0010000  0  5G24G 4G 5G 7G 9
  20855263.022        8430.221 9  -3899683.41529        98.000
  21561680.449     4077249.455 9   3472276.89929       110.000
  21770529.066     2022609.808 9  -7145606.45728        94.000
  24081094.205     7766154.395 7   8297287.49125        42.000
  22162155.899     3507395.863 9   2806511.58728       106.000
 96  6 10 19  0 30.0010000  0  5G24G 4G 5G 7G 9
  20854747.679        5726.612 9  -3901790.14129        98.000
  21567727.263     4109003.459 9   3497020.25729       116.000
  21764980.567     1993478.183 9  -7168306.43228        92.000
  24088200.906     7803474.786 6   8326368.27525        40.000
  22167667.973     3536352.317 9   2829075.02028       104.000
 96  6 10 19  0 45.0010000  0  5G24G 4G 5G 7G 9
  20854257.548        3143.246 9  -3903803.14929       102.000
  21573783.790     4140846.024 9   3521832.63829       114.000
  21759445.799     1964394.235 9  -7190969.24128        94.000
  24095297.173     7840780.433 6   8355437.51724        36.000
  22173196.595     3565401.847 9   2851710.99528       108.000
 96  6 10 19  1  0.0010000  0  5G24G 4G 5G 7G 9
  20853785.075         676.325 9  -3905725.39429        96.000
  21579859.954     4172772.964 9   3546710.80329       118.000
  21753923.142     1935352.027 9  -7213599.50128        96.000
  24102384.836     7878066.153 6   8384491.36724        34.000
  22178741.197     3594540.558 9   2874416.50028       104.000
 96  6 10 19  1 15.0010000  0  5G24G 4G 5G 7G 9
  20853343.511       -1671.561 9  -3907554.91629       100.000
  21585955.244     4204786.159 9   3571656.12829       124.000
  21748402.614     1906353.998 9  -7236195.37528        92.000
  24109484.881     7915334.507 6   8413531.65424        36.000
  22184300.518     3623768.317 9   2897191.35229       104.000
 96  6 10 19  1 30.0010000  0  5G24G 4G 5G 7G 9
  20852918.825       -3899.879 9  -3909291.25829        98.000
  21592057.939     4236886.804 9   3596669.61629       120.000
  21742892.938     1877405.535 9  -7258752.59828        90.000
  24116563.520     7952591.391 6   8442562.98625        34.000
  22189881.784     3653088.446 9   2920038.21829       102.000
 96  6 10 19  1 45.0010000  0  5G24G 4G 5G 7G 9
  20852515.214       -6008.198 9  -3910934.11629        98.000
  21598187.406     4269076.620 9   3621752.57829       128.000
  21737396.753     1848512.451 9  -7281266.68928        94.000
  24123648.636     7989838.264 6   8471586.50325        34.000
  22195479.090     3682501.894 9   2942957.77629        96.000
 96  6 10 19  2  0.0010000  0  5G24G 4G 5G 7G 9
  20852137.296       -7998.726 9  -3912485.15429       102.000
  21604327.905     4301355.044 9   3646904.59529       124.000
  21731907.523     1819674.074 9  -7303738.13728        92.000
  24130744.393     8027070.927 6   8500598.97725        38.000
  22201092.164     3712008.722 9   2965950.08929        92.000
 96  6 10 19  2 15.0010000  0  5G24G 4G 5G 7G 9
  20851778.864       -9873.097 9  -3913945.70529       100.000
  21610487.681     4333721.361 9   3672125.08829       122.000
  21726428.936     1790888.570 9  -7326168.38428        90.000
  24137827.740     8064288.471 7   8529599.65224        42.000
  22206721.876     3741611.260 9   2989016.98129        88.000
 96  6 10 19  2 30.0010000  0  5G24G 4G 5G 7G 9
  20851446.934      -11627.121 9  -3915312.48129       100.000
  21616666.823     4366181.552 9   3697418.73029       124.000
  21720965.488     1762161.027 9  -7348553.48928        94.000
  24144897.745     8101501.134 6   8558596.50725        38.000
  22212376.592     3771318.675 9   3012165.59429        86.000
 96  6 10 19  2 45.0010000  0  5G24G 4G 5G 7G 9
  20851133.800      -13254.105 9  -3916580.26529        98.000
  21622860.565     4398741.188 9   3722789.85629       124.000
  21715507.647     1733496.781 9  -7370889.27128        94.000
  24151990.715     8138717.931 7   8587596.57725        42.000
  22218050.134     3801138.567 9   3035401.85029        86.000
 96  6 10 19  3  0.0010000  0  5G24G 4G 5G 7G 9
  20850849.297      -14759.595 9  -3917753.36229        96.000
  21629077.991     4431401.855 9   3748239.73729       126.000
  21710065.125     1704896.135 9  -7393175.45028        92.000
  24159069.444     8175940.922 6   8616601.53424        40.000
  22223752.276     3831071.305 9   3058726.07629        88.000
 96  6 10 19  3 15.0010000  0  5G24G 4G 5G 7G 9
  20850585.120      -16147.404 9  -3918834.78329        94.000
  21635306.839     4464157.823 9   3773763.84529       126.000
  21704635.523     1676357.103 9  -7415413.67628        90.000
  24166158.037     8213166.439 6   8645608.36124        38.000
  22229468.389     3861111.885 9   3082134.27229        92.000
 96  6 10 19  3 30.0010000  0  5G24G 4G 5G 7G 9
  20850347.385      -17399.270 9  -3919810.24529        92.000
  21641565.846     4497028.825 9   3799377.63229       130.000
  21699217.884     1647902.182 9  -7437586.33228        88.000
  24173237.876     8250416.610 6   8674634.49024        36.000
  22235206.537     3891282.428 9   3105643.78129        90.000
 96  6 10 19  3 45.0010000  0  5G24G 4G 5G 7G 9
  20850131.834      -18527.069 9  -3920689.06529        94.000
  21647837.564     4530004.919 9   3825073.27129       122.000
  21693819.132     1619519.736 9  -7459702.52728        86.000
  24180326.978     8287680.705 6   8703671.45324        38.000
  22240972.295     3921571.586 9   3129245.70529        90.000
 96  6 10 19  4  0.0010000  0  5G24G 4G 5G 7G 9
  20849941.046      -19535.534 9  -3921474.88029       100.000
  21654132.456     4563079.474 9   3850845.64329       122.000
  21688426.855     1591202.993 9  -7481767.50628        90.000
  24187425.464     8324949.840 6   8732712.31924        34.000
  22246757.091     3951969.657 9   3152932.49929        84.000
 96  6 10 19  4 15.0010000  0  5G24G 4G 5G 7G 9
  20849771.873      -20421.650 9  -3922165.37829        98.000
  21660444.916     4596253.400 9   3876695.42329       122.000
  21683052.385     1562950.843 9  -7503782.21228        96.000
  24194518.583     8362226.530 6   8761759.05724        34.000
  22252559.394     3982478.411 8   3176705.50929        78.000
 96  6 10 19  4 30.0010000  0  5G24G 4G 5G 7G 9
  20849624.675      -21188.698 9  -3922763.04029        96.000
  21666776.922     4629519.974 9   3902617.45629       122.000
  21677694.135     1534760.469 9  -7525748.69728       102.000
  24201604.088     8399510.128 6   8790811.17024        34.000
  22258383.582     4013091.354 8   3200559.77129        76.000
 96  6 10 19  4 45.0010000  0  5G24G 4G 5G 7G 9
  20849507.696      -21826.888 9  -3923260.33329       100.000
  21673125.447     4662887.658 9   3928618.24329       120.000
  21672334.295     1506643.164 9  -7547658.27028        96.000
  24208711.688     8436809.747 7   8819875.76224        42.000
  22264228.605     4043812.560 8   3224498.37529        76.000
 96  6 10 19  5  0.0010000  0  5G24G 4G 5G 7G 9
  20849407.416      -22335.440 9  -3923656.61729        98.000
  21679493.039     4696357.487 9   3954698.60929       120.000
  21667005.364     1478601.098 9  -7569509.25728        98.000
  24215817.578     8474123.108 7   8848951.06424        46.000
  22270101.360     4074638.796 8   3248518.79629        82.000
 96  6 10 19  5 15.0010000  0  5G24G 4G 5G 7G 9
  20849336.005      -22719.183 9  -3923955.63229        92.000
  21685885.514     4729921.945 9   3980852.72329       124.000
  21661680.241     1450629.569 9  -7591305.23328        90.000
  24222921.460     8511441.941 7   8878030.73323        52.000
  22275982.478     4105561.907 8   3272614.71129        82.000
 96  6 10 19  5 30.0010000  0  5G24G 4G 5G 7G 9
  20849286.779      -22979.430 9  -3924158.40629        96.000
  21692286.233     4763575.213 9   4007076.07429       122.000
  21656366.779     1422721.863 9  -7613051.46428        88.000
  24230022.464     8548759.397 7   8907109.26223        52.000
  22281884.612     4136575.032 9   3296780.77929        86.000
 96  6 10 19  5 45.0010000  0  5G24G 4G 5G 7G 9
  20849264.594      -23111.239 9  -3924261.11829       102.000
  21698706.648     4797324.687 9   4033374.33829       116.000
  21651073.704     1394881.946 9  -7634744.91528        96.000
  24237125.267     8586080.597 7   8936190.67523        52.000
  22287805.573     4167683.871 9   3321021.42129        84.000
 96  6 10 19  6  0.0010000  0  5G24G 4G 5G 7G 9
  20849257.429      -23122.016 9  -3924269.49929        94.000
  21705146.310     4831162.656 9   4059741.60829       114.000
  21645785.365     1367101.941 9  -7656391.65328        96.000
  24244221.715     8623394.666 7   8965266.58923        50.000
  22293741.854     4198879.111 9   3345329.40728        90.000
 96  6 10 19  6 15.0010000  0  5G24G 4G 5G 7G 9
  20849280.453      -23003.297 9  -3924176.96629        90.000
  21711602.730     4865097.211 9   4086184.10429       112.000
  21640513.814     1339392.452 9  -7677983.45428       100.000
  24251326.196     8660711.058 7   8994344.21823        52.000
  22299694.623     4230172.693 9   3369714.00228        90.000
 96  6 10 19  6 30.0010000  0  5G24G 4G 5G 7G 9
  20849330.429      -22753.984 9  -3923982.70529        92.000
  21718082.594     4899131.266 9   4112704.13229       112.000
  21635256.773     1311756.040 9  -7699518.31428       104.000
  24258425.941     8698033.435 7   9023426.59923        50.000
  22305670.386     4261569.548 9   3394179.06528        90.000
 96  6 10 19  6 45.0010000  0  5G24G 4G 5G 7G 9
  20849399.921      -22380.533 9  -3923691.70029        98.000
  21724576.189     4933259.753 9   4139297.74229       112.000
  21630008.727     1284187.511 9  -7721000.29228       102.000
  24265515.883     8735355.663 7   9052508.86123        46.000
  22311664.916     4293061.643 9   3418718.32528        94.000
 96  6 10 19  7  0.0010000  0  5G24G 4G 5G 7G 9
  20849496.154      -21877.710 9  -3923299.89929        94.000
  21731090.499     4967490.102 9   4165970.73029       112.000
  21624778.038     1256691.151 9  -7742426.01628       100.000
  24272619.165     8772682.125 6   9081594.41423        40.000
  22317675.695     4324657.167 9   3443338.19728       100.000
 96  6 10 19  7 15.0010000  0  5G24G 4G 5G 7G 9
  20849613.733      -21250.431 9  -3922811.12829        94.000
  21737622.917     5001816.409 9   4192718.48529       112.000
  21619552.445     1229257.141 9  -7763803.17928        94.000
  24279722.808     8810007.313 7   9110678.89523        42.000
  22323707.369     4356354.896 9   3468037.69828       102.000
 96  6 10 19  7 30.0010000  0  5G24G 4G 5G 7G 9
  20849757.453      -20498.716 9  -3922225.36229        94.000
  21744169.695     5036238.024 9   4219540.53229       110.000
  21614345.980     1201885.089 9  -7785132.02428        96.000
  24286835.474     8847332.820 6   9139763.65423        40.000
  22329759.249     4388154.422 9   3492816.55328       102.000
 96  6 10 19  7 45.0010000  0  5G24G 4G 5G 7G 9
  20849923.179      -19620.239 9  -3921540.84129        98.000
  21750741.835     5070760.859 9   4246441.42929       112.000
  21609151.086     1174580.393 9  -7806408.40328        98.000
  24293940.885     8884664.782 6   9168853.44923        36.000
  22335830.676     4420062.039 9   3517679.61528        98.000
 96  6 10 19  8  0.0010000  0  5G24G 4G 5G 7G 9
  20850115.226      -18614.578 9  -3920757.19929        94.000
  21757329.924     5105385.431 9   4273421.62429       112.000
  21603969.863     1147346.550 9  -7827629.57028       100.000
  24301038.141     8922004.961 6   9197949.71523        34.000
  22341924.438     4452079.444 9   3542628.22828       102.000
 96  6 10 19  8 15.0010000  0  5G24G 4G 5G 7G 9
  20850330.746      -17490.130 9  -3919881.00929        94.000
  21763936.840     5140101.199 9   4300472.88329       112.000
  21598795.985     1120173.979 9  -7848803.00228        98.000
  24308139.265     8959342.193 6   9227043.65923        32.000
  22348035.527     4484196.115 9   3567654.18328       108.000
 96  6 10 19  8 30.0010000  0  5G24G 4G 5G 7G 9
  20850568.722      -16235.326 9  -3918903.21529        94.000
  21770559.675     5174916.078 9   4327601.37129       112.000
  21593641.503     1093071.386 9  -7869921.88628       100.000
  24315256.818     8996686.120 6   9256142.77423        34.000
  22354165.623     4516421.068 9   3592764.54628       104.000
 96  6 10 19  8 45.0010000  0  5G24G 4G 5G 7G 9
  20850831.520      -14854.025 9  -3917826.90029        96.000
  21777208.682     5209825.670 9   4354803.62829       116.000
  21588493.407     1066033.720 9  -7890990.20628        98.000
  24322362.739     9034030.623 6   9285242.26023        32.000
  22360315.895     4548746.257 9   3617952.96328       104.000
 96  6 10 19  9  0.0010000  0  5G24G 4G 5G 7G 9
  20851120.190      -13340.035 9  -3916647.15729        98.000
  21783865.694     5244833.988 9   4382082.83229       122.000
  21583362.789     1039066.619 9  -7912003.54628        98.000
  24329477.863     9071379.383 6   9314345.20123        34.000
  22366485.474     4581176.027 9   3643222.89628        96.000
 96  6 10 19  9 15.0010000  0  5G24G 4G 5G 7G 9
  20851430.775      -11691.929 9  -3915362.92129        98.000
  21790547.138     5279943.236 9   4409440.68129       116.000
  21578246.891     1012172.389 9  -7932960.07128        98.000
  24336576.229     9108732.257 6   9343451.31923        36.000
  22372679.966     4613713.061 9   3668576.42128        92.000
 96  6 10 19  9 30.0010000  0  5G24G 4G 5G 7G 9
  20851771.369       -9912.475 9  -3913976.32229       100.000
  21797248.939     5315150.547 9   4436874.94529       118.000
  21573143.104      985352.027 9  -7953859.05828        98.000
  24343693.662     9146086.504 6   9372558.53423        32.000
  22378889.867     4646353.008 9   3694010.12427        98.000
 96  6 10 19  9 45.0010000  0  5G24G 4G 5G 7G 9
  20852139.244       -8002.282 9  -3912487.83529        98.000
  21803966.658     5350455.317 9   4464385.16329       118.000
  21568051.579      958610.092 9  -7974696.90728        94.000
  24350793.706     9183442.851 6   9401667.36223        32.000
  22385120.873     4679093.735 9   3719522.38027        98.000
 96  6 10 19 10  0.0010000  0  5G24G 4G 5G 7G 9
  20852520.161       -5967.898 9  -3910902.59029        92.000
  21810701.885     5385848.045 9   4491963.88629       122.000
  21562977.831      931938.691 9  -7995479.81528        94.000
  24357896.449     9220793.055 6   9430771.45723        30.000
  22391372.625     4711930.558 9   3745109.50927       108.000
 96  6 10 19 10 15.0010000  0  5G24G 4G 5G 7G 9
  20852932.585       -3803.908 9  -3909216.36929        92.000
  21817454.561     5421332.262 9   4519613.89229       118.000
  21557912.358      905342.973 9  -8016203.76828        96.000
  24365001.470     9258143.412 6   9459875.59822        30.000
  22397638.977     4744867.562 9   3770774.66327       104.000
 96  6 10 19 10 30.0010000  0  5G24G 4G 5G 7G 9
  20853371.391       -1507.099 9  -3907426.67229        90.000
  21824220.606     5456910.846 9   4547337.45629       118.000
  21552869.789      878828.514 9  -8036864.39028        96.000
  24372121.721     9295499.272 6   9488983.97022        32.000
  22403929.253     4777907.913 9   3796520.36027       108.000
 96  6 10 19 10 45.0010000  0  5G24G 4G 5G 7G 9
  20853831.303         918.516 9  -3905536.59929        86.000
  21831012.944     5492579.813 9   4575131.45629       122.000
  21547843.378      852392.005 9  -8057464.24128       100.000
  24379219.877     9332860.076 6   9518096.26222        30.000
  22410234.158     4811046.187 9   3822342.38927       110.000
 96  6 10 19 11  0.0010000  0  5G24G 4G 5G 7G 9
  20854318.586        3471.753 9  -3903547.04929        92.000
  21837817.424     5528339.932 9   4602996.46729       120.000
  21542823.624      826036.037 9  -8078001.37828        96.000
  24386336.291     9370227.648 6   9547213.91522        32.000
  22416557.500     4844283.089 9   3848241.26027       112.000
 96  6 10 19 11 15.0010000  0  5G24G 4G 5G 7G 9
  20854826.704        6148.672 9  -3901461.12129        94.000
  21844638.961     5564188.462 9   4630930.39329       122.000
  21537820.717      799757.343 9  -8098478.26028        92.000
  24393448.057     9407599.210 6   9576334.62622        30.000
  22422904.766     4877616.917 9   3874215.65427       114.000
 96  6 10 19 11 30.0010000  0  5G24G 4G 5G 7G 9
  20855366.390        8952.369 9  -3899276.41429       100.000
  21851477.647     5600127.213 9   4658934.61829       122.000
  21532838.676      773557.414 9  -8118893.78928        92.000
  24400564.681     9444977.020 6   9605460.15523        34.000
  22429262.555     4911049.253 9   3900266.81127       104.000
 96  6 10 19 11 45.0010000  0  5G24G 4G 5G 7G 9
  20855921.936       11884.812 9  -3896991.39429        98.000
  21858331.772     5636153.267 9   4687006.84929       122.000
  21527866.108      747435.739 9  -8139248.33228        90.000
  24407682.803     9482363.291 6   9634592.35823        36.000
  22435645.766     4944578.974 9   3926393.84727        94.000
 96  6 10 19 12  0.0010000  0  4G24G 4G 5G 9
  20856497.747       14944.086 9  -3894607.53429        94.000
  21865202.895     5672260.663 9   4715142.48929       124.000
  21522910.479      721387.129 9  -8159545.94228        90.000
  22442039.739     4978204.695 9   3952595.68227        84.000
 96  6 10 19 12 15.0010000  0  4G24G 4G 5G 9
  20857110.073       18136.812 9  -3892119.69729       100.000
  21872093.954     5708458.259 9   4743348.38529       126.000
  21517967.291      695415.238 9  -8179783.77528        92.000
  22448458.955     5011930.331 9   3978875.37227        84.000
 96  6 10 19 12 30.0010000  0  4G24G 4G 5G 9
  20857743.655       21462.959 9  -3889527.89929       102.000
  21879002.102     5744750.134 9   4771627.76229       126.000
  21513039.213      669524.670 9  -8199958.23628        88.000
  22454897.478     5045756.710 9   4005233.57827        88.000
 96  6 10 19 12 45.0010000  0  4G24G 4G 5G 9
  20858402.119       24922.048 9  -3886832.52529       104.000
  21885920.622     5781137.233 9   4799981.31729       116.000
  21508128.373      643713.186 9  -8220071.09428        94.000
  22461354.468     5079683.581 9   4031670.07427        92.000
 96  6 10 19 13  0.0010000  0  4G24G 4G 5G 9
  20859083.907       28508.164 9  -3884038.12629       104.000
  21892863.576     5817615.997 9   4828406.34329       118.000
  21503230.034      617975.017 9  -8240126.78428        92.000
  22467828.966     5113707.143 9   4058181.92327        90.000
 96  6 10 19 13 15.0010000  0  4G24G 4G 5G 9
  20859793.336       32220.342 9  -3881145.50329       108.000
  21899821.759     5854187.526 9   4856903.63829       118.000
  21498349.622      592311.904 9  -8260124.00729        90.000
  22474321.061     5147829.159 9   4084770.50227        92.000
 96  6 10 19 13 30.0010000  0  4G24G 4G 5G 9
  20860519.103       36059.835 9  -3878153.70129       104.000
  21906799.968     5890852.185 9   4885473.49529       116.000
  21493478.624      566725.090 9  -8280061.79529        98.000
  22480834.592     5182048.701 8   4111435.05327        78.000
 96  6 10 19 13 45.0010000  0  4G24G 4G 5G 9
  20861281.865       40032.296 9  -3875058.26129       106.000
  21913796.434     5927614.082 9   4914119.13529       118.000
  21488624.895      541223.072 9  -8299933.46829        98.000
  22487359.425     5216372.355 8   4138180.75627        68.000
 96  6 10 19 14  0.0010000  0  4G24G 4G 5G 9
  20862060.966       44132.592 9  -3871863.23129       110.000
  21920806.541     5964472.057 9   4942839.61629       108.000
  21483784.535      515806.560 9  -8319738.56829       100.000
  22493916.306     5250797.863 8   4165005.80527        76.000
 96  6 10 19 14 15.0010000  0  4G24G 4G 5G 9
  20862862.131       48357.438 9  -3868571.14329       110.000
  21927839.223     6001429.053 9   4971637.29429       106.000
  21478970.828      490475.809 9  -8339476.80129       106.000
  22500484.189     5285322.757 8   4191908.31827        66.000
 96  6 10 19 14 30.0010000  0  4G24G 4G 5G 9
  20863684.552       52702.107 9  -3865185.71229       106.000
  21934895.618     6038486.007 9   5000512.82229       114.000
  21474165.125      465232.677 9  -8359146.78229       104.000
  22507068.711     5319944.727 8   4218886.43527        68.000
 96  6 10 19 14 45.0010000  0  4G24G 4G 5G 9
  20864539.020       57167.941 9  -3861705.82629       102.000
  21941964.934     6075639.768 9   5029463.80429       118.000
  21469376.360      440078.691 9  -8378747.29929       102.000
  22513678.834     5354666.325 8   4245942.21527        70.000
 96  6 10 19 15  0.0010000  0  4G24G 4G 5G 9
  20865410.667       61757.538 9  -3858129.49229       100.000
  21949055.415     6112888.725 9   5058488.96329       120.000
  21464607.531      415011.371 9  -8398280.25329       104.000
  22520305.267     5389485.486 8   4273074.01028        72.000
 96  6 10 19 15 15.0010000  0  4G24G 4G 5G 9
  20866303.359       66469.456 9  -3854457.87629       100.000
  21956156.119     6150226.652 9   5087583.45129       116.000
  21459856.151      390030.014 9  -8417746.24929       104.000
  22526949.238     5424399.466 8   4300279.68328        74.000
 96  6 10 19 15 30.0010000  0  4G24G 4G 5G 9
  20867225.131       71304.737 9  -3850690.12729       100.000
  21963279.368     6187651.742 9   5116745.84829       120.000
  21455118.920      365136.707 9  -8437143.63429       100.000
  22533610.836     5459407.765 8   4327558.85928        74.000
 96  6 10 19 15 45.0010000  0  4G24G 4G 5G 9
  20868169.117       76262.865 9  -3846826.63629       102.000
  21970418.985     6225160.547 9   5145973.48929       126.000
  21450397.129      340328.681 9  -8456474.53429        96.000
  22540287.933     5494510.379 8   4354911.55328        74.000
 96  6 10 19 16  0.0010000  0  4G24G 4G 5G 9
  20869135.318       81348.129 9  -3842864.08429       102.000
  21977570.894     6262756.404 9   5175268.95529       120.000
  21445691.767      315605.711 9  -8475739.17229        92.000
  22546992.432     5529713.156 9   4382342.27928        84.000
 96  6 10 19 16 15.0010000  0  4G24G 4G 5G 9
  20870127.331       86545.878 9  -3838813.90829       100.000
  21984736.923     6300425.924 9   5204621.81129       114.000
  21441000.434      290950.000 9  -8494951.42129        94.000
  22553704.935     5564999.550 9   4409838.14928        84.000
 96  6 10 19 16 30.0010000  0  4G24G 4G 5G 9
  20871139.731       91867.850 9  -3834666.90329       100.000
  21991920.280     6338176.749 9   5234038.04329       116.000
  21436323.012      266367.461 9  -8514106.63729        98.000
  22560439.623     5600377.738 9   4437405.56128        84.000
 96  6 10 19 16 45.0010000  0  4G24G 4G 5G 9
  20872176.593       97314.304 9  -3830422.88929       106.000
  21999120.186     6376001.218 9   5263511.65829       118.000
  21431657.372      241855.520 9  -8533206.82329        94.000
  22567190.799     5635843.739 9   4465041.39228        86.000
 96  6 10 19 17  0.0010000  0  4G24G 4G 5G 9
  20873240.137      102889.994 9  -3826078.23729       112.000
  22006331.754     6413898.303 9   5293041.81429       114.000
  21427005.853      217410.401 9  -8552254.98229        96.000
  22573955.286     5671395.813 9   4492744.24828        88.000
 96  6 10 19 17 15.0010000  0  4G24G 4G 5G 9
  20874323.287      108594.996 9  -3821632.76229       112.000
  22013555.762     6451870.658 9   5322630.67029       110.000
  21422370.641      193034.565 9  -8571249.12529       100.000
  22580731.705     5707035.560 9   4520515.48528        84.000
 96  6 10 19 17 30.0010000  0  4G24G 4G 5G 9
  20875427.962      114420.310 9  -3817093.52929       114.000
  22020795.451     6489913.856 9   5352274.71829       110.000
  21417741.786      168724.094 9  -8590192.34829       104.000
  22587530.098     5742757.830 8   4548351.00228        80.000
 96  6 10 19 17 45.0010000  0  4G24G 4G 5G 9
  20876566.873      120375.620 9  -3812453.04529       118.000
  22028054.295     6528041.355 9   5381984.44829       116.000
  21413130.948      144487.699 9  -8609077.85429       102.000
  22594345.760     5778572.467 8   4576258.50628        82.000
 96  6 10 19 18  0.0010000  0  4G24G 4G 5G 9
  20877721.914      126462.607 9  -3807709.96529       110.000
  22035327.440     6566254.392 9   5411760.82429       120.000
  21408533.721      120324.402 9  -8627906.41629       104.000
  22601176.981     5814477.592 8   4604236.50628        82.000
 96  6 10 19 18 15.0010000  0  4G24G 4G 5G 9
  20878905.674      132682.089 9  -3802863.58029       108.000
  22042612.397     6604556.188 9   5441606.40029       118.000
  21403946.027       96239.541 9  -8646673.80029       102.000
  22608030.626     5850470.081 9   4632282.62128        84.000
 96  6 10 19 18 30.0010000  0  4G24G 4G 5G 9
  20880117.346      139029.248 9  -3797917.75429       112.000
  22049914.412     6642941.975 9   5471517.37229       112.000
  21399380.727       72234.685 9  -8665378.89129       100.000
  22614889.398     5886542.963 9   4660391.30328        88.000
 96  6 10 19 18 45.0010000  0  4G24G 4G 5G 9
  20881348.743      145505.606 9  -3792871.23129       116.000
  22057234.294     6681411.386 9   5501493.53629       112.000
  21394829.698       48314.655 9  -8684017.87829        98.000
  22621774.641     5922699.327 9   4688565.09828        90.000
 96  6 10 19 19  0.0010000  0  4G24G 4G 5G 9
  20882606.432      152116.301 9  -3787720.05629       114.000
  22064576.991     6719972.262 9   5531540.95129       110.000
  21390296.086       24488.394 9  -8702583.79529       100.000
  22628671.517     5958950.980 9   4716813.11128        88.000
 96  6 10 19 19 15.0010000  0  4G24G 4G 5G 9
  20883883.968      158846.839 9  -3782475.47929       108.000
  22071927.572     6758617.933 9   5561654.43729       106.000
  21385778.124         747.622 9  -8721083.10429       102.000
  22635588.808     5995291.201 9   4745130.13928        96.000
 96  6 10 19 19 30.0010000  0  4G24G 4G 5G 9
  20885189.834      165696.264 9  -3777138.26429       110.000
  22079299.739     6797350.713 9   5591835.81229       104.000
  21381276.021      -22901.637 9  -8739511.12629       102.000
  22642519.230     6031722.799 9   4773518.35827        94.000
 96  6 10 19 19 45.0010000  0  4G24G 4G 5G 9
  20886513.538      172669.547 9  -3771704.53429       108.000
  22086685.216     6836172.254 9   5622086.36029       104.000
  21376795.532      -46454.441 9  -8757863.94829       104.000
  22649470.968     6068249.767 9   4801980.91527        96.000
 96  6 10 19 20  0.0010000  0  4G24G 4G 5G 9
  20887867.850      179766.899 9  -3766174.11229       110.000
  22094092.668     6875078.752 9   5652403.13629       104.000
  21372331.922      -69913.425 9  -8776143.64729       102.000
  22656440.453     6104868.443 9   4830514.94427        98.000
 96  6 10 19 20 15.0010000  0  4G24G 4G 5G 9
  20889239.101      186991.842 9  -3760544.30829       108.000
  22101510.882     6914073.365 9   5682788.52129       102.000
  21367888.758      -93272.145 9  -8794345.27529       100.000
  22663429.484     6141583.671 9   4859124.15627        98.000
 96  6 10 19 20 30.0010000  0  4G24G 4G 5G 9
  20890636.883      194337.584 9  -3754820.36029       112.000
  22108948.913     6953152.870 9   5713240.04829       102.000
  21363457.556     -116535.333 9  -8812472.42929       100.000
  22670431.947     6178392.552 9   4887806.36527        98.000
 96  6 10 19 20 45.0010000  0  4G24G 4G 5G 9
  20892059.458      201797.017 9  -3749007.78129       114.000
  22116397.197     6992308.236 9   5743750.74329       104.000
  21359048.928     -139711.545 9  -8830531.79129        98.000
  22677453.596     6215293.804 9   4916560.57927        94.000
 96  6 10 19 21  0.0010000  0  4G24G 4G 5G 9
  20893500.591      209364.539 9  -3743111.01429       118.000
  22123863.558     7031534.739 9   5774316.84729       100.000
  21354653.431     -162808.800 9  -8848529.66429       102.000
  22684491.104     6252283.181 9   4945383.45027        94.000
 96  6 10 19 21 15.0010000  0  4G24G 4G 5G 9
  20894960.850      217039.904 9  -3737130.20929       116.000
  22131342.600     7070832.665 9   5804938.61729       100.000
  21350271.455     -185828.361 9  -8866466.96629        96.000
  22691550.586     6289358.718 9   4974273.48627        98.000
 96  6 10 19 21 30.0010000  0  5G24G 4G 5G 9G16
  20896444.043      224830.623 9  -3731059.52929       118.000
  22138835.403     7110205.451 9   5835618.69629       100.000
  21345908.455     -208762.297 9  -8884337.55529        96.000
  22698621.521     6326521.321 9   5003231.32127        92.000
  24645015.721    13732360.483 6  -3934578.31324        26.000
 96  6 10 19 21 45.0010000  0  5G24G 4G 5G 9G16
  20897949.241      232751.282 9  -3724887.59029       118.000
  22146342.836     7149663.733 9   5866365.40529        98.000
  21341560.865     -231598.130 9  -8902131.71729        94.000
  22705711.283     6363780.364 9   5032264.26727        92.000
  24636397.047    13687049.614 6  -3969885.47624        28.000
 96  6 10 19 22  0.0010000  0  5G24G 4G 5G 9G16
  20899483.159      240802.989 9  -3718613.52529       122.000
  22153867.926     7189208.179 9   5897179.25429       100.000
  21337237.138     -254337.358 9  -8919850.58329        96.000
  22712819.932     6401135.635 9   5061372.25027        88.000
  24627764.973    13641737.491 6  -4005193.59924        28.000
 96  6 10 19 22 15.0010000  0  5G24G 4G 5G 9G16
  20901038.152      248972.892 9  -3712247.36929       122.000
  22161408.156     7228830.179 9   5928053.52129        98.000
  21332922.855     -276989.785 9  -8937501.83129        94.000
  22719941.502     6438576.091 9   5090546.60027        84.000
  24619146.030    13596412.894 6  -4040511.44124        26.000
 96  6 10 19 22 30.0010000  0  5G24G 4G 5G 9G16
  20902613.622      257265.638 9  -3705785.46929       118.000
  22168964.695     7268536.545 9   5958993.56229       100.000
  21328630.127     -299548.535 9  -8955080.06029        98.000
  22727084.267     6476106.651 9   5119791.17727        88.000
  24610521.960    13551084.531 6  -4075832.30924        28.000
 96  6 10 19 22 45.0010000  0  5G24G 4G 5G 9G16
  20904213.974      265675.740 9  -3699232.11229       118.000
  22176536.553     7308320.195 9   5989993.81729       108.000
  21324355.266     -322018.598 9  -8972589.17829       102.000
  22734241.782     6513720.878 8   5149100.97527        82.000
  24601879.333    13505746.044 5  -4111160.91924        20.000
 96  6 10 19 23  0.0010000  0  5G24G 4G 5G 9G16
  20905838.639      274206.400 9  -3692584.85229       120.000
  22184119.713     7348180.102 9   6021053.47229       108.000
  21320098.123     -344397.521 9  -8990027.31529       104.000
  22741414.976     6551417.874 9   5178475.23727        84.000
  24593250.377    13460397.907 5  -4146497.07524        18.000
 96  6 10 19 23 15.0010000  0  5G24G 4G 5G 9G16
  20907486.358      282872.920 9  -3685831.74629       116.000
  22191724.909     7388132.986 9   6052185.55929       112.000
  21315858.308     -366670.021 9  -9007382.52929       106.000
  22748608.316     6589208.940 8   5207922.78327        78.000
  24584635.031    13415055.582 6  -4181828.77224        26.000
 96  6 10 19 23 30.0010000  0  5G24G 4G 5G 9G16
  20909157.461      291665.972 9  -3678980.04429       112.000
  22199343.354     7428169.885 9   6083383.13728       116.000
  21311643.856     -388842.335 9  -9024659.66229       110.000
  22755814.338     6627084.538 8   5237436.22227        76.000
  24576017.617    13369711.034 6  -4217162.14124        30.000
 96  6 10 19 23 45.0010000  0  5G24G 4G 5G 9G16
  20910856.146      300581.216 9  -3672033.07629       112.000
  22206976.580     7468287.103 9   6114643.29628       120.000
  21307441.275     -410919.484 9  -9041862.63829       110.000
  22763037.957     6665037.705 8   5267010.11227        68.000
  24567371.183    13324360.396 6  -4252500.26324        24.000
 96  6 10 19 24  0.0010000  0  5G24G 4G 5G 9G16
  20912572.967      309605.851 9  -3665000.88129       112.000
  22214625.275     7508476.857 9   6145959.98829       120.000
  21303254.764     -432915.358 9  -9059002.26329       102.000
  22770273.088     6703058.911 8   5296637.03327        68.000
  24558733.113    13278993.917 6  -4287850.72024        28.000
 96  6 10 19 24 15.0010000  0  5G24G 4G 5G 9G16
  20914313.502      318751.710 9  -3657874.25129       118.000
  22222289.289     7548751.932 9   6177343.14229       116.000
  21299083.541     -454818.789 9  -9076069.87729        98.000
  22777516.973     6741162.004 8   5326327.72227        64.000
  24550113.840    13233630.274 6  -4323198.99924        38.000
 96  6 10 19 24 30.0010000  0  5G24G 4G 5G 9G16
  20916080.749      328015.550 9  -3650655.68929       122.000
  22229966.285     7589106.780 9   6208788.45729       112.000
  21294932.795     -476633.948 9  -9093068.70329        96.000
  22784787.720     6779340.236 8   5356076.94327        68.000
  24541483.205    13188267.295 6  -4358546.75924        38.000
 96  6 10 19 24 45.0010000  0  5G24G 4G 5G 9G16
  20917864.784      337403.782 9  -3643340.17429       118.000
  22237662.077     7629541.623 9   6240296.12529       116.000
  21290800.396     -498358.372 9  -9109996.81829        96.000
  22792062.633     6817598.424 8   5385888.49027        66.000
  24532845.854    13142907.352 6  -4393892.14424        38.000
 96  6 10 19 25  0.0010000  0  5G24G 4G 5G 9G16
  20919675.440      346918.439 9  -3635926.12829       118.000
  22245369.531     7670056.219 9   6271865.96129       114.000
  21286684.665     -519989.817 9  -9126852.45729        96.000
  22799364.468     6855940.997 8   5415765.82027        74.000
  24524218.337    13097549.712 6  -4429235.69724        40.000
 96  6 10 19 25 15.0010000  0  5G24G 4G 5G 9G16
  20921507.772      356557.178 9  -3628415.43829       118.000
  22253093.174     7710647.840 9   6303495.76829       110.000
  21282584.463     -541532.236 9  -9143638.77129       100.000
  22806676.586     6894365.421 8   5445706.89927        76.000
  24515580.926    13052192.309 6  -4464579.12525        38.000
 96  6 10 19 25 30.0010000  0  5G24G 4G 5G 9G16
  20923365.376      366320.620 9  -3620807.55229       118.000
  22260834.925     7751315.620 9   6335184.95029       108.000
  21278503.239     -562983.599 9  -9160354.10729       104.000
  22814002.465     6932871.982 8   5475711.99627        80.000
  24506944.236    13006836.580 6  -4499921.21525        34.000
 96  6 10 19 25 45.0010000  0  5G24G 4G 5G 9G16
  20925247.263      376204.616 9  -3613105.73829       118.000
  22268588.307     7792052.685 9   6366928.09629       108.000
  21274437.903     -584349.362 9  -9177002.76129       106.000
  22821348.879     6971455.966 8   5505777.40927        82.000
  24498307.904    12961478.411 6  -4535265.22925        32.000
 96  6 10 19 26  0.0010000  0  5G24G 4G 5G 9G16
  20927152.054      386208.784 9  -3605310.29729       120.000
  22276352.392     7832856.650 9   6398723.37529       106.000
  21270389.836     -605632.414 9  -9193586.96429       108.000
  22828705.966     7010116.886 9   5535902.76327        84.000
  24489685.693    12916116.900 6  -4570611.86625        32.000
 96  6 10 19 26 15.0010000  0  5G24G 4G 5G 9G16
  20929078.251      396330.982 9  -3597422.85729       118.000
  22284129.758     7873723.007 9   6430567.29529       106.000
  21266352.381     -626832.095 9  -9210106.20229       106.000
  22836075.914     7048857.484 8   5566090.24727        80.000
  24481054.279    12870752.149 6  -4605961.02325        34.000
 96  6 10 19 26 30.0010000  0  5G24G 4G 5G 9G16
  20931026.962      406579.667 9  -3589436.86129       118.000
  22291917.916     7914653.077 9   6462460.83829       102.000
  21262335.611     -647942.093 9  -9226555.54229       104.000
  22843463.639     7087681.439 8   5596342.64127        80.000
  24472426.432    12825388.260 6  -4641309.44425        32.000
 96  6 10 19 26 45.0010000  0  5G24G 4G 5G 9G16
  20933002.684      416951.606 9  -3581354.81729       120.000
  22299713.689     7955643.358 9   6494401.34029        96.000
  21258334.132     -668963.882 9  -9242936.14729       100.000
  22850863.536     7126585.722 8   5626657.67927        76.000
  24463787.252    12780020.592 6  -4676660.81925        34.000
 96  6 10 19 27  0.0010000  0  5G24G 4G 5G 9G16
  20934996.154      427441.037 9  -3573181.24729       112.000
  22307525.172     7996692.026 9   6526387.30829        96.000
  21254352.738     -689898.295 9  -9259248.67329       102.000
  22858285.408     7165567.786 8   5657033.27827        76.000
  24455158.026    12734645.386 6  -4712018.08025        36.000
 96  6 10 19 27 15.0010000  0  5G24G 4G 5G 9G16
  20937009.890      438041.106 9  -3564921.43929       108.000
  22315350.474     8037797.607 9   6558417.65329        98.000
  21250383.186     -710749.285 9  -9275496.18729       102.000
  22865709.798     7204621.361 8   5687464.62327        70.000
  24446521.395    12689261.586 7  -4747382.01325        42.000
 96  6 10 19 27 30.0010000  0  5G24G 4G 5G 9G16
  20939052.346      448749.002 9  -3556577.63629       114.000
  22323182.672     8078960.064 9   6590492.24929        94.000
  21246430.632     -731519.497 9  -9291680.78729       106.000
  22873155.354     7243739.638 8   5717946.36627        72.000
  24437884.674    12643867.508 7  -4782754.01825        46.000
 96  6 10 19 27 45.0010000  0  5G24G 4G 5G 9G16
  20941110.541      459567.252 9  -3548147.82029       114.000
  22331025.992     8120184.398 9   6622615.11829        94.000
  21242497.025     -752203.048 9  -9307797.82829       104.000
  22880617.218     7282925.975 8   5748481.15027        76.000
  24429250.742    12598466.066 7  -4818131.78025        44.000
 96  6 10 19 28  0.0010000  0  5G24G 4G 5G 9G16
  20943192.450      470504.044 9  -3539625.68129       112.000
  22338885.441     8161483.408 9   6654796.14529        92.000
  21238579.697     -772789.756 9  -9323839.45229       106.000
  22888086.517     7322191.492 8   5779077.62327        74.000
  24420607.515    12553067.176 7  -4853507.54925        44.000
 96  6 10 19 28 15.0010000  0  5G24G 4G 5G 9G16
  20945292.676      481543.934 9  -3531023.12929       108.000
  22346758.801     8202843.916 9   6687025.13629        96.000
  21234675.740     -793291.223 9  -9339814.58329       106.000
  22895577.162     7361523.957 8   5809726.29127        80.000
  24411967.916    12507658.764 7  -4888890.64825        44.000
 96  6 10 19 28 30.0010000  0  5G24G 4G 5G 9G16
  20947411.938      492691.936 9  -3522336.38629       110.000
  22354643.612     8244271.852 9   6719306.62329       100.000
  21230792.558     -813701.910 9  -9355719.02829       100.000
  22903074.491     7400926.400 9   5840429.48927        84.000
  24403328.347    12462246.088 7  -4924277.09725        48.000
 96  6 10 19 28 45.0010000  0  5G24G 4G 5G 9G16
  20949559.592      503944.339 9  -3513568.26529       110.000
  22362536.818     8285765.984 9   6751639.70629       102.000
  21226928.083     -834025.344 9  -9371555.46629        98.000
  22910582.734     7440391.178 9   5871181.24627        84.000
  24394681.793    12416827.014 7  -4959668.55225        50.000
 96  6 10 19 29  0.0010000  0  5G24G 4G 5G 9G16
  20951715.909      515296.034 9  -3504722.80929       110.000
  22370443.424     8327325.519 9   6784023.73829        98.000
  21223073.262     -854260.931 9  -9387323.45329        92.000
  22918105.726     7479918.354 9   5901981.61627        84.000
  24386039.136    12371401.514 7  -4995065.04425        52.000
 96  6 10 19 29 15.0010000  0  5G24G 4G 5G 9G16
  20953894.231      526743.901 9  -3495802.38429       112.000
  22378363.881     8368949.435 9   6816457.96229        98.000
  21219236.488     -874413.278 9  -9403026.57629        90.000
  22925637.142     7519504.666 8   5932828.07027        82.000
  24377385.537    12325966.807 7  -5030468.67525        46.000
 96  6 10 19 29 30.0010000  0  5G24G 4G 5G 9G16
  20956092.489      538294.307 9  -3486802.07829       112.000
  22386299.927     8410639.297 9   6848943.54029       102.000
  21215419.501     -894480.077 9  -9418663.04829        92.000
  22933181.209     7559153.314 9   5963723.06827        84.000
  24368745.968    12280526.086 7  -5065877.00825        44.000
 96  6 10 19 29 45.0010000  0  5G24G 4G 5G 9G16
  20958305.617      549942.333 9  -3477725.67329       110.000
  22394244.307     8452387.193 9   6881474.38929       104.000
  21211617.773     -914465.850 9  -9434236.35229        94.000
  22940738.887     7598860.056 8   5994663.39127        82.000
  24360096.656    12235074.635 7  -5101293.65425        46.000
 96  6 10 19 30  0.0010000  0  5G24G 4G 5G 9G16
  20960547.585      561684.310 9  -3468576.08329       110.000
  22402198.701     8494188.689 9   6914046.94129       102.000
  21207828.066     -934374.700 9  -9449749.75829        98.000
  22948305.469     7638627.181 9   6025650.71727        84.000
  24351442.157    12189611.724 7  -5136719.28025        48.000
 96  6 10 19 30 15.0010000  0  5G24G 4G 5G 9G16
  20962796.568      573527.681 9  -3459347.48029       106.000
  22410158.160     8536049.744 9   6946665.94729       100.000
  21204058.536     -954201.102 9  -9465198.90129       100.000
  22955887.999     7678460.006 8   6056689.26127        82.000
  24342790.327    12144145.846 7  -5172147.20025        56.000
 96  6 10 19 30 30.0010000  0  5G24G 4G 5G 9G16
  20965068.845      585473.314 9  -3450039.18829       108.000
  22418142.503     8577967.535 9   6979329.16129       104.000
  21200296.020     -973947.797 9  -9480585.93329        98.000
  22963477.365     7718353.982 8   6087775.46527        76.000
  24334136.908    12098675.623 7  -5207578.48725        56.000
 96  6 10 19 30 45.0010000  0  5G24G 4G 5G 9G16
  20967364.056      597524.083 9  -3440648.98729       108.000
  22426128.464     8619943.030 9   7012037.31929       104.000
  21196555.840     -993615.297 9  -9495911.24829       100.000
  22971074.886     7758306.992 8   6118907.64526        70.000
  24325485.707    12053200.767 7  -5243013.43825        56.000
 96  6 10 19 31  0.0010000  0  5G24G 4G 5G 9G16
  20969673.537      609681.094 9  -3431175.99029       104.000
  22434126.507     8661977.534 9   7044791.46328       100.000
  21192825.882    -1013199.503 9  -9511171.67629        96.000
  22978690.933     7798323.685 8   6150089.43626        72.000
  24316829.379    12007722.417 7  -5278451.07025        60.000
 96  6 10 19 31 15.0010000  0  5G24G 4G 5G 9G16
  20972008.980      621941.057 9  -3421622.77629       106.000
  22442133.334     8704069.497 9   7077590.38228       100.000
  21189115.351    -1032702.869 9  -9526369.10629        98.000
  22986317.653     7838400.821 8   6181318.36126        68.000
  24308175.001    11962235.597 8  -5313895.29725        64.000
 96  6 10 19 31 30.0010000  0  5G24G 4G 5G 9G16
  20974360.792      634305.748 9  -3411987.94829       110.000
  22450154.941     8746217.184 9   7110432.72328       100.000
  21185422.417    -1052124.402 9  -9541502.77629        96.000
  22993954.866     7878539.343 8   6212595.13426        68.000
  24299515.825    11916741.526 7  -5349345.19025        56.000
 96  6 10 19 31 45.0010000  0  5G24G 4G 5G 9G16
  20976734.339      646781.275 9  -3402266.74629       108.000
  22458190.278     8788423.698 9   7143320.92128       102.000
  21181739.527    -1071455.343 9  -9556565.84029        94.000
  23001609.947     7918748.101 8   6243926.60726        70.000
  24290861.027    11871247.580 7  -5384794.97825        60.000
 96  6 10 19 32  0.0010000  0  5G24G 4G 5G 9G16
  20979130.370      659353.324 9  -3392470.34029       108.000
  22466230.083     8830677.412 9   7176245.89228        96.000
  21178079.840    -1090707.798 9  -9571567.74129        96.000
  23009275.430     7959013.984 8   6275302.58926        76.000
  24282201.851    11825742.303 8  -5420253.58225        64.000
 96  6 10 19 32 15.0010000  0  5G24G 4G 5G 9G16
  20981542.560      672029.917 9  -3382592.46429       108.000
  22474279.000     8872985.666 9   7209213.35228        92.000
  21174436.493    -1109874.300 9  -9586502.66429        96.000
  23016947.119     7999339.195 8   6306724.82326        74.000
  24273539.139    11780232.221 7  -5455715.95725        62.000
 96  6 10 19 32 30.0010000  0  5G24G 4G 5G 9G16
  20983975.826      684810.753 9  -3372633.38129       114.000
  22482341.529     8915346.311 9   7242221.60428        96.000
  21170801.419    -1128954.844 9  -9601370.62229        98.000
  23024635.297     8039719.380 8   6338189.85026        72.000
  24264883.321    11734716.513 7  -5491182.71125        62.000
 96  6 10 19 32 45.0010000  0  5G24G 4G 5G 9G16
  20986426.839      697704.441 9  -3362586.35029       114.000
  22490416.649     8957767.017 9   7275276.69228        98.000
  21167191.618    -1147939.022 9  -9616163.49529        98.000
  23032328.691     8080166.411 8   6369706.96226        68.000
  24256218.629    11689204.039 7  -5526646.95625        58.000
 96  6 10 19 33  0.0010000  0  5G24G 4G 5G 9G16
  20988897.489      710695.449 9  -3352463.50029       112.000
  22498492.548     9000235.482 9   7308368.96328        92.000
  21163590.601    -1166836.098 9  -9630888.50229        98.000
  23040035.515     8120671.684 8   6401269.46926        68.000
  24247553.638    11643683.629 7  -5562117.39925        56.000
 96  6 10 19 33 15.0010000  0  5G24G 4G 5G 9G16
  20991387.925      723789.683 9  -3342260.20929       112.000
  22506587.724     9042760.647 9   7341505.44328        88.000
  21160015.366    -1185636.697 9  -9645538.31829       100.000
  23047758.589     8161246.569 8   6432886.23826        68.000
  24238892.634    11598167.472 7  -5597584.50926        54.000
 96  6 10 19 33 30.0010000  0  5G24G 4G 5G 9G16
  20993900.995      736992.378 9  -3331972.39129       110.000
  22514688.925     9085344.276 9   7374687.47328        84.000
  21156456.740    -1204340.453 9  -9660112.66629       102.000
  23055491.495     8201892.009 8   6464557.98426        70.000
  24230235.137    11552661.359 7  -5633043.74926        54.000
 96  6 10 19 33 45.0010000  0  5G24G 4G 5G 9G16
  20996435.980      750305.832 9  -3321598.23929       110.000
  22522804.007     9127984.991 8   7407914.03728        80.000
  21152913.763    -1222948.162 9  -9674612.14729       100.000
  23063236.604     8242607.706 8   6496284.53326        68.000
  24221577.191    11507166.083 7  -5668494.56026        60.000
 96  6 10 19 34  0.0010000  0  5G24G 4G 5G 9G16
  20998990.721      763729.197 9  -3311138.48029       108.000
  22530927.513     9170683.291 8   7441185.41328        78.000
  21149395.098    -1241462.509 9  -9689038.91829       102.000
  23070996.372     8283387.289 8   6528060.80326        70.000
  24212920.984    11461679.708 7  -5703938.49626        62.000
 96  6 10 19 34 15.0010000  0  5G24G 4G 5G 9G16
  21001564.739      777257.502 9  -3300596.95429       110.000
  22539064.600     9213436.970 8   7474499.95928        76.000
  21145887.017    -1259884.157 9  -9703393.45429       102.000
  23078767.532     8324225.263 8   6559882.56626        68.000
  24204268.284    11416200.861 8  -5739376.53826        66.000
 96  6 10 19 34 30.0010000  0  5G24G 4G 5G 9G16
  21004160.702      790895.769 9  -3289969.73329       114.000
  22547206.903     9256247.408 8   7507858.74828        76.000
  21142400.341    -1278207.712 9  -9717671.54529       102.000
  23086554.551     8365128.460 8   6591755.14926        74.000
  24195617.772    11370733.064 8  -5774805.96926        64.000
 96  6 10 19 34 45.0010000  0  5G24G 4G 5G 9G16
  21006775.852      804639.556 9  -3279260.28829       116.000
  22555371.271     9299112.627 8   7541260.22828        78.000
  21138930.483    -1296433.937 9  -9731873.79129       104.000
  23094351.103     8406099.096 8   6623680.27426        70.000
  24186965.312    11325272.476 7  -5810229.74626        60.000
 96  6 10 19 35  0.0010000  0  5G24G 4G 5G 9G16
  21009410.338      818488.972 9  -3268468.51229       118.000
  22563535.340     9342035.395 8   7574706.55228        78.000
  21135482.810    -1314559.056 9  -9745997.25029       106.000
  23102159.198     8447137.945 8   6655658.58126        66.000
  24178312.642    11279820.470 7  -5845646.84226        60.000
 96  6 10 19 35 15.0010000  0  5G24G 4G 5G 9G16
  21012069.197      832449.787 9  -3257589.95829       118.000
  22571715.956     9385019.866 8   7608200.92628        82.000
  21132054.113    -1332578.224 9  -9760038.15529       106.000
  23109975.687     8488245.653 8   6687690.53726        64.000
  24169662.401    11234384.046 7  -5881051.81726        54.000
 96  6 10 19 35 30.0010000  0  5G24G 4G 5G 9G16
  21014745.235      846523.105 9  -3246623.74429       114.000
  22579906.646     9428062.580 9   7641740.70728        88.000
  21128642.895    -1350492.163 9  -9773997.08129       106.000
  23117817.448     8529415.946 8   6719771.22026        64.000
  24161019.834    11188960.118 7  -5916447.09226        56.000
 96  6 10 19 35 45.0010000  0  5G24G 4G 5G 9G16
  21017446.515      860713.066 9  -3235566.64029       112.000
  22588112.385     9471164.475 9   7675326.57329        94.000
  21125256.169    -1368294.400 9  -9787868.96029       106.000
  23125662.387     8570649.757 7   6751901.45926        62.000
  24152385.841    11143550.934 7  -5951830.84126        58.000
 96  6 10 19 36  0.0010000  0  5G24G 4G 5G 9G16
  21020167.881      875016.020 9  -3224421.46029       112.000
  22596322.142     9514326.312 9   7708959.19329        98.000
  21121891.449    -1385982.852 9  -9801652.15629       104.000
  23133521.476     8611948.827 8   6784082.53326        64.000
  24143741.086    11098158.673 7  -5987201.40326        58.000
 96  6 10 19 36 15.0010000  0  5G24G 4G 5G 9G16
  21022906.725      889421.594 9  -3213196.35629       114.000
  22604544.879     9557539.946 9   7742632.12529        98.000
  21118545.525    -1403563.842 9  -9815351.63429       104.000
  23141394.716     8653308.661 8   6816310.94426        66.000
  24135109.611    11052778.795 7  -6022562.33426        58.000
 96  6 10 19 36 30.0010000  0  5G24G 4G 5G 9G16
  21025669.972      903940.784 9  -3201882.69429       114.000
  22612780.808     9600814.935 9   7776352.90628       100.000
  21115221.336    -1421029.374 9  -9828961.13429       104.000
  23149272.122     8694741.335 8   6848596.13526        66.000
  24126476.998    11007420.443 7  -6057906.43626        56.000
 96  6 10 19 36 45.0010000  0  5G24G 4G 5G 9G16
  21028455.103      918573.867 9  -3190480.30829       114.000
  22621028.638     9644151.257 9   7810121.44628        98.000
  21111916.484    -1438384.843 9  -9842484.88529       102.000
  23157175.191     8736242.295 8   6880934.52026        70.000
  24117848.971    10962082.683 7  -6093234.52726        62.000
 96  6 10 19 37  0.0010000  0  5G24G 4G 5G 9G16
  21031262.000      933319.216 9  -3178990.43529       116.000
  22629283.363     9687549.905 9   7843938.54628        96.000
  21108636.815    -1455633.779 9  -9855925.62829       102.000
  23165085.845     8777806.136 8   6913321.87726        70.000
  24109227.479    10916768.717 7  -6128544.08326        62.000
 96  6 10 19 37 15.0010000  0  5G24G 4G 5G 9G16
  21034093.780      948184.824 9  -3167406.84029       122.000
  22637559.284     9731016.614 9   7877808.70928        96.000
  21105376.272    -1472772.016 9  -9869280.10029       102.000
  23173005.432     8819435.704 8   6945760.46426        68.000
  24100613.752    10871486.900 7  -6163828.59326        54.000
 96  6 10 19 37 30.0010000  0  5G24G 4G 5G 9G16
  21036941.419      963169.947 9  -3155730.09829       120.000
  22645846.267     9774550.050 9   7911730.87128        96.000
  21102133.567    -1489803.418 9  -9882551.29629       102.000
  23180940.789     8861132.557 7   6978251.50926        62.000
  24092005.482    10826235.521 7  -6199089.37125        56.000
 96  6 10 19 37 45.0010000  0  5G24G 4G 5G 9G16
  21039818.227      978268.598 9  -3143964.92529       124.000
  22654139.066     9818147.027 9   7945702.51028        94.000
  21098914.845    -1506735.282 9  -9895744.97529       104.000
  23188888.527     8902893.851 7   7010792.74426        60.000
  24083391.995    10781007.812 7  -6234331.73725        52.000
 96  6 10 19 38  0.0010000  0  5G24G 4G 5G 9G16
  21042712.813      993484.995 9  -3132108.00329       126.000
  22662447.844     9861814.732 9   7979729.26228        94.000
  21095707.456    -1523565.637 9  -9908859.54129       102.000
  23196848.706     8944727.949 7   7043390.70526        60.000
  24074788.940    10735807.864 7  -6269552.46525        50.000
 96  6 10 19 38 15.0010000  0  5G24G 4G 5G 9G16
  21045628.385     1008818.445 9  -3120159.86529       128.000
  22670770.592     9905553.716 9   8013811.54328        96.000
  21092527.677    -1540298.369 9  -9921898.02729       104.000
  23204818.089     8986635.386 7   7076045.83526        48.000
  24066198.957    10690630.504 7  -6304755.57725        54.000
 96  6 10 19 38 30.0010000  0  5G24G 4G 5G 9G16
  21048569.798     1024277.214 9  -3108114.06229       126.000
  22679111.268     9949369.679 9   8047953.86428        98.000
  21089360.729    -1556927.649 9  -9934855.88429       100.000
  23212808.067     9028617.469 7   7108759.13126        46.000
  24057604.867    10645479.729 7  -6339937.97425        50.000
 96  6 10 19 38 45.0010000  0  5G24G 4G 5G 9G16
  21051534.926     1039858.776 9  -3095972.60129       118.000
  22687463.846     9993261.824 9   8082155.52028       100.000
  21086214.737    -1573453.726 9  -9947733.35429       100.000
  23220808.389     9070669.004 7   7141526.50926        50.000
  24049017.102    10600351.530 7  -6375102.76226        60.000
 96  6 10 19 39  0.0010000  0  5G24G 4G 5G 9G16
  21054523.766     1055560.083 9  -3083737.80629       116.000
  22695828.475    10037225.509 9   8116412.92627        96.000
  21083090.270    -1589875.172 9  -9960529.28029       102.000
  23228831.015     9112788.883 7   7174347.18726        60.000
  24040435.003    10555244.128 7  -6410251.35026        62.000
 96  6 10 19 39 15.0010000  0  5G24G 4G 5G 9G16
  21057535.631     1071375.257 9  -3071414.30329       122.000
  22704205.815    10081254.049 9   8150720.85927        88.000
  21079982.652    -1606193.140 9  -9973244.59129       100.000
  23236857.748     9154976.878 8   7207220.92326        66.000
  24031849.637    10510149.705 7  -6445389.86126        58.000
 96  6 10 19 39 30.0010000  0  5G24G 4G 5G 9G16
  21060565.844     1087306.709 9  -3059000.19429       120.000
  22712599.045    10125347.776 9   8185079.59427        88.000
  21076899.856    -1622400.823 9  -9985873.95529       102.000
  23244897.342     9197238.879 8   7240152.30626        68.000
  24023274.673    10465067.517 7  -6480518.81926        56.000
 96  6 10 19 39 45.0010000  0  6G24G 6G 4G 5G 9G16
  21063618.211     1103356.091 9  -3046494.19029       116.000
  24909144.838    -9657891.740 6  -2584711.13225        30.000
  22721002.827    10169505.574 9   8219488.26127        88.000
  21073837.626    -1638495.767 9  -9998415.46829       106.000
  23252956.453     9239576.803 8   7273142.86326        72.000
  24014695.572    10419999.540 7  -6515636.71626        56.000
 96  6 10 19 40  0.0010000  0  6G24G 6G 4G 5G 9G16
  21066695.730     1119519.106 9  -3033899.62929       118.000
  24903059.711    -9689866.547 6  -2609626.56625        28.000
  22729414.194    10213723.144 9   8253943.49827        86.000
  21070800.159    -1654478.309 9 -10010869.39029       110.000
  23261025.307     9281982.573 8   7306186.28326        66.000
  24006124.926    10374945.447 7  -6550743.75326        56.000
 96  6 10 19 40 15.0010000  0  6G24G 6G 4G 5G 9G16
  21069791.357     1135794.790 9  -3021217.28029       116.000
  24896979.770    -9721823.525 6  -2634528.07825        26.000
  22737841.690    10257999.238 8   8288444.32827        82.000
  21067779.690    -1670346.931 9 -10023234.55229       114.000
  23269107.082     9324455.743 8   7339282.25627        66.000
  23997555.538    10329908.961 7  -6585837.08926        54.000
 96  6 10 19 40 30.0010000  0  6G24G 6G 4G 5G 9G16
  21072909.498     1152180.058 9  -3008449.53629       112.000
  24890908.313    -9753765.228 6  -2659417.63025        22.000
  22746273.982    10302330.337 8   8322988.05727        80.000
  21064781.705    -1686100.050 9 -10035509.70029       114.000
  23277200.609     9366989.817 8   7372425.68327        68.000
  23988990.318    10284892.847 7  -6620914.53326        58.000
 96  6 10 19 40 45.0010000  0  6G24G 6G 4G 5G 9G16
  21076047.306     1168680.984 9  -2995591.69229       114.000
  24884838.954    -9785688.570 5  -2684292.95025        20.000
  22754722.134    10346719.583 8   8357577.05828        78.000
  21061808.423    -1701730.195 9 -10047689.04429       114.000
  23285306.548     9409588.324 8   7405619.29926        70.000
  23980423.418    10239906.417 7  -6655968.88326        52.000
 96  6 10 19 41  0.0010000  0  6G24G 6G 4G 5G 9G16
  21079210.476     1185295.671 9  -2982645.15929       118.000
  24878747.172    -9817599.758 6  -2709158.76025        22.000
  22763179.968    10391162.424 8   8392207.85128        80.000
  21058855.228    -1717239.030 9 -10059773.83829       114.000
  23293428.195     9452252.666 8   7438864.20326        70.000
  23971865.573    10194948.851 7  -6691000.72226        54.000
 96  6 10 19 41 15.0010000  0  6G24G 6G 4G 5G 9G16
  21082396.251     1202031.536 9  -2969604.23629       120.000
  24872689.116    -9849495.041 6  -2734012.18225        28.000
  22771647.786    10435664.389 8   8426884.70228        80.000
  21055926.465    -1732623.498 9 -10071761.73829       112.000
  23301559.556     9494990.179 8   7472166.13826        70.000
  23963316.061    10150029.487 7  -6726002.82826        52.000
 96  6 10 19 41 30.0010000  0  6G24G 6G 4G 5G 9G16
  21085605.529     1218885.973 9  -2956470.91729       122.000
  24866625.064    -9881377.539 6  -2758855.67525        28.000
  22780129.754    10480225.745 8   8461607.84328        80.000
  21053022.856    -1747886.783 9 -10083655.20529       114.000
  23309709.294     9537797.118 8   7505522.16426        70.000
  23954774.375    10105150.287 7  -6760973.58526        52.000
 96  6 10 19 41 45.0010000  0  6G24G 6G 4G 5G 9G16
  21088832.285     1235856.684 9  -2943246.98529       118.000
  24860536.579    -9913249.573 6  -2783690.91325        24.000
  22788616.729    10524844.588 8   8496375.75828        82.000
  21050140.531    -1763033.904 9 -10095458.16729       114.000
  23317862.540     9580664.759 8   7538925.48326        64.000
  23946249.506    10060311.913 7  -6795912.54626        54.000
 96  6 10 19 42  0.0010000  0  6G24G 6G 4G 5G 9G16
  21092084.674     1252939.456 9  -2929935.72929       118.000
  24854491.833    -9945116.901 6  -2808522.48224        28.000
  22797122.980    10569520.009 9   8531187.75828        88.000
  21047282.430    -1778071.491 9 -10107175.76829       114.000
  23326029.456     9623585.087 8   7572369.85226        64.000
  23937721.790    10015511.999 7  -6830821.52926        52.000
 96  6 10 19 42 15.0010000  0  6G24G 6G 4G 5G 9G16
  21095356.039     1270135.782 9  -2916535.99029       120.000
  24848426.372    -9976976.676 6  -2833348.24824        28.000
  22805635.197    10614259.528 9   8566049.70628        90.000
  21044438.928    -1792994.646 9 -10118804.18829       110.000
  23334209.143     9666565.502 7   7605861.05826        58.000
  23929205.436     9970753.966 7  -6865697.87326        56.000
 96  6 10 19 42 30.0010000  0  6G24G 6G 4G 5G 9G16
  21098650.848     1287450.004 9  -2903044.38829       116.000
  24842359.293   -10008823.955 6  -2858164.33524        26.000
  22814160.425    10659066.893 9   8600964.54428        88.000
  21041624.656    -1807799.010 9 -10130340.05529       110.000
  23342395.576     9709610.885 7   7639402.90526        56.000
  23920704.401     9926037.435 8  -6900541.89126        64.000
 96  6 10 19 42 45.0010000  0  6G24G 6G 4G 5G 9G16
  21101969.041     1304880.937 9  -2889461.85829       118.000
  24836311.639   -10040662.046 6  -2882973.22024        24.000
  22822696.416    10703938.748 9   8635929.61028        90.000
  21038826.064    -1822488.694 9 -10141786.58229       106.000
  23350600.476     9752716.875 7   7672991.94526        62.000
  23912196.021     9881359.370 8  -6935355.93626        64.000
 96  6 10 19 43  0.0010000  0  6G24G 6G 4G 5G 9G16
  21105308.819     1322429.993 9  -2875787.29929       118.000
  24830243.780   -10072491.072 6  -2907775.06424        28.000
  22831253.182    10748877.693 9   8670946.92628        98.000
  21036050.195    -1837064.063 9 -10153144.00629       102.000
  23358816.168     9795885.986 8   7706630.16726        68.000
  23903702.241     9836719.358 7  -6970140.38426        54.000
 96  6 10 19 43 15.0010000  0  6G24G 6G 4G 5G 9G16
  21108667.603     1340095.474 9  -2862021.95829       114.000
  24824189.891   -10104307.976 6  -2932567.37224        30.000
  22839817.833    10793887.586 9   8706019.60828        98.000
  21033300.169    -1851526.075 9 -10164413.07929       104.000
  23367044.811     9839117.248 8   7740316.88926        76.000
  23895211.819     9792118.718 7  -7004894.05526        52.000
 96  6 10 19 43 30.0010000  0  6G24G 6G 4G 5G 9G16
  21112051.631     1357872.600 9  -2848169.65929       112.000
  24818142.747   -10136111.826 6  -2957349.55424        32.000
  22848397.354    10838967.771 9   8741147.00128        98.000
  21030573.947    -1865874.784 9 -10175593.90429       102.000
  23375281.250     9882405.510 8   7774047.93926        78.000
  23886731.770     9747554.634 7  -7039619.26926        54.000
 96  6 10 19 43 45.0010000  0  6G24G 6G 4G 5G 9G16
  21115454.155     1375743.790 9  -2834244.05629       110.000
  24812092.696   -10167916.730 6  -2982132.60624        36.000
  22856988.146    10884103.225 9   8776317.46628        98.000
  21027861.245    -1880122.682 9 -10186696.17429       102.000
  23383523.833     9925733.937 8   7807810.33926        76.000
  23878256.997     9703011.355 7  -7074328.30225        54.000
 96  6 10 19 44  0.0010000  0  6G24G 6G 4G 5G 9G16
  21118875.267     1393728.294 9  -2820230.15629       112.000
  24806044.263   -10199702.894 6  -3006900.98424        38.000
  22865589.732    10929313.150 9   8811545.97028        98.000
  21025172.766    -1894248.070 9 -10197702.95129        98.000
  23391783.535     9969124.130 8   7841620.82626        74.000
  23869791.277     9658505.567 7  -7109008.08125        56.000
 96  6 10 19 44 15.0010000  0  6G24G 6G 4G 5G 9G16
  21122317.964     1411817.012 9  -2806135.06629       112.000
  24799998.768   -10231478.300 7  -3031661.05424        42.000
  22874206.127    10974590.391 9   8846826.91828       100.000
  21022503.054    -1908256.672 9 -10208618.75529        94.000
  23400054.240    10012573.488 8   7875477.43326        68.000
  23861326.697     9614031.893 7  -7143662.86225        54.000
 96  6 10 19 44 30.0010000  0  6G24G 6G 4G 5G 9G16
  21125780.656     1430009.768 9  -2791958.89929       110.000
  24793950.155   -10263245.168 6  -3056414.43524        40.000
  22882831.425    11019930.275 9   8882156.67028        98.000
  21019863.321    -1922146.799 9 -10219442.23829        98.000
  23408334.327    10056082.257 8   7909380.31826        70.000
  23852863.916     9569590.844 7  -7178292.22825        50.000
 96  6 10 19 44 45.0010000  0  6G24G 6G 4G 5G 9G16
  21129259.418     1448312.217 9  -2777697.24029       112.000
  24787912.365   -10295003.830 6  -3081161.36324        38.000
  22891469.675    11065331.425 9   8917534.17127        96.000
  21017240.197    -1935917.055 9 -10230172.28729        94.000
  23416623.379    10099649.429 8   7943328.73726        70.000
  23844413.456     9525187.277 7  -7212892.35525        44.000
 96  6 10 19 45  0.0010000  0  6G24G 6G 4G 5G 9G16
  21132767.769     1466723.712 9  -2763350.63929       114.000
  24781873.046   -10326756.444 6  -3105903.66324        40.000
  22900124.504    11110791.296 9   8952957.43627        94.000
  21014642.076    -1949566.267 9 -10240808.04529        94.000
  23424922.743    10143276.353 8   7977323.67926        66.000
  23835970.611     9480822.033 7  -7247462.65825        46.000
 96  6 10 19 45 15.0010000  0  6G24G 6G 4G 5G 9G16
  21136290.930     1485244.566 9  -2748918.79729       110.000
  24775826.112   -10358499.191 7  -3130638.28824        42.000
  22908784.369    11156312.395 9   8988428.42927        90.000
  21012068.538    -1963090.853 9 -10251346.67229       100.000
  23433240.665    10186967.087 8   8011368.38626        64.000
  23827540.507     9436495.323 7  -7282002.93125        52.000
 96  6 10 19 45 30.0010000  0  6G24G 6G 4G 5G 9G16
  21139836.426     1503876.583 9  -2734400.35029       110.000
  24769798.066   -10390227.665 7  -3155361.75124        48.000
  22917457.634    11201893.889 9   9023946.43727        88.000
  21009523.899    -1976487.254 9 -10261785.44129       106.000
  23441569.379    10230725.557 8   8045465.85226        68.000
  23819110.403     9392208.645 7  -7316512.02525        54.000
 96  6 10 19 45 45.0010000  0  6G24G 6G 4G 5G 9G16
  21143405.095     1522629.273 9  -2719787.86429       114.000
  24763751.372   -10421933.049 7  -3180067.19824        44.000
  22926141.273    11247542.923 9   9059517.11827        86.000
  21006996.829    -1989745.142 9 -10272116.25729       106.000
  23449910.775    10274563.694 8   8079625.37226        68.000
  23810694.629     9347971.528 7  -7350982.47225        50.000
 96  6 10 19 46  0.0010000  0  6G24G 6G 4G 5G 9G16
  21146996.759     1541496.406 9  -2705086.19329       114.000
  24757727.492   -10453625.730 7  -3204762.72424        46.000
  22934840.380    11293247.687 9   9095131.21827        86.000
  21004499.258    -2002877.407 9 -10282349.18129       104.000
  23458266.500    10318474.065 8   8113841.23026        64.000
  23802283.952     9303774.020 7  -7385422.02325        58.000
 96  6 10 19 46 15.0010000  0  6G24G 6G 4G 5G 9G16
  21150605.151     1560473.800 9  -2690298.61229       118.000
  24751702.023   -10485313.623 7  -3229454.63924        46.000
  22943556.456    11338998.113 9   9130780.88227        88.000
  21002023.062    -2015893.610 9 -10292491.67629       102.000
  23466634.997    10362450.155 8   8148108.28926        66.000
  23793877.411     9259608.310 7  -7419836.85325        56.000
 96  6 10 19 46 30.0010000  0  6G24G 6G 4G 5G 9G16
  21154239.954     1579566.262 9  -2675421.38429       122.000
  24745674.696   -10516991.349 7  -3254138.54824        46.000
  22952262.849    11384793.677 9   9166465.71327        86.000
  20999570.760    -2028790.915 9 -10302541.54929       100.000
  23475013.956    10406493.602 8   8182427.81426        66.000
  23785478.096     9215477.939 7  -7454224.11125        60.000
 96  6 10 19 46 45.0010000  0  6G24G 6G 4G 5G 9G16
  21157894.365     1598781.473 9  -2660448.47729       114.000
  24739642.542   -10548649.828 7  -3278807.49324        46.000
  22960987.409    11430637.975 9   9202188.54027        84.000
  20997138.004    -2041565.601 9 -10312495.83829       100.000
  23483406.646    10450606.801 8   8216801.72026        70.000
  23777088.404     9171386.346 7  -7488581.16925        58.000
 96  6 10 19 47  0.0010000  0  6G24G 6G 4G 5G 9G16
  21161576.176     1618117.250 9  -2645381.65829       112.000
  24733620.461   -10580286.489 7  -3303459.35524        46.000
  22969721.593    11476535.317 9   9237952.66827        86.000
  20994727.613    -2054220.027 9 -10322356.44629        98.000
  23491813.336    10494788.424 8   8251228.93526        72.000
  23768707.286     9127334.217 7  -7522907.46825        60.000
 96  6 10 19 47 15.0010000  0  6G24G 6G 4G 5G 9G16
  21165276.934     1637566.918 9  -2630226.06329       106.000
  24727609.412   -10611905.467 7  -3328097.49324        50.000
  22978468.907    11522484.370 9   9273757.13327        86.000
  20992342.853    -2066758.245 9 -10332126.47729       104.000
  23500232.108    10539033.256 8   8285705.40826        72.000
  23760328.117     9083316.060 7  -7557207.31725        54.000
 96  6 10 19 47 30.0010000  0  6G24G 6G 4G 5G 9G16
  21168998.587     1657128.612 9  -2614983.19329       110.000
  24721590.569   -10643505.398 7  -3352720.82423        48.000
  22987224.376    11568485.575 9   9309602.20727        88.000
  20989981.688    -2079180.270 9 -10341805.98629       104.000
  23508661.312    10583339.525 7   8320229.73126        60.000
  23751962.439     9039334.711 7  -7591478.47225        58.000
 96  6 10 19 47 45.0010000  0  6G24G 6G 4G 5G 9G16
  21172743.085     1676807.809 9  -2599648.73329       110.000
  24715583.747   -10675081.785 7  -3377325.71323        50.000
  22995978.975    11614542.483 8   9345490.71627        82.000
  20987643.067    -2091480.493 9 -10351390.54829       108.000
  23517109.794    10627710.136 8   8354804.24226        72.000
  23743601.437     8995398.336 7  -7625714.55325        58.000
 96  6 10 19 48  0.0010000  0  6G24G 6G 4G 5G 9G16
  21176512.615     1696605.014 9  -2584222.37329       112.000
  24709575.877   -10706637.699 7  -3401914.67823        48.000
  23004755.279    11660655.502 8   9381422.89127        82.000
  20985317.787    -2103661.967 9 -10360882.62429       102.000
  23525567.089    10672141.317 8   8389425.89926        72.000
  23735243.583     8951507.705 7  -7659915.06025        58.000
 96  6 10 19 48 15.0010000  0  6G24G 6G 4G 5G 9G16
  21180300.883     1716518.532 9  -2568705.32629       112.000
  24703569.894   -10738177.114 7  -3426490.84123        44.000
  23013543.725    11706820.769 9   9417395.84627        84.000
  20983023.715    -2115725.626 9 -10370282.87629       102.000
  23534034.547    10716627.099 8   8424090.12826        70.000
  23726902.397     8907660.777 7  -7694081.43925        54.000
 96  6 10 19 48 30.0010000  0  6G24G 6G 4G 5G 9G16
  21184111.695     1736550.484 9  -2553096.02629       110.000
  24697574.885   -10769696.541 7  -3451051.46423        46.000
  23022337.477    11753042.809 9   9453412.97027        88.000
  20980749.399    -2127664.023 9 -10379585.52829       102.000
  23542512.378    10761168.233 8   8458797.47726        70.000
  23718570.565     8863863.345 7  -7728209.25625        58.000
 96  6 10 19 48 45.0010000  0  6G24G 6G 4G 5G 9G16
  21187946.310     1756698.444 9  -2537396.31229       112.000
  24691583.323   -10801196.537 7  -3475596.89423        44.000
  23031145.560    11799325.121 9   9489477.09127        84.000
  20978506.832    -2139476.730 9 -10388790.24729       106.000
  23550993.297    10805763.376 8   8493546.89826        66.000
  23710246.768     8820116.650 8  -7762297.56725        64.000
 96  6 10 19 49  0.0010000  0  6G24G 6G 4G 5G 9G16
  21191801.911     1776955.853 9  -2521611.30829       108.000
  24685596.197   -10832686.123 7  -3500134.17323        44.000
  23039966.923    11845666.065 9   9525586.91227        88.000
  20976283.031    -2151168.284 9 -10397900.53229       112.000
  23559487.646    10850406.995 8   8528334.15126        64.000
  23701930.465     8776416.786 7  -7796349.36925        56.000
 96  6 10 19 49 15.0010000  0  6G24G 6G 4G 5G 9G16
  21195677.208     1797320.497 9  -2505742.75629       112.000
  24679599.928   -10864165.924 7  -3524663.82623        42.000
  23048795.361    11892065.989 9   9561742.67727        88.000
  20974078.328    -2162733.374 9 -10406912.28229       106.000
  23567989.340    10895101.913 7   8563161.30726        60.000
  23693626.004     8732766.281 7  -7830362.73625        60.000
 96  6 10 19 49 30.0010000  0  6G24G 6G 4G 5G 9G16
  21199570.073     1817790.803 9  -2489791.87129       114.000
  24673614.122   -10895635.907 7  -3549185.86323        44.000
  23057633.243    11938518.761 9   9597939.62527        90.000
  20971901.175    -2174173.508 9 -10415826.67929       106.000
  23576502.787    10939846.875 7   8598027.46626        54.000
  23685330.417     8689164.250 7  -7864338.34225        58.000
 96  6 10 19 49 45.0010000  0  6G24G 6G 4G 5G 9G16
  21203485.303     1838363.999 9  -2473760.81229       118.000
  24667629.396   -10927097.976 7  -3573701.70523        44.000
  23066486.833    11985019.204 9   9634173.73427        92.000
  20969750.044    -2185494.026 9 -10424647.86529       108.000
  23585029.874    10984638.856 7   8632930.27326        58.000
  23677037.258     8645607.655 7  -7898278.49925        52.000
 96  6 10 19 50  0.0010000  0  6G24G 6G 4G 5G 9G16
  21207422.777     1859046.323 9  -2457644.72729       116.000
  24661641.371   -10958549.432 6  -3598209.33923        38.000
  23075343.632    12031571.270 9   9670448.06127        92.000
  20967615.972    -2196691.598 9 -10433373.25029       104.000
  23593568.562    11029481.477 7   8667872.52926        60.000
  23668757.080     8602098.252 7  -7932181.89125        52.000
 96  6 10 19 50 15.0010000  0  6G24G 6G 4G 5G 9G16
  21211378.568     1879834.323 9  -2441446.27129       120.000
  24655656.584   -10989992.283 6  -3622710.13923        38.000
  23084210.953    12078172.705 9   9706760.85227        96.000
  20965508.940    -2207767.378 9 -10442003.73229       100.000
  23602104.913    11074373.007 7   8702852.87326        56.000
  23660490.843     8558631.869 7  -7966051.77925        50.000
 96  6 10 19 50 30.0010000  0  6G24G 6G 4G 5G 9G16
  21215352.107     1900720.309 9  -2425171.51429       126.000
  24649669.969   -11021427.885 6  -3647205.42623        34.000
  23093084.930    12124818.489 9   9743108.17327        94.000
  20963427.121    -2218725.068 9 -10450542.22829       102.000
  23610658.861    11119309.310 7   8737868.09926        56.000
  23652216.451     8515201.962 7  -7999893.29825        42.000
 96  6 10 19 50 45.0010000  0  6G24G 6G 4G 5G 9G16
  21219345.343     1921699.509 9  -2408824.05529       126.000
  24643694.865   -11052857.597 6  -3671696.03623        36.000
  23101971.978    12171508.041 9   9779489.66827        94.000
  20961361.461    -2229569.142 9 -10458992.10229       104.000
  23619218.535    11164289.299 7   8772917.46726        56.000
  23643965.773     8471805.705 7  -8033708.47025        48.000
 96  6 10 19 51  0.0010000  0  6G24G 6G 4G 5G 9G16
  21223353.748     1942766.772 9  -2392407.98229       124.000
  24637709.059   -11084284.013 6  -3696184.14123        36.000
  23110859.655    12218238.227 9   9815902.81327        94.000
  20959321.883    -2240301.679 9 -10467355.10929       106.000
  23627787.893    11209312.447 7   8808000.41826        62.000
  23635708.260     8428440.400 7  -8067499.60325        48.000
 96  6 10 19 51 15.0010000  0  6G24G 6G 4G 5G 9G16
  21227379.031     1963918.050 9  -2375926.46629       126.000
  24631733.356   -11115708.364 6  -3720670.57224        36.000
  23119764.000    12265004.208 9   9852343.82627        96.000
  20957301.012    -2250921.210 9 -10475630.07429       104.000
  23636359.949    11254376.286 7   8843115.05126        62.000
  23627460.489     8385104.673 7  -8101267.71224        44.000
 96  6 10 19 51 30.0010000  0  6G24G 6G 4G 5G 9G16
  21231420.593     1985152.418 9  -2359380.22929       128.000
  24625752.346   -11147130.257 6  -3745155.19024        34.000
  23128669.965    12311803.067 9   9888810.45227        94.000
  20955297.949    -2261430.811 9 -10483819.39529       104.000
  23644940.578    11299477.904 7   8878259.13026        62.000
  23619223.752     8341796.638 7  -8135014.20124        44.000
 96  6 10 19 51 45.0010000  0  6G24G 6G 4G 5G 9G16
  21235475.526     2006470.350 9  -2342768.85229       130.000
  24619774.305   -11178552.377 6  -3769639.88725        32.000
  23137576.559    12358634.210 9   9925302.23827        90.000
  20953319.978    -2271833.151 9 -10491925.09929       104.000
  23653531.191    11344615.014 7   8913430.88026        60.000
  23610986.564     8298513.312 7  -8168741.42524        48.000
 96  6 10 19 52  0.0010000  0  6G24G 6G 4G 5G 9G16
  21239552.164     2027874.891 9  -2326089.99029       132.000
  24613796.563   -11209973.572 6  -3794123.89825        32.000
  23146500.781    12405501.868 9   9961822.48027        90.000
  20951360.655    -2282121.900 9 -10499942.30629       104.000
  23662130.858    11389786.972 7   8948629.78126        58.000
  23602749.736     8255257.917 7  -8202446.90924        44.000
 96  6 10 19 52 15.0010000  0  6G24G 6G 4G 5G 9G16
  21243636.596     2049364.414 9  -2309344.89729       128.000
  24607808.119   -11241395.715 6  -3818608.62525        26.000
  23155424.733    12452403.965 9   9998369.56027        92.000
  20949424.115    -2292297.102 9 -10507871.03229       106.000
  23670730.434    11434990.813 7   8983853.51526        48.000
  23594531.166     8212029.420 7  -8236131.41324        46.000
 96  6 10 19 52 30.0010000  0  6G24G 6G 4G 5G 9G16
  21247745.192     2070942.917 9  -2292530.49829       134.000
  24601840.990   -11272812.917 6  -3843089.55525        32.000
  23164359.088    12499346.464 9  10034948.11827        88.000
  20947511.979    -2302354.862 9 -10515708.26429       106.000
  23679340.354    11480230.451 7   9019105.09026        44.000
  23586311.936     8168834.168 7  -8269790.04124        48.000
 96  6 10 19 52 45.0010000  0  6G24G 6G 4G 5G 9G16
  21251866.109     2092610.472 9  -2275646.69329       138.000
  24595860.610   -11304228.352 6  -3867569.09225        34.000
  23173292.214    12546327.892 9  10071557.00927        84.000
  20945620.768    -2312296.773 9 -10523455.20129       104.000
  23687948.804    11525504.932 6   9054383.90726        40.000
  23578098.522     8125672.751 7  -8303422.30424        50.000
 96  6 10 19 53  0.0010000  0  6G24G 6G 4G 5G 9G16
  21256009.961     2114376.092 9  -2258686.47829       136.000
  24589887.605   -11335636.017 6  -3892042.54325        40.000
  23182244.946    12593355.562 8  10108201.93027        78.000
  20943748.445    -2322113.593 9 -10531104.67429       104.000
  23696575.212    11570821.650 6   9089695.54726        40.000
  23569897.759     8082556.606 7  -8337019.32624        50.000
 96  6 10 19 53 15.0010000  0  6G24G 6G 4G 5G 9G16
  21260171.919     2136238.791 9  -2241650.62329       142.000
  24583906.955   -11367038.146 7  -3916511.71825        42.000
  23191204.783    12640425.238 8  10144879.57727        78.000
  20941906.940    -2331805.977 9 -10538657.19929       102.000
  23705208.186    11616176.873 7   9125037.23326        42.000
  23561699.335     8039485.200 7  -8370581.39924        50.000
 96  6 10 19 53 30.0010000  0  6G24G 6G 4G 5G 9G16
  21264349.347     2158197.107 9  -2224540.25029       136.000
  24577929.633   -11398439.642 6  -3940980.40525        40.000
  23200164.201    12687533.109 8  10181586.97927        82.000
  20940085.730    -2341380.908 9 -10546118.18629       106.000
  23713840.500    11661563.855 7   9160403.68426        46.000
  23553507.956     7996451.578 7  -8404114.04724        52.000
 96  6 10 19 53 45.0010000  0  6G24G 6G 4G 5G 9G16
  21268548.900     2180256.457 9  -2207351.14029       136.000
  24571960.766   -11429835.807 7  -3965444.89025        42.000
  23209137.468    12734681.300 9  10218325.84027        84.000
  20938285.956    -2350837.800 9 -10553487.17529       104.000
  23722487.474    11706985.492 7   9195797.11026        52.000
  23545327.069     7953458.590 7  -8437615.05324        50.000
 96  6 10 19 54  0.0010000  0  6G24G 6G 4G 5G 9G16
  21272764.102     2202412.479 9  -2190086.69129       138.000
  24565981.705   -11461232.575 7  -3989909.89625        48.000
  23218116.373    12781865.550 8  10255092.81026        82.000
  20936507.318    -2360180.282 9 -10560767.02129       104.000
  23731139.574    11752437.485 7   9231214.22026        58.000
  23537152.029     7910503.343 7  -8471086.62024        46.000
 96  6 10 19 54 15.0010000  0  6G24G 6G 4G 5G 9G16
  21276997.351     2224669.109 9  -2172743.85729       130.000
  24560007.561   -11492625.915 7  -4014372.20025        48.000
  23227103.671    12829089.685 8  10291890.82526        78.000
  20934754.431    -2369403.594 9 -10567953.99929       104.000
  23739799.769    11797926.244 8   9266659.96126        66.000
  23528987.751     7867592.506 7  -8504523.61324        50.000
 96  6 10 19 54 30.0010000  0  6G24G 6G 4G 5G 9G16
  21281255.274     2247019.663 9  -2155327.86329       128.000
  24554035.575   -11524022.000 7  -4038836.66525        54.000
  23236096.965    12876348.302 8  10328715.69326        82.000
  20933016.924    -2378513.517 9 -10575052.64729       104.000
  23748463.051    11843451.163 8   9302133.87926        70.000
  23520824.672     7824720.015 7  -8537930.75724        44.000
 96  6 10 19 54 45.0010000  0  6G24G 6G 4G 5G 9G16
  21285524.318     2269464.863 9  -2137838.11129       126.000
  24548056.814   -11555420.407 7  -4063302.94625        54.000
  23245099.253    12923644.111 9  10365569.55226        86.000
  20931308.317    -2387507.067 9 -10582060.61529       108.000
  23757133.439    11889015.465 8   9337638.48926        72.000
  23512679.041     7781889.673 6  -8571305.04624        36.000
 96  6 10 19 55  0.0010000  0  6G24G 6G 4G 5G 9G16
  21289813.629     2292004.463 9  -2120274.80029       126.000
  24542085.338   -11586819.764 7  -4087769.94625        56.000
  23254102.710    12970976.841 9  10402452.17026        86.000
  20929621.235    -2396380.254 9 -10588974.79829       110.000
  23765809.133    11934618.797 8   9373173.51926        70.000
  23504536.828     7739103.278 6  -8604645.07724        40.000
 96  6 10 19 55 15.0010000  0  6G24G 6G 4G 5G 9G16
  21294117.689     2314634.104 9  -2102641.31829       126.000
  24536107.926   -11618222.180 7  -4112239.32925        56.000
  23263115.730    13018344.864 9  10439362.30226        84.000
  20927950.941    -2405136.645 9 -10595797.96029       104.000
  23774491.842    11980256.727 8   9408735.49226        74.000
  23496391.856     7696356.602 6  -8637954.16624        40.000
 96  6 10 19 55 30.0010000  0  6G24G 6G 4G 5G 9G16
  21298444.803     2337359.593 9  -2084933.15829       124.000
  24530130.604   -11649621.634 7  -4136706.39025        56.000
  23272136.935    13065752.523 9  10476303.32226        84.000
  20926307.988    -2413771.226 9 -10602526.20429       104.000
  23783181.716    12025935.881 8   9444329.60126        74.000
  23488275.185     7653652.372 7  -8671230.17724        42.000
 96  6 10 19 55 45.0010000  0  6G24G 6G 4G 5G 9G16
  21302785.259     2360174.180 9  -2067155.55729       120.000
  24524158.558   -11681022.717 7  -4161174.77225        58.000
  23281167.403    13113196.009 9  10513272.26627        86.000
  20924686.771    -2422293.870 9 -10609167.21929       104.000
  23791880.974    12071651.120 8   9479951.82226        70.000
  23480156.266     7610985.687 7  -8704476.87825        46.000
 96  6 10 19 56  0.0010000  0  6G24G 6G 4G 5G 9G16
  21307143.851     2383078.938 9  -2049307.68929       122.000
  24518180.996   -11712425.265 7  -4185644.23725        56.000
  23290198.351    13160678.822 9  10550271.85427        86.000
  20923088.607    -2430700.361 9 -10615717.72229       106.000
  23800588.146    12117407.468 8   9515606.09426        68.000
  23472048.379     7568362.777 7  -8737689.48925        44.000
 96  6 10 19 56 15.0010000  0  6G24G 6G 4G 5G 9G16
  21311519.952     2406071.252 9  -2031391.62229       120.000
  24512209.401   -11743832.656 7  -4210117.53525        58.000
  23299247.197    13208201.599 9  10587302.57527        88.000
  20921511.399    -2438992.018 9 -10622178.76029       106.000
  23809306.980    12163202.685 8   9551290.62626        66.000
  23463939.563     7525782.713 7  -8770868.74524        46.000
 96  6 10 19 56 30.0010000  0  6G24G 6G 4G 5G 9G16
  21315907.834     2429147.853 9  -2013409.86429       112.000
  24506226.233   -11775243.753 7  -4234593.63625        56.000
  23308295.323    13255761.338 9  10624362.10727        88.000
  20919952.059    -2447171.105 9 -10628552.07929       104.000
  23818027.583    12209034.238 7   9587003.48926        60.000
  23455841.659     7483243.664 7  -8804016.09024        44.000
 96  6 10 19 56 45.0010000  0  6G24G 6G 4G 5G 9G16
  21320316.822     2452309.582 9  -1995361.77429       118.000
  24500252.628   -11806657.360 7  -4259071.75425        48.000
  23317355.141    13303357.250 8  10661449.79827        80.000
  20918419.609    -2455241.582 9 -10634840.77629       112.000
  23826754.211    12254899.237 7   9622742.39025        60.000
  23447762.252     7440744.643 6  -8837132.21924        36.000
 96  6 10 19 57  0.0010000  0  6G24G 6G 4G 5G 9G16
  21324740.739     2475561.011 9  -1977243.79629       122.000
  24494274.407   -11838069.051 7  -4283548.40425        48.000
  23326419.186    13350990.219 8  10698566.36627        76.000
  20916901.850    -2463201.938 9 -10641043.65829       110.000
  23835484.078    12300798.177 7   9658507.75325        58.000
  23439674.001     7398291.349 6  -8870212.69324        34.000
 96  6 10 19 57 15.0010000  0  6G24G 6G 4G 5G 9G16
  21329182.464     2498902.122 9  -1959055.92229       120.000
  24488295.076   -11869478.281 7  -4308023.10324        44.000
  23335487.278    13398659.384 8  10735711.16127        74.000
  20915409.903    -2471053.709 9 -10647161.92829       110.000
  23844230.373    12346730.326 7   9694299.02725        60.000
  23431603.319     7355881.363 7  -8903259.35924        42.000
 96  6 10 19 57 30.0010000  0  6G24G 6G 4G 5G 9G16
  21333641.427     2522334.604 9  -1940796.83929       116.000
  24482324.739   -11900885.883 7  -4332496.50724        44.000
  23344569.971    13446362.728 8  10772882.58727        74.000
  20913932.436    -2478797.241 9 -10653195.85329       106.000
  23852979.696    12392697.174 8   9730117.30525        64.000
  23423543.908     7313516.269 7  -8936271.14124        44.000
 96  6 10 19 57 45.0010000  0  6G24G 6G 4G 5G 9G16
  21338118.948     2545853.869 9  -1922470.12029       120.000
  24476336.235   -11932296.100 6  -4356971.97724        38.000
  23353648.166    13494095.553 8  10810076.99727        72.000
  20912478.802    -2486435.758 9 -10659147.92929       106.000
  23861732.316    12438693.316 8   9765958.41425        68.000
  23415487.226     7271194.692 6  -8969248.92024        38.000
 96  6 10 19 58  0.0010000  0  6G24G 6G 4G 5G 9G16
  21342608.759     2569456.250 9  -1904078.66029       114.000
  24470361.611   -11963714.559 7  -4381453.82124        44.000
  23362739.702    13541852.662 8  10847290.31427        70.000
  20911045.944    -2493970.237 9 -10665018.95529       106.000
  23870494.141    12484711.698 8   9801816.85325        66.000
  23407447.301     7228912.997 7  -9002195.61924        44.000
 96  6 10 19 58 15.0010000  0  6G24G 6G 4G 5G 9G16
  21347116.739     2593149.523 9  -1885616.38029       108.000
  24464383.989   -11995133.445 6  -4405936.09824        36.000
  23371830.458    13589637.667 8  10884525.37227        74.000
  20909635.511    -2501388.494 9 -10670799.42029       110.000
  23879252.248    12530760.285 7   9837698.82025        62.000
  23399413.883     7186680.495 6  -9035104.06524        40.000
 96  6 10 19 58 30.0010000  0  6G24G 6G 4G 5G 9G16
  21351640.397     2616929.612 9  -1867086.44529       110.000
  24458397.194   -12026553.636 6  -4430419.38724        36.000
  23380929.849    13637442.572 8  10921775.92927        78.000
  20908243.334    -2508693.846 9 -10676491.91429       110.000
  23888016.230    12576833.472 7   9873599.98925        52.000
  23391384.152     7144493.230 7  -9067977.31124        44.000
 96  6 10 19 58 45.0010000  0  6G24G 6G 4G 5G 9G16
  21356184.951     2640802.080 9  -1848484.51129       112.000
  24452433.153   -12057967.679 6  -4454897.78524        40.000
  23390030.859    13685271.961 8  10959045.56727        74.000
  20906877.720    -2515877.361 9 -10682089.44929       110.000
  23896786.359    12622939.443 7   9909526.65925        50.000
  23383362.965     7102357.539 7  -9100810.27524        46.000
 96  6 10 19 59  0.0010000  0  6G24G 6G 4G 5G 9G16
  21360747.972     2664772.413 9  -1829806.34329       114.000
  24446445.938   -12089372.105 6  -4479368.76424        34.000
  23399131.778    13733133.027 8  10996339.87827        68.000
  20905538.337    -2522931.359 9 -10687586.08229       116.000
  23905572.826    12669082.690 7   9945482.41925        48.000
  23375354.549     7060278.176 7  -9133599.36024        42.000
 96  6 10 19 59 15.0010000  0  6G24G 6G 4G 5G 9G16
  21365324.244     2688831.447 9  -1811059.05529       112.000
  24440469.695   -12120776.117 6  -4503839.40524        36.000
  23408247.477    13781018.024 8  11033652.84927        68.000
  20904216.732    -2529859.161 9 -10692984.38429       112.000
  23914352.428    12715252.214 7   9981458.64825        52.000
  23367354.617     7018247.507 6  -9166350.50224        34.000
 96  6 10 19 59 30.0010000  0  6G24G 6G 4G 5G 9G16
  21369923.959     2712979.953 9  -1792242.01229       118.000
  24434501.007   -12152177.609 6  -4528308.07625        40.000
  23417368.963    13828929.668 8  11070986.60827        74.000
  20902923.547    -2536657.689 9 -10698281.91129       108.000
  23923153.436    12761449.874 7  10017456.77725        50.000
  23359367.906     6976266.732 6  -9199062.76424        36.000
 96  6 10 19 59 45.0020000  0  6G24G 6G 4G 5G 9G16
  21374536.416     2737221.546 9  -1773352.46829       120.000
  24428523.295   -12183577.269 6  -4552775.34625        36.000
  23426493.446    13876871.279 8  11108343.67727        76.000
  20901655.845    -2543324.902 9 -10703477.15629       110.000
  23931947.727    12807680.827 7  10053480.83325        52.000
  23351392.138     6934334.389 6  -9231737.37524        38.000
 96  6 10 20  0  0.0020000  0  6G24G 6G 4G 5G 9G16
  21379162.214     2761551.645 9  -1754393.94929       114.000
  24422553.438   -12214970.062 6  -4577237.28025        36.000
  23435616.820    13924838.125 8  11145720.41727        72.000
  20900412.366    -2549863.116 9 -10708571.86829       108.000
  23940746.096    12853938.995 7  10089526.11326        50.000
  23343423.504     6892455.725 6  -9264370.07124        40.000
 96  6 10 20  0 15.0020000  0  6G24G 6G 4G 5G 9G16
  21383808.817     2785972.429 9  -1735364.78129       116.000
  24416574.557   -12246356.612 6  -4601694.31325        30.000
  23444750.087    13972832.657 8  11183118.72727        72.000
  20899193.140    -2556272.662 9 -10713566.32929       114.000
  23949550.551    12900230.245 7  10125597.13626        48.000
  23335469.051     6850630.741 7  -9296960.95124        42.000
 96  6 10 20  0 30.0020000  0  6G24G 6G 4G 5G 9G16
  21388469.421     2810472.777 9  -1716273.59629       118.000
  24410604.910   -12277745.999 6  -4626153.53325        32.000
  23453878.588    14020846.322 8  11220531.97827        70.000
  20897996.398    -2562564.239 9 -10718468.85529       114.000
  23958369.306    12946543.136 7  10161685.07826        48.000
  23327520.444     6808850.149 7  -9329517.18024        46.000
 96  6 10 20  0 45.0020000  0  6G24G 6G 4G 5G 9G16
  21393152.689     2835063.107 9  -1697112.31729       122.000
  24404637.571   -12309129.310 6  -4650608.05025        34.000
  23463033.440    14068890.166 8  11257968.71427        76.000
  20896824.989    -2568729.498 9 -10723272.97229       116.000
  23967187.731    12992886.013 7  10197796.36426        50.000
  23319580.980     6767120.126 7  -9362034.07724        44.000
 96  6 10 20  1  0.0020000  0  6G24G 6G 4G 5G 9G16
  21397847.438     2859737.550 9  -1677885.45929       126.000
  24398660.968   -12340513.702 6  -4675063.34125        32.000
  23472179.149    14116957.822 8  11295424.03326        78.000
  20895674.835    -2574777.536 9 -10727985.70529       112.000
  23976006.006    13039250.011 7  10233924.12826        44.000
  23311641.337     6725432.882 7  -9394517.53225        46.000
 96  6 10 20  1 15.0020000  0  6G24G 6G 4G 5G 9G16
  21402560.925     2884501.332 9  -1658589.00629       126.000
  24392692.340   -12371894.876 6  -4699516.14925        38.000
  23481328.844    14165052.383 8  11332900.30926        76.000
  20894546.177    -2580704.190 9 -10732603.88229       116.000
  23984837.083    13085637.006 7  10270069.81026        46.000
  23303715.274     6683796.017 7  -9426961.89124        42.000
 96  6 10 20  1 30.0020000  0  6G24G 6G 4G 5G 9G16
  21407289.102     2909351.751 9  -1639225.05729       126.000
  24386721.584   -12403273.257 6  -4723966.82525        38.000
  23490485.315    14213169.801 8  11370394.36226        80.000
  20893439.853    -2586510.335 9 -10737128.16829       114.000
  23993666.480    13132047.691 7  10306233.89526        46.000
  23295805.310     6642207.786 6  -9459368.35924        34.000
 96  6 10 20  1 45.0020000  0  6G24G 6G 4G 5G 9G16
  21412034.517     2934284.700 9  -1619796.77729       126.000
  24380744.951   -12434652.372 7  -4748418.04525        44.000
  23499642.656    14261306.121 8  11407903.19726        78.000
  20892355.623    -2592200.460 9 -10741562.02729       114.000
  24002501.694    13178481.761 7  10342416.28726        48.000
  23287896.155     6600664.607 6  -9491739.60324        38.000
 96  6 10 20  2  0.0020000  0  6G24G 6G 4G 5G 9G16
  21416794.352     2959300.815 9  -1600303.71029       126.000
  24374776.593   -12466027.486 7  -4772866.14025        50.000
  23508805.872    14309466.937 8  11445431.05826        78.000
  20891292.979    -2597771.870 9 -10745903.40629       112.000
  24011345.811    13224941.762 7  10378618.78126        46.000
  23280000.731     6559172.139 6  -9524071.37024        40.000
 96  6 10 20  2 15.0020000  0  6G24G 6G 4G 5G 9G16
  21421568.936     2984400.553 9  -1580745.45829       126.000
  24368803.528   -12497395.038 7  -4797308.33625        46.000
  23517977.093    14357654.920 8  11482980.14526        80.000
  20890259.294    -2603218.925 9 -10750147.85429       112.000
  24020193.826    13271427.048 7  10414841.05526        44.000
  23272119.757     6517734.446 7  -9556360.42625        42.000
 96  6 10 20  2 30.0020000  0  6G24G 6G 4G 5G 9G16
  21426362.558     3009581.589 9  -1561123.87529       128.000
  24362836.669   -12528757.813 7  -4821746.85125        52.000
  23527151.042    14405866.364 8  11520547.46726        82.000
  20889244.857    -2608543.172 9 -10754296.61829       106.000
  24029037.703    13317932.127 6  10451078.71226        38.000
  23264244.599     6476347.219 7  -9588610.17925        46.000
 96  6 10 20  2 45.0020000  0  6G24G 6G 4G 5G 9G16
  21431168.351     3034842.280 9  -1541440.23729       128.000
  24356874.487   -12560117.205 7  -4846182.72025        52.000
  23536338.812    14454103.501 9  11558134.80526        86.000
  20888257.370    -2613747.106 9 -10758351.63229       106.000
  24037898.819    13364456.311 7  10487331.28526        44.000
  23256375.946     6435007.690 7  -9620822.79925        48.000
 96  6 10 20  3  0.0020000  0  6G24G 6G 4G 5G 9G16
  21435992.401     3060184.182 9  -1521693.32329       128.000
  24350908.107   -12591468.611 7  -4870612.38825        52.000
  23545518.727    14502371.758 9  11595746.40526        86.000
  20887288.501    -2618827.069 9 -10762310.06329       104.000
  24046762.183    13411004.687 7  10523602.70126        46.000
  23248522.073     6393723.607 7  -9652992.24325        42.000
 96  6 10 20  3 15.0020000  0  6G24G 6G 4G 5G 9G16
  21440828.953     3085599.410 9  -1501889.23329       130.000
  24344938.999   -12622818.011 7  -4895040.42625        56.000
  23554712.552    14550668.188 8  11633380.00326        80.000
  20886341.756    -2623787.765 9 -10766175.52429       102.000
  24055623.358    13457571.655 7  10559888.60525        48.000
  23240674.196     6352492.183 7  -9685120.58625        44.000
 96  6 10 20  3 30.0020000  0  6G24G 6G 4G 5G 9G16
  21445676.237     3111085.327 9  -1482030.09529       128.000
  24338972.500   -12654168.869 7  -4919469.64225        58.000
  23563903.649    14598994.709 8  11671037.00026        78.000
  20885423.672    -2628630.039 9 -10769948.73729       104.000
  24064487.442    13504156.869 7  10596188.71625        46.000
  23232839.870     6311312.522 7  -9717208.61225        42.000
 96  6 10 20  3 45.0020000  0  6G24G 6G 4G 5G 9G16
  21450542.738     3136647.163 9  -1462111.78329       130.000
  24333006.060   -12685516.830 7  -4943896.59825        52.000
  23573107.757    14647360.131 8  11708724.32926        74.000
  20884525.014    -2633350.345 9 -10773626.89829       106.000
  24073352.875    13550767.318 7  10632508.51325        44.000
  23225006.802     6270188.885 6  -9749252.97625        40.000
 96  6 10 20  4  0.0020000  0  6G24G 6G 4G 5G 9G16
  21455421.771     3162285.677 9  -1442133.70829       134.000
  24327042.799   -12716860.881 7  -4968320.46125        52.000
  23582314.353    14695765.830 8  11746443.06526        72.000
  20883646.053    -2637949.751 9 -10777210.82829       104.000
  24082224.513    13597402.418 7  10668847.52225        46.000
  23217189.054     6229124.361 6  -9781251.23125        40.000
 96  6 10 20  4 15.0020000  0  6G24G 6G 4G 5G 9G16
  21460314.533     3187998.524 9  -1422097.72429       132.000
  24321076.179   -12748206.778 7  -4992745.79525        46.000
  23591536.809    14744205.991 8  11784188.61526        74.000
  20882795.422    -2642432.900 9 -10780704.19929       106.000
  24091109.642    13644054.659 7  10705199.82825        54.000
  23209392.592     6188114.911 7  -9813206.65425        46.000
 96  6 10 20  4 30.0020000  0  6G24G 6G 4G 5G 9G16
  21465223.215     3213793.061 9  -1401998.11229       130.000
  24315116.395   -12779552.900 7  -5017171.36625        44.000
  23600765.740    14792684.164 8  11821963.79126        72.000
  20881965.266    -2646797.470 9 -10784105.18929       102.000
  24099984.818    13690729.973 7  10741570.13525        56.000
  23201597.568     6147163.683 6  -9845116.68425        40.000
 96  6 10 20  4 45.0020000  0  6G24G 6G 4G 5G 9G16
  21470146.677     3239671.781 9  -1381832.89929       134.000
  24309136.975   -12810899.566 6  -5041597.32325        36.000
  23609992.782    14841202.458 8  11859770.22426        66.000
  20881158.045    -2651043.964 9 -10787414.16429       102.000
  24108877.681    13737431.713 7  10777961.03925        60.000
  23193817.444     6106273.475 7  -9876979.19025        44.000
 96  6 10 20  5  0.0020000  0  6G24G 6G 4G 5G 9G16
  21475087.047     3265624.258 9  -1361610.17229       138.000
  24303184.895   -12842257.966 6  -5066032.38425        40.000
  23619227.499    14889751.130 8  11897600.38127        64.000
  20880370.640    -2655180.974 9 -10790637.77829       104.000
  24117756.874    13784150.544 7  10814365.30625        54.000
  23186052.130     6065436.459 7  -9908800.23425        46.000
 96  6 10 20  5 15.0020000  0  6G24G 6G 4G 5G 9G16
  21480036.440     3291651.921 9  -1341328.89329       136.000
  24297209.612   -12873629.064 6  -5090477.40025        38.000
  23628479.334    14938325.466 8  11935450.48726        64.000
  20879603.981    -2659207.507 9 -10793775.34829       106.000
  24126658.552    13830885.216 7  10850781.86225        58.000
  23178289.724     6024649.213 7  -9940582.52725        48.000
 96  6 10 20  5 30.0020000  0  6G24G 6G 4G 5G 9G16
  21485000.104     3317750.550 9  -1320992.31629       134.000
  24291238.406   -12905022.170 6  -5114939.54625        40.000
  23637722.835    14986915.790 8  11973313.06627        66.000
  20878861.365    -2663130.345 9 -10796832.10729       108.000
  24135552.675    13877628.088 7  10887204.83725        56.000
  23170534.513     5983900.958 7  -9972334.36425        52.000
 96  6 10 20  5 45.0020000  0  6G24G 6G 4G 5G 9G16
  21489991.259     3343939.839 9  -1300585.07929       138.000
  24285267.439   -12936417.010 6  -5139403.02125        38.000
  23646975.480    15035536.838 7  12011199.59026        62.000
  20878134.938    -2666928.944 9 -10799792.07129       110.000
  24144445.868    13924400.404 7  10923650.74625        54.000
  23162790.094     5943212.723 7 -10004039.44125        46.000
 96  6 10 20  6  0.0020000  0  6G24G 6G 4G 5G 9G16
  21494989.818     3370217.362 9  -1280109.07729       136.000
  24279291.196   -12967812.038 6  -5163866.62325        40.000
  23656230.462    15084183.722 7  12049106.23726        60.000
  20877433.124    -2670603.007 9 -10802654.96529       110.000
  24153354.081    13971199.220 7  10960117.32825        54.000
  23155060.965     5902584.386 7 -10035697.85825        48.000
 96  6 10 20  6 15.0020000  0  6G24G 6G 4G 5G 9G16
  21500003.997     3396580.357 9  -1259566.51729       134.000
  24273314.324   -12999209.749 6  -5188332.35825        40.000
  23665488.623    15132849.214 7  12087027.37526        62.000
  20876764.227    -2674155.274 9 -10805422.99229       112.000
  24162265.921    14018018.514 7  10996599.81825        58.000
  23147339.630     5862013.899 7 -10067311.21325        48.000
 96  6 10 20  6 30.0020000  0  6G24G 6G 4G 5G 9G16
  21505042.879     3423038.389 9  -1238949.85529       134.000
  24267338.681   -13030600.848 6  -5212792.94025        40.000
  23674760.245    15181542.285 8  12124970.00226        64.000
  20876108.341    -2677575.137 9 -10808087.80729       108.000
  24171179.051    14064868.813 7  11033106.54725        62.000
  23139629.298     5821511.864 7 -10098871.24525        44.000
 96  6 10 20  6 45.0020000  0  6G24G 6G 4G 5G 9G16
  21510094.681     3449588.885 9  -1218261.14429       136.000
  24261366.725   -13061983.923 7  -5237247.23225        42.000
  23684033.665    15230261.689 8  12162933.18026        66.000
  20875486.601    -2680859.945 9 -10810647.38229       110.000
  24180100.934    14111748.381 7  11069636.04725        60.000
  23131935.065     5781078.488 7 -10130377.71525        44.000
 96  6 10 20  7  0.0020000  0  6G24G 6G 4G 5G 9G16
  21515160.095     3476229.695 9  -1197502.06529       134.000
  24255395.219   -13093359.138 6  -5261695.45025        40.000
  23693304.057    15279002.082 8  12200912.70126        64.000
  20874887.226    -2684008.785 9 -10813101.03229       112.000
  24189029.473    14158651.554 8  11106183.94225        64.000
  23124250.485     5740712.134 7 -10161832.01225        46.000
 96  6 10 20  7 15.0020000  0  6G24G 6G 4G 5G 9G16
  21520250.780     3502962.417 9  -1176671.36929       132.000
  24249432.557   -13124722.812 6  -5286134.68125        38.000
  23702581.704    15327761.872 8  12238907.34626        70.000
  20874311.145    -2687017.928 9 -10815445.81729       110.000
  24197964.278    14205579.563 7  11142751.17725        60.000
  23116585.271     5700413.988 7 -10193233.11525        48.000
 96  6 10 20  7 30.0020000  0  6G24G 6G 4G 5G 9G16
  21525354.117     3529796.857 9  -1155761.44529       130.000
  24243455.595   -13156065.056 6  -5310557.23825        34.000
  23711868.585    15376549.364 8  12276923.53126        70.000
  20873771.399    -2689877.582 9 -10817674.15329       112.000
  24206895.785    14252541.048 7  11179344.47025        58.000
  23108936.366     5660193.180 7 -10224574.02325        52.000
 96  6 10 20  7 45.0020000  0  6G24G 6G 4G 5G 9G16
  21530482.097     3556727.461 9  -1134776.55229       132.000
  24237500.398   -13187389.042 6  -5334965.50625        36.000
  23721158.674    15425361.103 8  12314958.65326        72.000
  20873252.098    -2692592.622 9 -10819789.76829       110.000
  24215832.418    14299530.864 7  11215959.89825        48.000
  23101295.076     5620050.331 7 -10255854.14925        56.000
 96  6 10 20  8  0.0020000  0  6G24G 6G 4G 5G 9G16
  21535621.709     3583744.887 9  -1113724.01729       128.000
  24231544.271   -13218700.485 7  -5359364.01325        42.000
  23730447.233    15474188.453 8  12353005.90726        74.000
  20872762.177    -2695172.564 9 -10821800.11229       110.000
  24224777.775    14346539.338 7  11252589.82625        42.000
  23093667.727     5579980.046 7 -10287077.69725        56.000
 96  6 10 20  8 15.0020000  0  6G24G 6G 4G 5G 9G16
  21540779.369     3610845.669 9  -1092606.52729       124.000
  24225589.673   -13250003.780 7  -5383756.15025        46.000
  23739749.763    15523030.683 8  12391064.79026        76.000
  20872295.191    -2697622.681 9 -10823709.28929       108.000
  24233727.150    14393560.148 6  11289229.38625        40.000
  23086054.857     5539975.159 7 -10318250.32425        58.000
 96  6 10 20  8 30.0020000  0  6G24G 6G 4G 5G 9G16
  21545955.136     3638038.466 9  -1071417.33629       122.000
  24219636.395   -13281292.509 7  -5408136.94025        48.000
  23749047.377    15571897.821 8  12429143.06826        76.000
  20871852.097    -2699934.453 9 -10825510.68029       110.000
  24242679.102    14440601.610 6  11325885.05325        40.000
  23078460.184     5500043.001 7 -10349366.27325        58.000
 96  6 10 20  8 45.0020000  0  6G24G 6G 4G 5G 9G16
  21551145.712     3665313.174 9  -1050164.34329       124.000
  24213680.957   -13312572.948 7  -5432511.26825        42.000
  23758345.080    15620785.148 8  12467237.04926        76.000
  20871439.493    -2702114.391 9 -10827209.34829       112.000
  24251632.074    14487656.613 6  11362551.22025        40.000
  23070867.851     5460175.883 7 -10380431.57825        48.000
 96  6 10 20  9  0.0020000  0  6G24G 6G 4G 5G 9G16
  21556351.279     3692672.368 9  -1028845.47829       122.000
  24207731.696   -13343843.204 7  -5456877.61725        42.000
  23767655.764    15669696.380 8  12505349.69926        74.000
  20871049.493    -2704160.705 9 -10828803.86129       112.000
  24260598.027    14534728.071 7  11399230.23625        44.000
  23063291.196     5420377.505 7 -10411443.25925        52.000
 96  6 10 20  9 15.0020000  0  6G24G 6G 4G 5G 9G16
  21561571.954     3720114.183 9  -1007462.25129       122.000
  24201779.257   -13375106.446 7  -5481238.56125        48.000
  23776966.778    15718632.741 8  12543481.92426        74.000
  20870686.654    -2706076.947 9 -10830297.03429       110.000
  24269558.224    14581819.484 7  11435924.79225        42.000
  23055741.133     5380648.552 7 -10442400.82325        56.000
 96  6 10 20  9 30.0020000  0  6G24G 6G 4G 5G 9G16
  21566809.808     3747632.193 9   -986019.64129       124.000
  24195837.160   -13406365.306 7  -5505596.13125        52.000
  23786285.347    15767595.823 8  12581634.96326        70.000
  20870344.561    -2707867.783 9 -10831692.50129       108.000
  24278521.120    14628929.981 6  11472634.21725        40.000
  23048186.932     5340989.557 7 -10473303.90425        54.000
 96  6 10 20  9 45.0020000  0  6G24G 6G 4G 5G 9G16
  21572059.804     3775224.668 9   -964519.01629       126.000
  24189881.094   -13437620.596 7  -5529950.85625        50.000
  23795611.141    15816587.919 8  12619810.58226        68.000
  20870029.779    -2709533.528 9 -10832990.47429       110.000
  24287480.807    14676056.143 6  11509355.84725        34.000
  23040655.066     5301401.910 7 -10504151.38025        52.000
 96  6 10 20 10  0.0020000  0  6G24G 6G 4G 5G 9G16
  21577322.930     3802887.240 9   -942963.77329       128.000
  24183940.916   -13468872.458 7  -5554302.97925        58.000
  23804934.387    15865607.280 8  12658007.45326        64.000
  20869734.034    -2711073.775 9 -10834190.68829       108.000
  24296453.265    14723198.070 6  11546089.79525        36.000
  23033132.524     5261885.190 7 -10534943.64425        48.000
 96  6 10 20 10 15.0020000  0  6G24G 6G 4G 5G 9G16
  21582599.367     3830615.453 9   -921357.38629       126.000
  24177995.702   -13500123.983 7  -5578654.82125        56.000
  23814264.887    15914652.168 7  12696224.25526        60.000
  20869464.790    -2712489.307 9 -10835293.71129       110.000
  24305425.664    14770352.983 6  11582833.82325        40.000
  23025631.147     5222432.604 7 -10565685.89425        54.000
 96  6 10 20 10 30.0020000  0  6G24G 6G 4G 5G 9G16
  21587891.094     3858413.447 9   -899696.61429       124.000
  24172047.879   -13531371.134 7  -5603003.21525        58.000
  23823607.020    15963726.984 7  12734464.34626        60.000
  20869220.429    -2713772.869 9 -10836293.89629       108.000
  24314413.442    14817527.062 7  11619592.76025        44.000
  23018137.205     5183051.189 7 -10596372.71225        52.000
 96  6 10 20 10 45.0020000  0  6G24G 6G 4G 5G 9G16
  21593193.133     3886275.449 9   -877985.95129       128.000
  24166099.997   -13562617.947 7  -5627351.37725        54.000
  23832947.054    16012824.610 7  12772722.21426        58.000
  20869002.960    -2714927.557 9 -10837193.65529       112.000
  24323391.656    14864716.339 7  11656363.55725        50.000
  23010657.293     5143739.126 7 -10627005.45525        50.000
 96  6 10 20 11  0.0020000  0  6G24G 6G 4G 5G 9G16
  21598508.574     3914211.671 9   -856217.51429       122.000
  24160159.220   -13593854.092 7  -5651691.28025        52.000
  23842291.645    16061952.376 7  12811003.54526        56.000
  20868810.283    -2715945.771 9 -10837987.11229       116.000
  24332373.438    14911929.768 7  11693153.14225        46.000
  23003191.862     5104505.643 7 -10657577.01225        54.000
 96  6 10 20 11 15.0020000  0  6G24G 6G 4G 5G 9G16
  21603835.646     3942225.032 9   -834388.91529       118.000
  24154221.920   -13625078.679 7  -5676022.05825        44.000
  23851650.686    16111109.959 7  12849308.18826        58.000
  20868641.200    -2716825.122 9 -10838672.30329       114.000
  24341364.514    14959167.227 7  11729961.52225        44.000
  22995733.295     5065352.065 7 -10688086.23925        56.000
 96  6 10 20 11 30.0020000  0  6G24G 6G 4G 5G 9G16
  21609183.733     3970315.490 9   -812500.22729       120.000
  24148273.168   -13656290.737 7  -5700343.07625        42.000
  23861005.739    16160294.500 7  12887633.80326        58.000
  20868499.518    -2717565.992 9 -10839249.58429       112.000
  24350350.073    15006424.398 6  11766785.26225        38.000
  22988293.586     5026274.774 7 -10718536.06525        46.000
 96  6 10 20 11 45.0020000  0  6G24G 6G 4G 5G 9G16
  21614547.650     3998483.381 9   -790551.24629       126.000
  24142337.787   -13687491.386 7  -5724655.25725        42.000
  23870382.498    16209500.314 8  12925975.98526        64.000
  20868384.038    -2718169.379 9 -10839719.76729       106.000
  24359349.153    15053695.632 7  11803619.90125        44.000
  22980875.521     4987268.859 7 -10748930.25825        48.000
 96  6 10 20 12  0.0020000  0  6G24G 6G 4G 5G 9G16
  21619919.961     4026736.373 9   -768535.95429       126.000
  24136403.036   -13718676.102 7  -5748955.03725        42.000
  23879750.713    16258730.577 8  12964337.20226        64.000
  20868294.820    -2718628.114 9 -10840077.23829       108.000
  24368347.754    15100987.771 7  11840470.85325        48.000
  22973472.596     4948337.177 7 -10779266.66925        50.000
 96  6 10 20 12 15.0020000  0  6G24G 6G 4G 5G 9G16
  21625314.486     4055070.572 9   -746457.33229       130.000
  24130479.197   -13749852.571 7  -5773248.34125        48.000
  23889118.477    16307979.029 8  13002712.63126        64.000
  20868238.639    -2718949.791 9 -10840327.86729       108.000
  24377353.220    15148295.791 7  11877334.20325        48.000
  22966074.228     4909474.049 7 -10809549.55725        52.000
 96  6 10 20 12 30.0020000  0  6G24G 6G 4G 5G 9G16
  21630719.504     4083489.338 9   -724312.87229       130.000
  24124541.897   -13781020.772 7  -5797535.29325        46.000
  23898495.956    16357249.438 8  13041105.11526        64.000
  20868200.206    -2719134.389 9 -10840471.75229       102.000
  24386363.902    15195616.892 7  11914207.69925        54.000
  22958696.035     4870681.461 7 -10839777.56125        54.000
 96  6 10 20 12 45.0020000  0  6G24G 6G 4G 5G 9G16
  21636146.467     4111993.636 9   -702101.71929       136.000
  24118613.501   -13812184.614 7  -5821818.77725        48.000
  23907872.115    16406538.613 8  13079512.28226        66.000
  20868192.351    -2719187.059 9 -10840512.78129       104.000
  24395367.359    15242946.872 7  11951088.17725        50.000
  22951324.619     4831961.684 7 -10869948.75825        48.000
 96  6 10 20 13  0.0020000  0  6G24G 6G 4G 5G 9G16
  21641585.992     4140582.152 9   -679824.97929       134.000
  24112681.268   -13843348.272 7  -5846102.12625        46.000
  23917255.588    16455844.454 8  13117932.39126        66.000
  20868204.193    -2719112.854 9 -10840454.97329       100.000
  24404376.542    15290281.216 7  11987971.99325        52.000
  22943970.680     4793310.065 7 -10900066.84325        52.000
 96  6 10 20 13 15.0020000  0  6G24G 6G 4G 5G 9G16
  21647038.557     4169252.031 9   -657484.80129       128.000
  24106746.367   -13874514.621 7  -5870387.55025        46.000
  23926637.563    16505167.230 8  13156365.72326        70.000
  20868240.078    -2718913.792 9 -10840299.86329       102.000
  24413380.029    15337617.633 7  12024857.45525        48.000
  22936624.685     4754725.095 7 -10930133.04825        46.000
 96  6 10 20 13 30.0020000  0  6G24G 6G 4G 5G 9G16
  21652514.446     4198003.586 9   -635081.00329       134.000
  24100816.832   -13905683.759 7  -5894675.17725        48.000
  23936031.800    16554508.844 8  13194813.69026        66.000
  20868306.962    -2718586.842 9 -10840045.11529       104.000
  24422382.766    15384959.002 7  12061746.78825        42.000
  22929290.892     4716208.689 7 -10960145.83725        42.000
 96  6 10 20 13 45.0020000  0  6G24G 6G 4G 5G 9G16
  21657999.539     4226836.984 9   -612613.45129       136.000
  24094885.138   -13936854.682 7  -5918964.18325        46.000
  23945421.959    16603871.454 8  13233278.03626        64.000
  20868389.375    -2718131.398 9 -10839690.22929       106.000
  24431393.868    15432309.352 7  12098643.13425        44.000
  22921982.702     4677763.670 7 -10990103.00425        44.000
 96  6 10 20 14  0.0020000  0  6G24G 6G 4G 5G 9G16
  21663500.461     4255754.571 9   -590080.26229       130.000
  24088952.725   -13968024.675 7  -5943252.43125        42.000
  23954817.755    16653258.641 7  13271761.54226        62.000
  20868502.097    -2717544.126 9 -10839232.62429       110.000
  24440405.210    15479672.540 6  12135549.46825        38.000
  22914684.254     4639396.142 7 -11019999.77825        44.000
 96  6 10 20 14 15.0020000  0  6G24G 6G 4G 5G 9G16
  21669021.858     4284752.161 9   -567484.75929       128.000
  24083016.505   -13999195.265 7  -5967541.23625        48.000
  23964217.567    16702669.796 7  13310263.69726        62.000
  20868637.993    -2716828.084 9 -10838674.69129       112.000
  24449421.558    15527047.052 6  12172464.56925        40.000
  22907396.869     4601107.190 7 -11049835.28925        48.000
 96  6 10 20 14 30.0020000  0  6G24G 6G 4G 5G 9G16
  21674551.051     4313829.009 9   -544827.44429       132.000
  24077096.353   -14030361.695 7  -5991826.74925        54.000
  23973633.389    16752106.836 8  13348786.07226        64.000
  20868800.840    -2715981.895 9 -10838015.29229       112.000
  24458440.454    15574433.731 6  12209389.20325        36.000
  22900127.352     4562899.021 7 -11079607.83325        50.000
 96  6 10 20 14 45.0020000  0  6G24G 6G 4G 5G 9G16
  21680100.059     4342981.551 9   -522111.19429       134.000
  24071164.570   -14061526.193 7  -6016110.73925        60.000
  23983045.283    16801564.634 7  13387324.60226        60.000
  20868988.210    -2715006.668 9 -10837255.38429       112.000
  24467466.785    15621831.581 6  12246322.55525        36.000
  22892864.849     4524769.319 7 -11109319.28425        44.000
 96  6 10 20 15  0.0020000  0  6G24G 6G 4G 5G 9G16
  21685660.580     4372207.480 9   -499337.75229       128.000
  24065232.216   -14092685.467 8  -6040390.67625        64.000
  23992453.580    16851040.781 7  13425877.41926        56.000
  20869197.705    -2713901.474 9 -10836394.19529       114.000
  24476475.309    15669245.840 6  12283268.72425        30.000
  22885628.489     4486715.921 7 -11138971.24725        46.000
 96  6 10 20 15 15.0020000  0  6G24G 6G 4G 5G 9G16
  21691237.649     4401500.676 9   -476511.87729       130.000
  24059307.298   -14123836.864 8  -6064664.47425        64.000
  24001872.370    16900533.899 7  13464443.46626        56.000
  20869430.584    -2712666.247 9 -10835431.68629       112.000
  24485512.732    15716678.506 6  12320229.17825        38.000
  22878392.518     4448736.515 7 -11168565.57325        44.000
 96  6 10 20 15 30.0020000  0  6G24G 6G 4G 5G 9G16
  21696828.718     4430866.377 9   -453629.50029       134.000
  24053379.922   -14154972.408 7  -6088925.88225        58.000
  24011292.238    16950047.451 7  13503025.45326        52.000
  20869693.082    -2711293.388 9 -10834361.92029       108.000
  24494543.261    15764133.957 6  12357207.41325        40.000
  22871184.339     4410836.647 7 -11198097.93025        46.000
 96  6 10 20 15 45.0020000  0  6G24G 6G 4G 5G 9G16
  21702425.723     4460303.633 9   -430691.43829       126.000
  24047452.485   -14186093.047 7  -6113175.75425        54.000
  24020723.019    16999577.690 7  13541620.38826        56.000
  20869981.962    -2709783.854 9 -10833185.69929       110.000
  24503580.744    15811609.684 6  12394201.44025        38.000
  22863984.913     4373014.570 7 -11227569.70825        48.000
 96  6 10 20 16  0.0020000  0  6G24G 6G 4G 5G 9G16
  21708040.117     4489806.776 9   -407701.98229       126.000
  24041532.693   -14217203.109 7  -6137417.35625        50.000
  24030149.274    17049118.993 7  13580223.99326        54.000
  20870293.446    -2708144.247 9 -10831908.09129       108.000
  24512606.805    15859096.081 6  12431203.70125        32.000
  22856803.264     4335266.432 7 -11256983.83025        54.000
 96  6 10 20 16 15.0020000  0  6G24G 6G 4G 5G 9G16
  21713666.352     4519375.131 9   -384661.66329       124.000
  24035623.184   -14248302.956 7  -6161650.98525        56.000
  24039576.338    17098669.824 7  13618835.06626        52.000
  20870630.083    -2706374.129 9 -10830528.74629       110.000
  24521644.619    15906590.168 6  12468212.11624        28.000
  22849635.197     4297590.903 7 -11286341.29425        52.000
 96  6 10 20 16 30.0020000  0  6G24G 6G 4G 5G 9G16
  21719304.788     4549011.916 9   -361568.09429       126.000
  24029707.769   -14279387.744 7  -6185872.88525        56.000
  24049013.684    17148236.035 7  13657458.03026        52.000
  20870992.053    -2704467.731 9 -10829043.27429       108.000
  24530688.548    15954097.521 6  12505230.78524        32.000
  22842480.830     4259991.825 7 -11315639.32025        56.000
 96  6 10 20 16 45.0020000  0  6G24G 6G 4G 5G 9G16
  21724959.084     4578719.744 9   -338419.13329       130.000
  24023789.087   -14310457.982 7  -6210083.43925        52.000
  24058437.210    17197815.801 7  13696091.59626        50.000
  20871383.012    -2702423.294 9 -10827450.20329       110.000
  24539737.094    16001617.061 6  12542258.94324        36.000
  22835341.002     4222469.756 7 -11344877.25725        48.000
 96  6 10 20 17  0.0020000  0  6G24G 6G 4G 5G 9G16
  21730630.108     4608506.452 9   -315208.72529       132.000
  24017870.314   -14341510.056 7  -6234279.83925        48.000
  24067885.170    17247413.721 7  13734739.31626        52.000
  20871796.456    -2700237.968 9 -10825747.36529       112.000
  24548780.183    16049152.711 6  12579299.61724        32.000
  22828212.507     4185031.180 7 -11374050.17225        50.000
 96  6 10 20 17 15.0020000  0  6G24G 6G 4G 5G 9G16
  21736307.547     4638366.410 9   -291941.22229       126.000
  24011984.429   -14372549.484 7  -6258466.36925        52.000
  24077322.936    17297025.315 7  13773397.67626        54.000
  20872238.530    -2697918.757 9 -10823940.18229       116.000
  24557830.438    16096695.340 6  12616345.73324        34.000
  22821107.186     4147670.839 7 -11403162.11425        50.000
 96  6 10 20 17 30.0020000  0  6G24G 6G 4G 5G 9G16
  21742006.242     4668299.945 9   -268616.40429       126.000
  24006067.635   -14403583.793 7  -6282648.93725        52.000
  24086769.247    17346647.261 7  13812064.11326        54.000
  20872705.936    -2695467.281 9 -10822029.94029       116.000
  24566877.215    16144236.667 6  12653390.87624        38.000
  22814014.037     4110388.112 7 -11432213.58225        56.000
 96  6 10 20 17 45.0020000  0  6G24G 6G 4G 5G 9G16
  21747717.888     4698315.936 9   -245227.32929       126.000
  24000162.923   -14434612.275 7  -6306826.96325        54.000
  24096207.073    17396284.904 7  13850742.78926        52.000
  20873196.517    -2692877.587 9 -10820012.01229       116.000
  24575919.885    16191780.962 7  12690438.36124        44.000
  22806934.198     4073189.084 7 -11461199.84125        56.000
 96  6 10 20 18  0.0020000  0  6G24G 6G 4G 5G 9G16
  21753448.451     4728419.122 9   -221770.31129       126.000
  23994255.992   -14465630.336 7  -6330996.85425        46.000
  24105661.928    17445946.387 7  13889440.04826        56.000
  20873717.076    -2690145.631 9 -10817883.22529       114.000
  24584976.795    16239335.647 7  12727493.81524        44.000
  22799874.385     4036082.395 7 -11490114.09826        56.000
 96  6 10 20 18 15.0020000  0  6G24G 6G 4G 5G 9G16
  21759190.346     4758604.622 9   -198249.14929       128.000
  23988354.158   -14496642.470 7  -6355162.10625        50.000
  24115121.699    17495626.471 7  13928151.78026        62.000
  20874262.699    -2687276.442 9 -10815647.49629       114.000
  24594023.422    16286896.785 6  12764554.41925        38.000
  22792828.063     3999063.071 7 -11518960.30126        56.000
 96  6 10 20 18 30.0020000  0  6G24G 6G 4G 5G 9G16
  21764952.687     4788877.021 9   -174660.26929       130.000
  23982459.489   -14527647.561 7  -6379321.86925        52.000
  24124575.234    17545328.613 7  13966880.71926        62.000
  20874837.131    -2684266.749 9 -10813302.28129       114.000
  24603071.008    16334471.725 6  12801625.74925        38.000
  22785806.834     3962134.244 7 -11547735.98326        54.000
 96  6 10 20 18 45.0020000  0  6G24G 6G 4G 5G 9G16
  21770728.938     4819246.718 9   -150995.56029       130.000
  23976560.413   -14558634.683 7  -6403467.66325        52.000
  24134037.464    17595061.545 8  14005633.65026        64.000
  20875437.705    -2681107.250 9 -10810840.32529       110.000
  24612137.482    16382068.670 7  12838714.21525        44.000
  22778792.410     3925305.436 7 -11576433.73126        52.000
 96  6 10 20 19  0.0020000  0  6G24G 6G 4G 5G 9G16
  21776525.665     4849710.773 9   -127257.35129       130.000
  23970670.540   -14589606.381 7  -6427601.49925        54.000
  24143512.014    17644824.490 8  14044409.92026        68.000
  20876067.479    -2677800.789 9 -10808263.89229       106.000
  24621191.874    16429684.991 7  12875817.78025        44.000
  22771797.023     3888573.477 7 -11605056.04826        48.000
 96  6 10 20 19 15.0020000  0  6G24G 6G 4G 5G 9G16
  21782338.791     4880248.497 9   -103461.71829       132.000
  23964773.113   -14620579.983 7  -6451736.74325        54.000
  24152979.490    17694600.177 8  14083196.13426        64.000
  20876719.498    -2674366.170 9 -10805587.56929       106.000
  24630257.328    16477302.508 7  12912922.29925        48.000
  22764825.949     3851920.163 7 -11633617.04226        52.000
 96  6 10 20 19 30.0020000  0  6G24G 6G 4G 5G 9G16
  21788166.037     4910863.730 9    -79605.70329       130.000
  23958887.737   -14651550.465 7  -6475869.55225        58.000
  24162453.352    17744394.563 8  14121996.95426        64.000
  20877399.547    -2670793.963 9 -10802804.04429       108.000
  24639323.471    16524927.285 7  12950032.44325        50.000
  22757867.676     3815351.527 7 -11662112.05626        50.000
 96  6 10 20 19 45.0020000  0  6G24G 6G 4G 5G 9G16
  21794004.585     4941559.406 9    -55686.98329       120.000
  23952990.730   -14682511.918 7  -6499995.31025        62.000
  24171937.766    17794213.522 8  14160816.88926        70.000
  20878106.997    -2667079.164 9 -10799909.39629       112.000
  24648385.927    16572566.202 7  12987153.60625        50.000
  22750923.943     3778872.111 7 -11690537.55326        52.000
 96  6 10 20 20  0.0020000  0  6G24G 6G 4G 5G 9G16
  21799860.191     4972330.244 9    -31709.71429       124.000
  23947100.018   -14713461.941 7  -6524112.19625        58.000
  24181419.542    17844055.743 8  14199654.95426        68.000
  20878842.808    -2663223.420 9 -10796904.93329       114.000
  24657450.692    16620217.926 7  13024284.74025        50.000
  22744002.095     3742481.369 7 -11718893.95626        52.000
 96  6 10 20 20 15.0020000  0  6G24G 6G 4G 5G 9G16
  21805728.538     5003172.954 9     -7676.47029       112.000
  23941215.152   -14744398.850 7  -6548218.88425        54.000
  24190911.540    17893916.222 8  14238507.22426        64.000
  20879599.004    -2659227.881 9 -10793791.56429       114.000
  24666523.971    16667878.359 7  13061422.64825        50.000
  22737092.149     3706176.224 7 -11747183.71026        52.000
 96  6 10 20 20 30.0020000  0  6G24G 6G 4G 5G 9G16
  21811611.635     5034093.931 9     16417.79929       116.000
  23935330.705   -14775317.703 7  -6572311.44925        52.000
  24200404.199    17943798.836 7  14277376.78926        58.000
  20880389.467    -2655086.469 9 -10790564.47529       118.000
  24675586.577    16715551.690 7  13098570.66225        48.000
  22730205.076     3669958.552 7 -11775405.24026        56.000
 96  6 10 20 20 45.0020000  0  6G24G 6G 4G 5G 9G16
  21817511.131     5065084.529 9     40566.29729       118.000
  23929453.214   -14806222.598 7  -6596393.19125        54.000
  24209893.170    17993699.243 7  14316260.18426        50.000
  20881204.333    -2650803.866 9 -10787227.39129       124.000
  24684661.474    16763231.071 7  13135723.34025        46.000
  22723322.621     3633824.320 7 -11803561.79426        56.000
 96  6 10 20 21  0.0020000  0  6G24G 6G 4G 5G 9G16
  21823422.709     5096144.056 9     64768.53229       118.000
  23923569.428   -14837110.433 7  -6620461.64125        54.000
  24219392.873    18043617.934 7  14355157.83926        52.000
  20882047.409    -2646377.257 9 -10783778.09129       128.000
  24693735.143    16810916.833 7  13172880.99525        46.000
  22716463.220     3597775.991 7 -11831651.39526        52.000
 96  6 10 20 21 15.0020000  0  6G24G 6G 4G 5G 9G16
  21829345.379     5127271.332 9     89023.52629       118.000
  23917695.954   -14867984.009 7  -6644518.95325        54.000
  24228905.408    18093553.279 7  14394068.48327        56.000
  20882917.497    -2641809.019 9 -10780218.43529       124.000
  24702817.475    16858609.673 7  13210044.16425        50.000
  22709628.042     3561818.258 7 -11859670.37926        56.000
 96  6 10 20 21 30.0020000  0  6G24G 6G 4G 5G 9G16
  21835279.980     5158470.372 9    113334.46729       114.000
  23911822.690   -14898839.897 7  -6668562.45925        54.000
  24238407.510    18143505.660 7  14432992.40227        52.000
  20883812.437    -2637096.016 9 -10776545.96429       122.000
  24711900.467    16906310.519 7  13247213.56425        50.000
  22702803.086     3525956.992 7 -11887614.19026        62.000
 96  6 10 20 21 45.0020000  0  6G24G 6G 4G 5G 9G16
  21841230.141     5189728.466 9    137691.42029       118.000
  23905954.342   -14929692.617 7  -6692603.52425        58.000
  24247912.909    18193463.377 7  14471920.49827        48.000
  20884733.700    -2632250.437 9 -10772770.19429       118.000
  24720963.463    16954003.977 7  13284377.26025        48.000
  22695991.832     3490177.873 7 -11915493.99326        60.000
 96  6 10 20 22  0.0020000  0  6G24G 6G 4G 5G 9G16
  21847190.615     5221047.207 9    162095.61829       116.000
  23900083.656   -14960541.913 8  -6716641.93025        64.000
  24257416.870    18243426.284 7  14510852.61727        48.000
  20885681.104    -2627273.660 9 -10768892.20529       116.000
  24730043.037    17001688.639 7  13321534.04125        48.000
  22689192.989     3454482.933 7 -11943308.23126        54.000
 96  6 10 20 22 15.0020000  0  6G24G 6G 4G 5G 9G16
  21853163.740     5252438.136 9    186556.08729       118.000
  23894219.326   -14991379.724 8  -6740671.35725        66.000
  24266928.835    18293403.675 7  14549796.04327        50.000
  20886656.479    -2622157.021 9 -10764905.20629       116.000
  24739111.489    17049374.668 7  13358691.96325        46.000
  22682420.617     3418882.925 7 -11971048.47626        54.000
 96  6 10 20 22 30.0020000  0  6G24G 6G 4G 5G 9G16
  21859152.214     5283893.021 9    211066.38429       124.000
  23888348.520   -15022218.354 7  -6764701.43826        58.000
  24276437.592    18343388.873 7  14588745.55127        50.000
  20887654.758    -2616913.488 9 -10760819.34229       116.000
  24748188.995    17097054.896 7  13395845.31325        46.000
  22675670.580     3383368.737 7 -11998721.82826        58.000
 96  6 10 20 22 45.0020000  0  6G24G 6G 4G 5G 9G16
  21865145.665     5315409.952 9    235625.01929       122.000
  23882477.775   -15053058.263 7  -6788732.52926        58.000
  24285954.893    18393385.397 7  14627703.84126        54.000
  20888676.750    -2611543.637 9 -10756635.05229       112.000
  24757262.634    17144730.944 7  13432995.38125        48.000
  22668920.693     3347945.303 7 -12026324.50626        54.000
 96  6 10 20 23  0.0020000  0  6G24G 6G 4G 5G 9G16
  21871157.613     5346994.469 9    260236.33729       124.000
  23876613.744   -15083893.712 7  -6812760.10726        62.000
  24295464.490    18443398.341 7  14666674.95126        54.000
  20889724.734    -2606043.207 9 -10752349.00829       112.000
  24766341.189    17192406.456 7  13470145.06925        46.000
  22662197.937     3312621.349 7 -12053849.63526        54.000
 96  6 10 20 23 15.0020000  0  6G24G 6G 4G 5G 9G16
  21877181.972     5378648.151 9    284901.51929       128.000
  23870743.838   -15114726.686 7  -6836785.83026        62.000
  24304984.309    18493428.760 7  14705659.68326        56.000
  20890795.143    -2600412.736 9 -10747961.65829       112.000
  24775408.472    17240078.972 7  13507292.39525        46.000
  22655499.224     3277397.667 7 -12081296.66526        54.000
 96  6 10 20 23 30.0020000  0  6G24G 6G 4G 5G 9G16
  21883217.334     5410369.972 9    309619.82829       126.000
  23864878.279   -15145559.995 7  -6860811.77726        62.000
  24314519.059    18543476.667 7  14744658.05626        62.000
  20891890.045    -2594654.134 9 -10743474.43129       114.000
  24784472.007    17287744.181 7  13544434.08025        44.000
  22648819.189     3242271.291 7 -12108667.84426        54.000
 96  6 10 20 23 45.0020000  0  6G24G 6G 4G 5G 9G16
  21889267.565     5442163.557 9    334394.04329       126.000
  23859004.865   -15176390.424 7  -6884835.44526        58.000
  24324050.121    18593548.297 8  14783674.87026        66.000
  20893011.299    -2588763.592 9 -10738884.39729       118.000
  24793537.461    17335404.237 6  13581571.70025        36.000
  22642148.057     3207242.924 7 -12135962.66326        54.000
 96  6 10 20 24  0.0020000  0  6G24G 6G 4G 5G 9G16
  21895331.887     5474030.876 9    359225.72229       122.000
  23853144.642   -15207213.200 7  -6908853.14226        62.000
  24333579.443    18643645.273 8  14822711.47426        64.000
  20894157.826    -2582736.540 9 -10734188.00429       120.000
  24802618.235    17383066.500 6  13618711.06625        34.000
  22635504.566     3172315.561 7 -12163178.77426        58.000
 96  6 10 20 24 15.0020000  0  6G24G 6G 4G 5G 9G16
  21901410.689     5505968.635 9    384112.25529       120.000
  23847279.052   -15238026.917 8  -6932863.82526        66.000
  24343111.764    18693763.413 7  14861764.52026        58.000
  20895329.384    -2576573.562 9 -10729385.70429       116.000
  24811690.524    17430732.852 6  13655853.57725        32.000
  22628876.665     3137489.471 7 -12190315.99826        56.000
 96  6 10 20 24 30.0020000  0  6G24G 6G 4G 5G 9G16
  21907496.056     5537964.381 9    409044.01129       118.000
  23841414.542   -15268840.849 8  -6956874.64526        64.000
  24352646.634    18743889.960 7  14900824.15926        54.000
  20896527.385    -2570284.081 9 -10724484.80029       116.000
  24820755.349    17478393.394 6  13692991.63425        40.000
  22622262.224     3102752.219 7 -12217383.95026        58.000
 96  6 10 20 24 45.0020000  0  6G24G 6G 4G 5G 9G16
  21913594.584     5570017.730 9    434020.63829       112.000
  23835555.998   -15299650.219 8  -6980881.92726        64.000
  24362196.642    18794024.319 7  14939889.86526        58.000
  20897746.701    -2563862.499 9 -10719480.97029       118.000
  24829822.362    17526047.259 6  13730124.45625        40.000
  22615674.105     3068105.053 7 -12244381.70526        54.000
 96  6 10 20 25  0.0020000  0  6G24G 6G 4G 5G 9G16
  21919705.614     5602131.428 9    459044.29929       118.000
  23829689.179   -15330450.064 8  -7004881.79626        64.000
  24371743.653    18844168.006 7  14978962.82026        60.000
  20898999.893    -2557302.314 9 -10714369.16229       114.000
  24838896.899    17573693.982 7  13767251.70825        44.000
  22609095.129     3033549.602 7 -12271308.02926        56.000
 96  6 10 20 25 15.0020000  0  6G24G 6G 4G 5G 9G16
  21925829.324     5634299.819 9    484110.56629       122.000
  23823833.933   -15361246.477 8  -7028878.97426        70.000
  24381277.773    18894312.668 7  15018036.54626        60.000
  20900270.564    -2550607.751 9 -10709152.62329       106.000
  24847950.602    17621325.734 6  13804367.28825        38.000
  22602536.540     2999075.583 7 -12298170.89126        58.000
 96  6 10 20 25 30.0020000  0  6G24G 6G 4G 5G 9G16
  21931961.759     5666528.142 9    509223.52729       118.000
  23817975.269   -15392031.838 8  -7052867.54326        72.000
  24390826.432    18944462.492 7  15057114.30926        60.000
  20901567.946    -2543772.017 9 -10703826.08529       104.000
  24857017.675    17668950.908 7  13841477.70325        42.000
  22595993.749     2964686.362 7 -12324967.69526        58.000
 96  6 10 20 25 45.0020000  0  6G24G 6G 4G 5G 9G16
  21938108.374     5698821.334 9    534387.04629       120.000
  23812119.123   -15422798.650 8  -7076841.65826        64.000
  24400371.404    18994619.077 7  15096197.36226        56.000
  20902898.634    -2536791.840 9 -10698387.00129       106.000
  24866084.268    17716577.004 7  13878588.94125        44.000
  22589469.336     2930385.953 7 -12351695.25126        62.000
 96  6 10 20 26  0.0020000  0  6G24G 6G 4G 5G 9G16
  21944261.884     5731172.580 9    559595.79029       120.000
  23806266.575   -15453548.706 7  -7100802.72326        62.000
  24409909.421    19044774.194 7  15135279.20526        52.000
  20904255.105    -2529670.666 9 -10692838.06129       110.000
  24875145.195    17764201.328 7  13915698.72125        50.000
  22582959.612     2896169.366 7 -12378357.52426        58.000
 96  6 10 20 26 15.0020000  0  6G24G 6G 4G 5G 9G16
  21950434.251     5763582.872 9    584850.56029       128.000
  23800428.476   -15484279.765 8  -7124748.98626        68.000
  24419450.706    19094928.030 7  15174360.11426        54.000
  20905637.358    -2522407.187 9 -10687178.20929       112.000
  24884211.549    17811825.180 7  13952808.12425        48.000
  22576457.264     2862038.328 7 -12404953.10926        52.000
 96  6 10 20 26 30.0020000  0  6G24G 6G 4G 5G 9G16
  21956614.952     5796055.446 9    610153.87529       128.000
  23794579.465   -15514994.637 7  -7148682.62426        62.000
  24428997.207    19145083.484 7  15213442.29426        56.000
  20907044.764    -2515003.112 9 -10681408.79429       114.000
  24893265.251    17859445.404 7  13989914.74025        48.000
  22569980.188     2827993.529 7 -12431481.49626        50.000
 96  6 10 20 26 45.0020000  0  6G24G 6G 4G 5G 9G16
  21962801.889     5828592.375 9    635507.31429       126.000
  23788735.161   -15545694.869 7  -7172604.85626        56.000
  24438542.419    19195245.618 7  15252529.64326        56.000
  20908483.168    -2507459.192 9 -10675530.42529       116.000
  24902332.324    17907061.761 7  14027018.29325        46.000
  22563522.269     2794036.402 7 -12457941.62326        50.000
 96  6 10 20 27  0.0020000  0  6G24G 6G 4G 5G 9G16
  21969007.533     5861194.335 9    660911.43129       126.000
  23782893.825   -15576383.751 7  -7196518.24626        56.000
  24448094.047    19245415.696 7  15291623.18726        56.000
  20909943.188    -2499778.049 9 -10669545.12529       112.000
  24911386.296    17954672.657 7  14064117.60525        48.000
  22557074.632     2760166.939 7 -12484333.38326        46.000
 96  6 10 20 27 15.0020000  0  6G24G 6G 4G 5G 9G16
  21975224.239     5893859.863 9    686365.07229       130.000
  23777053.718   -15607065.446 7  -7220426.03626        56.000
  24457641.627    19295592.516 7  15330721.98326        54.000
  20911431.477    -2491963.506 9 -10663455.90129       110.000
  24920454.808    18002277.862 7  14101212.47225        50.000
  22550643.155     2726384.308 7 -12510657.52426        48.000
 96  6 10 20 27 30.0020000  0  6G24G 6G 4G 5G 9G16
  21981451.348     5926586.649 9    711866.48029       128.000
  23771215.200   -15637743.802 7  -7244331.23526        58.000
  24467192.955    19345771.010 7  15369822.10326        54.000
  20912937.575    -2484018.820 9 -10657265.22229       110.000
  24929506.472    18049876.171 7  14138301.95725        52.000
  22544227.566     2692688.355 7 -12536914.10526        48.000
 96  6 10 20 27 45.0020000  0  6G24G 6G 4G 5G 9G16
  21987690.299     5959377.172 9    737417.50429       128.000
  23765380.100   -15668416.561 8  -7268232.09526        66.000
  24476738.407    19395955.892 7  15408927.19626        56.000
  20914475.720    -2475941.077 9 -10650970.88529       110.000
  24938568.089    18097470.351 7  14175388.26725        54.000
  22537833.562     2659086.284 7 -12563097.51026        42.000
 96  6 10 20 28  0.0020000  0  6G24G 6G 4G 5G 9G16
  21993947.747     5992237.669 9    763023.07629       134.000
  23759546.318   -15699082.464 8  -7292127.57426        68.000
  24486293.452    19446154.593 7  15448043.01226        58.000
  20916040.996    -2467722.426 9 -10644566.75729       114.000
  24947624.519    18145063.631 7  14212473.86625        52.000
  22531467.050     2625586.026 7 -12589201.59626        50.000
 96  6 10 20 28 15.0020000  0  6G24G 6G 4G 5G 9G16
  22000210.081     6025166.110 9    788681.61029       132.000
  23753708.969   -15729748.080 8  -7316022.81026        70.000
  24495846.458    19496364.931 7  15487167.96426        54.000
  20917632.894    -2459364.164 9 -10638053.81729       112.000
  24956677.622    18192652.805 7  14249556.27625        50.000
  22525110.251     2592185.353 7 -12615228.06826        50.000
 96  6 10 20 28 30.0020000  0  6G24G 6G 4G 5G 9G16
  22006490.614     6058166.127 9    814395.87729       136.000
  23747871.411   -15760413.239 8  -7339917.74426        70.000
  24505409.088    19546591.666 7  15526305.63326        56.000
  20919250.005    -2450862.869 9 -10631429.46329       110.000
  24965727.606    18240239.138 7  14286636.42825        42.000
  22518771.829     2558889.458 7 -12641172.95926        52.000
 96  6 10 20 28 45.0020000  0  5G24G 6G 4G 5G16
  22012778.790     6091232.376 9    840161.79829       132.000
  23742036.670   -15791078.317 8  -7363812.58826        64.000
  24514961.915    19596831.439 7  15565453.52926        56.000
  20920896.854    -2442219.753 9 -10624694.54729       110.000
  22512460.598     2525696.792 7 -12667037.33626        52.000
 96  6 10 20 29  0.0020000  0  5G24G 6G 4G 5G16
  22019086.993     6124363.718 9    865978.42829       132.000
  23736205.167   -15821738.195 7  -7387703.38026        58.000
  24524525.744    19647081.811 7  15604609.66826        58.000
  20922568.917    -2433431.374 9 -10617846.46529       114.000
  22506160.100     2492607.119 7 -12692821.46226        50.000
 96  6 10 20 29 15.0020000  0  5G24G 6G 4G 5G16
  22025405.359     6157557.844 9    891843.99229       126.000
  23730374.983   -15852390.507 7  -7411588.25626        62.000
  24534090.832    19697339.505 7  15643771.49826        60.000
  20924269.520    -2424496.558 9 -10610884.24829       116.000
  22499877.199     2459621.038 7 -12718524.88026        52.000
 96  6 10 20 29 30.0020000  0  5G24G 6G 4G 5G16
  22031735.117     6190826.729 9    917767.76029       124.000
  23724540.842   -15883022.825 8  -7435457.59226        64.000
  24543657.899    19747614.682 7  15682946.90426        62.000
  20926000.311    -2415403.008 9 -10603798.39229       112.000
  22493629.284     2426751.177 7 -12744137.77126        56.000
 96  6 10 20 29 45.0020000  0  5G24G 6G 4G 5G16
  22038075.668     6224160.705 9    943742.28729       122.000
  23718713.926   -15913645.257 8  -7459319.20326        68.000
  24553226.945    19797898.646 7  15722129.18626        62.000
  20927761.442    -2406162.257 9 -10596597.81129       114.000
  22487393.302     2393988.156 7 -12769667.34126        54.000
 96  6 10 20 30  0.0020000  0  5G24G 6G 4G 5G16
  22044428.690     6257555.692 9    969764.34629       118.000
  23712889.228   -15944262.858 8  -7483177.06826        70.000
  24562794.821    19848189.255 7  15761316.65426        58.000
  20929542.419    -2396782.400 9 -10589288.85129       116.000
  22481171.769     2361326.111 7 -12795118.28126        56.000
 96  6 10 20 30 15.0020000  0  5G24G 6G 4G 5G16
  22050798.500     6291011.073 9    995833.46329       122.000
  23707060.783   -15974872.332 8  -7507028.60426        70.000
  24572368.573    19898486.442 7  15800509.24826        60.000
  20931351.577    -2387265.325 9 -10581872.96129       112.000
  22474975.178     2328765.120 7 -12820490.48726        58.000
 96  6 10 20 30 30.0020000  0  5G24G 6G 4G 5G16
  22057174.396     6324516.045 9   1021941.22929       124.000
  23701238.244   -16005478.090 8  -7530877.25026        68.000
  24581940.737    19948781.750 7  15839700.36526        60.000
  20933189.844    -2377620.492 9 -10574357.51829       120.000
  22468800.743     2296296.180 7 -12845790.96326        56.000
 96  6 10 20 30 45.0020000  0  5G24G 6G 4G 5G16
  22063560.365     6358081.090 9   1048095.79729       120.000
  23695417.204   -16036064.434 8  -7554710.73826        64.000
  24591513.589    19999088.352 7  15878900.31825        60.000
  20935052.215    -2367836.151 9 -10566733.35529       120.000
  22462644.115     2263931.182 7 -12871010.40126        60.000
 96  6 10 20 31  0.0020000  0  5G24G 6G 4G 5G16
  22069960.244     6391703.220 9   1074294.84529       122.000
  23689600.301   -16066636.301 8  -7578532.93626        66.000
  24601094.237    20049399.816 7  15918104.01025        58.000
  20936933.982    -2357919.245 9 -10559005.90829       116.000
  22456499.449     2231664.979 7 -12896152.91426        58.000
 96  6 10 20 31 15.0020000  0  5G24G 6G 4G 5G16
  22076366.120     6425375.957 9   1100533.33529       122.000
  23683782.289   -16097204.324 8  -7602352.15726        68.000
  24610666.610    20099709.712 7  15957306.49325        54.000
  20938848.517    -2347877.738 9 -10551181.35829       116.000
  22450381.464     2199490.709 7 -12921223.72426        56.000
 96  6 10 20 31 30.0020000  0  5G24G 6G 4G 5G16
  22082785.576     6459102.466 9   1126813.74129       126.000
  23677965.506   -16127769.682 8  -7626169.27926        66.000
  24620232.897    20150022.384 7  15996511.14125        48.000
  20940783.917    -2337709.467 9 -10543258.02129       116.000
  22444274.602     2167411.587 7 -12946220.42626        60.000
 96  6 10 20 31 45.0020000  0  5G24G 6G 4G 5G16
  22089218.732     6492891.827 9   1153143.07229       126.000
  23672150.012   -16158324.689 8  -7649978.39126        68.000
  24629805.211    20200344.987 7  16035723.52625        46.000
  20942740.003    -2327407.723 9 -10535230.72029       112.000
  22438190.794     2135433.962 7 -12971138.07626        56.000
 96  6 10 20 32  0.0020000  0  5G24G 6G 4G 5G16
  22095655.906     6526742.419 9   1179520.13929       126.000
  23666342.372   -16188867.789 8  -7673778.20426        68.000
  24639389.186    20250677.013 7  16074943.27625        46.000
  20944727.627    -2316971.163 9 -10527098.35029       110.000
  22432122.904     2103557.325 7 -12995977.02226        52.000
 96  6 10 20 32 15.0020000  0  5G24G 6G 4G 5G16
  22102108.249     6560646.338 9   1205938.78329       126.000
  23660531.495   -16219405.584 8  -7697573.83526        70.000
  24648965.996    20301007.967 7  16114162.20025        48.000
  20946742.502    -2306402.227 9 -10518862.82029       112.000
  22426075.731     2071774.481 7 -13020742.81726        54.000
 96  6 10 20 32 30.0020000  0  5G24G 6G 4G 5G16
  22108570.875     6594596.427 9   1232393.39229       126.000
  23654719.419   -16249944.614 8  -7721370.49226        64.000
  24658543.526    20351329.397 7  16153373.68125        48.000
  20948778.842    -2295703.174 9 -10510525.89429       110.000
  22420041.598     2040079.820 7 -13045439.96226        54.000
 96  6 10 20 32 45.0020000  0  5G24G 6G 4G 5G16
  22115040.666     6628611.563 9   1258898.70129       126.000
  23648903.115   -16280468.252 7  -7745155.14826        58.000
  24668113.950    20401657.198 7  16192590.10925        46.000
  20950839.915    -2284856.613 9 -10502074.03329       114.000
  22414032.348     2008490.450 7 -13070055.04226        56.000
 96  6 10 20 33  0.0020000  0  5G24G 6G 4G 5G16
  22121524.967     6662694.140 9   1285456.55229       122.000
  23643103.960   -16310977.457 7  -7768928.52126        60.000
  24677690.670    20451988.929 7  16231809.61825        44.000
  20952933.906    -2273861.504 9 -10493506.42629       114.000
  22408041.865     1977008.516 7 -13094586.38426        58.000
 96  6 10 20 33 15.0020000  0  5G24G 6G 4G 5G16
  22128024.018     6696840.911 9   1312064.37429       120.000
  23637306.663   -16341476.121 8  -7792693.70926        70.000
  24687276.654    20502322.742 7  16271030.73625        44.000
  20955055.117    -2262718.829 9 -10484823.87029       112.000
  22402076.235     1945635.256 8 -13119033.10826        66.000
 96  6 10 20 33 30.0020000  0  5G24G 6G 4G 5G16
  22134534.551     6731044.656 9   1338716.64129       114.000
  23631498.964   -16371968.431 8  -7816453.93026        74.000
  24696860.449    20552652.378 7  16310248.57225        48.000
  20957200.882    -2251436.227 9 -10476032.23029       112.000
  22396125.265     1914362.962 8 -13143401.11926        66.000
 96  6 10 20 33 45.0020000  0  5G24G 6G 4G 5G16
  22141057.585     6765312.672 9   1365418.98829       110.000
  23625701.337   -16402448.019 8  -7840204.21526        72.000
  24706433.362    20602982.048 7  16349466.51725        48.000
  20959373.508    -2240008.671 9 -10467127.64529       114.000
  22390192.163     1883198.069 8 -13167685.43926        64.000
 96  6 10 20 34  0.0020000  0  5G24G 6G 4G 5G16
  22147583.707     6799641.552 9   1392168.75229       104.000
  23619897.415   -16432915.030 8  -7863944.73226        64.000
  24716008.553    20653310.025 7  16388683.10825        50.000
  20961577.342    -2228438.117 9 -10458111.62329       118.000
  22384281.035     1852142.877 8 -13191884.25826        66.000
 96  6 10 20 34 15.0020000  0  5G24G 6G 4G 5G16
  22154128.596     6834022.859 9   1418959.37229       104.000
  23614103.566   -16463377.776 8  -7887681.91926        68.000
  24725573.702    20703630.588 7  16427893.94825        44.000
  20963807.468    -2216729.210 9 -10448987.81629       122.000
  22378390.742     1821193.273 8 -13216000.83926        70.000
 96  6 10 20 34 30.0020000  0  5G24G 6G 4G 5G16
  22160684.877     6868477.810 9   1445807.37629       104.000
  23608312.625   -16493814.735 8  -7911398.99826        70.000
  24735164.212    20753967.753 7  16467117.67725        46.000
  20966063.017    -2204862.165 9 -10439740.76429       120.000
  22372526.832     1790372.705 8 -13240016.82626        68.000
 96  6 10 20 34 45.0020000  0  5G24G 6G 4G 5G16
  22167251.561     6902987.898 9   1472698.34429       102.000
  23602524.412   -16524242.876 8  -7935109.25726        70.000
  24744738.564    20804306.495 7  16506342.62125        46.000
  20968347.135    -2192858.194 9 -10430387.05929       124.000
  22366684.237     1759663.576 8 -13263946.02926        70.000
 96  6 10 20 35  0.0020000  0  5G24G 6G 4G 5G16
  22173831.046     6937550.088 9   1499629.91029       102.000
  23596733.921   -16554664.872 8  -7958814.67926        68.000
  24754325.717    20854644.140 7  16545566.79525        52.000
  20970660.154    -2180720.563 9 -10420929.16629       124.000
  22360863.676     1729063.327 8 -13287790.37426        74.000
 96  6 10 20 35 15.0020000  0  5G24G 6G 4G 5G16
  22180417.307     6972163.503 9   1526601.41829       104.000
  23590935.125   -16585080.923 8  -7982515.44026        66.000
  24763903.276    20904982.484 7  16584791.45825        56.000
  20972993.499    -2168448.109 9 -10411366.19129       120.000
  22355056.456     1698574.249 8 -13311548.05326        68.000
 96  6 10 20 35 30.0020000  0  5G24G 6G 4G 5G16
  22187013.011     7006826.663 9   1553611.65629       106.000
  23585154.168   -16615492.410 8  -8006212.70326        68.000
  24773478.738    20955320.964 7  16624016.22725        50.000
  20975354.724    -2156045.824 9 -10401702.09629       122.000
  22349277.747     1668191.962 8 -13335222.55626        72.000
 96  6 10 20 35 45.0020000  0  5G24G 6G 4G 5G16
  22193621.575     7041544.652 9   1580664.61929       110.000
  23579370.092   -16645896.676 7  -8029904.32426        62.000
  24783054.798    21005662.641 7  16663243.50525        44.000
  20977738.434    -2143508.254 9 -10391932.57729       122.000
  22343519.513     1637917.782 8 -13358812.82426        80.000
 96  6 10 20 36  0.0020000  0  5G24G 6G 4G 5G16
  22200237.126     7076321.414 9   1607763.41029       114.000
  23573584.637   -16676287.803 8  -8053585.66526        66.000
  24792633.437    21056014.652 6  16702478.86025        40.000
  20980152.483    -2130826.529 9 -10382050.71329       118.000
  22337778.788     1607760.970 8 -13382311.61926        78.000
 96  6 10 20 36 15.0020000  0  5G24G 6G 4G 5G16
  22206863.378     7111148.741 9   1634901.56029       116.000
  23567803.049   -16706671.588 8  -8077261.32926        72.000
  24802221.040    21106372.148 6  16741718.42325        40.000
  20982595.042    -2118006.164 9 -10372060.84229       116.000
  22332062.225     1577713.773 8 -13405724.99726        82.000
 96  6 10 20 36 30.0020000  0  5G24G 6G 4G 5G16
  22213504.471     7146026.439 9   1662078.98629       122.000
  23562028.057   -16737049.553 8  -8100932.46626        70.000
  24811806.784    21156731.211 6  16780959.24325        40.000
  20985056.847    -2105050.909 9 -10361965.84129       114.000
  22326361.881     1547771.812 8 -13429056.39526        80.000
 96  6 10 20 36 45.0020000  0  5G24G 6G 4G 5G16
  22220152.668     7180962.132 9   1689301.60329       124.000
  23556247.219   -16767414.800 8  -8124593.67826        70.000
  24821396.665    21207097.684 6  16820205.78625        38.000
  20987550.191    -2091957.091 9 -10351762.87629       114.000
  22320687.889     1517939.923 8 -13452302.02026        80.000
 96  6 10 20 37  0.0020000  0  5G24G 6G 4G 5G16
  22226811.658     7215953.909 9   1716567.89729       128.000
  23550468.270   -16797768.611 8  -8148245.99326        70.000
  24830975.993    21257466.600 6  16859454.20125        34.000
  20990064.701    -2078725.940 9 -10341452.90929       116.000
  22315029.127     1488214.114 8 -13475464.98426        80.000
 96  6 10 20 37 15.0020000  0  5G24G 6G 4G 5G16
  22233478.953     7251007.226 9   1743882.16929       126.000
  23544698.075   -16828107.296 8  -8171886.50126        70.000
  24840561.047    21307839.579 6  16898705.87924        32.000
  20992614.226    -2065351.846 9 -10331031.53329       118.000
  22309390.780     1458602.131 8 -13498539.23426        80.000
 96  6 10 20 37 30.0020000  0  5G24G 6G 4G 5G16
  22240163.335     7286111.654 9   1771236.28229       130.000
  23538930.068   -16858441.877 8  -8195523.79726        70.000
  24850141.005    21358205.774 6  16937952.31124        32.000
  20995180.719    -2051847.961 9 -10320509.02129       116.000
  22303779.055     1429093.767 8 -13521532.74526        80.000
 96  6 10 20 37 45.0020000  0  5G24G 6G 4G 5G16
  22246853.714     7321269.567 9   1798632.03029       128.000
  23533158.194   -16888769.729 8  -8219155.90526        74.000
  24859728.278    21408570.165 6  16977197.28324        30.000
  20997774.793    -2038210.032 9 -10309882.10029       112.000
  22298182.649     1399690.705 9 -13544444.22326        84.000
 96  6 10 20 38  0.0020000  0  5G24G 6G 4G 5G16
  22253552.516     7356485.641 9   1826073.14129       124.000
  23527386.199   -16919081.600 8  -8242775.50826        74.000
  24869314.022    21458938.204 6  17016445.14123        30.000
  21000398.247    -2024430.566 9 -10299144.83829       118.000
  22292609.508     1370405.413 9 -13567263.90826        88.000
 96  6 10 20 38 15.0020000  0  5G24G 6G 4G 5G16
  22260263.640     7391757.320 9   1853557.56029       120.000
  23521617.233   -16949377.828 8  -8266382.91926        72.000
  24878891.042    21509306.719 6  17055693.33322        22.000
  21003047.243    -2010513.679 9 -10288300.51929       120.000
  22287060.949     1341236.560 9 -13589992.89126        86.000
 96  6 10 20 38 30.0020000  0  5G24G 6G 4G 5G16
  22266978.482     7427069.326 9   1881073.40129       118.000
  23515852.644   -16979677.131 7  -8289992.75126        62.000
  24888482.662    21559656.894 6  17094927.19722        24.000
  21005718.813    -1996477.547 9 -10277363.26829       120.000
  22281529.178     1312166.156 9 -13612645.14326        90.000
 96  6 10 20 38 45.0020000  0  5G24G 6G 4G 5G16
  22273713.349     7462435.841 9   1908631.69229       118.000
  23510088.714   -17009966.400 7  -8313594.76826        60.000
  24898058.033    21610003.221 6  17134157.98822        26.000
  21008417.815    -1982307.258 9 -10266321.52329       120.000
  22276015.365     1283209.468 9 -13635208.80326        88.000
 96  6 10 20 39  0.0020000  0  5G24G 6G 4G 5G16
  22280452.803     7497850.269 9   1936227.34029       116.000
  23504328.442   -17040247.899 8  -8337190.72226        66.000
  24907634.184    21660343.119 6  17173383.84822        24.000
  21011136.453    -1968002.595 9 -10255175.03429       118.000
  22270527.335     1254364.420 9 -13657685.42626        88.000
 96  6 10 20 39 15.0020000  0  5G24G 6G 4G 5G16
  22287200.712     7533318.190 9   1963864.70129       116.000
  23498567.810   -17070519.273 8  -8360778.77126        66.000
  24917220.917    21710679.595 6  17212607.09522        22.000
  21013887.079    -1953557.425 9 -10243919.05129       118.000
  22265058.731     1225637.662 9 -13680069.87126        90.000
 96  6 10 20 39 30.0020000  0  5G24G 6G 4G 5G16
  22293960.882     7568833.436 9   1991538.86929       114.000
  23492806.878   -17100787.626 8  -8384364.52926        72.000
  24926787.504    21761008.249 6  17251824.18322        22.000
  21016662.287    -1938977.142 9 -10232557.82929       114.000
  22259616.898     1197022.031 9 -13702367.78527        96.000
 96  6 10 20 39 45.0020000  0  5G24G 6G 4G 5G16
  22300728.187     7604396.920 9   2019250.67129       108.000
  23487043.068   -17131049.508 8  -8407945.18526        70.000
  24936356.939    21811334.425 5  17291039.27621        20.000
  21019461.300    -1924256.850 9 -10221087.46429       114.000
  22254190.594     1168516.189 9 -13724580.09627        96.000
 96  6 10 20 40  0.0020000  0  5G24G 6G 4G 5G16
  22307504.786     7640004.345 9   2046996.69229       110.000
  23481288.342   -17161304.049 8  -8431520.16426        68.000
  24945949.009    21861656.131 6  17330250.97721        26.000
  21022290.861    -1909395.560 9 -10209507.25729       118.000
  22248786.745     1140118.277 9 -13746708.35527        96.000
